[[{"header":{"parameterUnit":"m.s-1","parameterCategory":1,"la1":31.0,"la2":29.5877,"lo1":-88.7671,"lo2":-86.6584,"dx":0.0162,"dy":0.0185,"nx":115,"ny":88,"refTime":"2022-12-08T18:00:00:Z","depth":0,"parameterNumber":2,"parameterNumberName":"U-component_of_WINDS"},"data":[0.0,0.0,0.0,0.0,0.0,0.0,0.0,0.0,0.0,0.0,0.0,0.0,0.0,0.0,0.0,0.0,0.0,0.0,0.0,0.0,0.0,0.0,0.0,0.0,0.0,0.0,0.0,0.0,0.0,0.0,0.0,0.0,0.0,0.0,0.0,0.0,0.0,0.0,0.0,0.0,0.0,0.0,0.0,0.0,0.0,0.0,0.0,0.0,0.0,0.0,0.0,0.0,0.0,0.0,0.0,0.0,0.0,0.0,0.0,0.0,0.0,0.0,0.0,0.0,0.0,0.0,0.0,0.0,0.0,0.0,0.0,0.0,0.0,0.0,0.0,0.0,0.0,0.0,0.0,0.0,0.0,0.0,0.0,0.0,0.0,0.0,0.0,0.0,0.0,0.0,0.0,0.0,0.0,0.0,0.0,0.0,0.0,0.0,0.0,0.0,0.0,0.0,0.0,0.0,0.0,0.0,0.0,0.0,0.0,0.0,0.0,0.0,0.0,0.0,0.0,0.0,0.0,0.0,0.0,0.0,0.0,0.0,0.0,0.0,0.0,0.0,0.0,0.0,0.0,0.0,0.0,0.0,0.0,0.0,0.0,0.0,0.0,0.0,0.0,0.0,0.0,0.0,0.0,0.0,0.0,0.0,0.0,0.0,0.0,0.0,0.0,0.0,0.0,0.0,0.0,0.0,0.0,0.0,0.0,0.0,0.0,0.0,0.0,0.0,0.0,0.0,0.0,0.0,0.0,0.0,0.0,0.0,0.0,0.0,0.0,0.0,0.0,0.0,0.0,0.0,0.0,0.0,0.0,0.0,0.0,0.0,0.0,0.0,0.0,0.0,0.0,0.0,0.0,0.0,0.0,0.0,0.0,0.0,0.0,0.0,0.0,0.0,0.0,0.0,0.0,0.0,0.0,0.0,0.0,0.0,0.0,0.0,0.0,0.0,0.0,0.0,0.0,0.0,0.0,0.0,0.0,0.0,0.0,0.0,0.0,0.0,0.0,0.0,0.0,0.0,0.0,0.0,0.0,0.0,0.0,0.0,0.0,0.0,0.0,0.0,0.0,0.0,0.0,0.0,0.0,0.0,0.0,0.0,0.0,0.0,0.0,0.0,0.0,0.0,0.0,0.0,0.0,0.0,0.0,0.0,0.0,0.0,0.0,0.0,0.0,0.0,0.0,0.0,0.0,0.0,0.0,0.0,0.0,0.0,0.0,0.0,0.0,0.0,0.0,0.0,0.0,0.0,0.0,0.0,0.0,0.0,0.0,0.0,0.0,0.0,0.0,0.0,0.0,0.0,0.0,0.0,0.0,0.0,0.0,0.0,0.0,0.0,0.0,0.0,0.0,0.0,0.0,0.0,0.0,0.0,0.0,0.0,0.0,0.0,0.0,0.0,0.0,0.0,0.0,0.0,0.0,0.0,0.0,0.0,0.0,0.0,0.0,0.0,0.0,0.0,0.0,0.0,0.0,0.0,0.0,0.0,0.0,0.0,0.0,0.0,0.0,0.0,0.0,0.0,0.0,0.0,0.0,0.0,0.0,0.0,0.0,0.0,0.0,0.0,0.0,0.0,0.0,0.0,0.0,0.0,0.0,0.0,0.0,0.0,0.0,0.0,0.0,0.0,0.0,0.0,0.0,0.0,0.0,0.0,0.0,0.0,0.0,0.0,0.0,0.0,0.0,0.0,0.0,0.0,0.0,0.0,0.0,0.0,0.0,0.0,0.0,0.0,0.0,0.0,0.0,0.0,0.0,0.0,0.0,0.0,0.0,0.0,0.0,0.0,0.0,0.0,0.0,0.0,0.0,0.0,0.0,0.0,0.0,0.0,0.0,0.0,0.0,0.0,0.0,0.0,0.0,0.0,0.0,0.0,0.0,0.0,0.0,0.0,0.0,0.0,0.0,0.0,0.0,0.0,0.0,0.0,0.0,0.0,0.0,0.0,0.0,0.0,0.0,0.0,0.0,0.0,0.0,0.0,0.0,0.0,0.0,0.0,0.0,0.0,0.0,0.0,0.0,0.0,0.0,0.0,0.0,0.0,0.0,0.0,0.0,0.0,0.0,0.0,0.0,0.0,0.0,0.0,0.0,0.0,0.0,0.0,0.0,0.0,0.0,0.0,0.0,0.0,0.0,0.0,0.0,0.0,0.0,0.0,0.0,0.0,0.0,0.0,0.0,0.0,0.0,0.0,0.0,0.0,0.0,0.0,0.0,0.0,0.0,0.0,0.0,0.0,0.0,0.0,0.0,0.0,0.0,0.0,0.0,0.0,0.0,0.0,0.0,0.0,0.0,0.0,0.0,0.0,0.0,0.0,0.0,0.0,0.0,0.0,0.0,0.0,0.0,0.0,0.0,0.0,0.0,0.0,0.0,0.0,0.0,0.0,0.0,0.0,0.0,0.0,0.0,0.0,0.0,0.0,0.0,0.0,0.0,0.0,0.0,0.0,0.0,0.0,0.0,0.0,0.0,0.0,0.0,0.0,0.0,0.0,0.0,0.0,0.0,0.0,0.0,0.0,0.0,0.0,0.0,0.0,0.0,0.0,0.0,0.0,0.0,0.0,0.0,0.0,0.0,0.0,0.0,0.0,0.0,0.0,0.0,0.0,0.0,0.0,0.0,0.0,0.0,0.0,0.0,0.0,0.0,0.0,0.0,0.0,0.0,0.0,0.0,0.0,0.0,0.0,0.0,0.0,0.0,0.0,0.0,0.0,0.0,0.0,0.0,0.0,0.0,0.0,0.0,0.0,0.0,0.0,0.0,0.0,0.0,0.0,0.0,0.0,0.0,0.0,0.0,0.0,0.0,0.0,0.0,0.0,0.0,0.0,0.0,0.0,0.0,0.0,0.0,0.0,0.0,0.0,0.0,0.0,0.0,0.0,0.0,0.0,0.0,0.0,0.0,0.0,0.0,0.0,0.0,0.0,0.0,0.0,0.0,0.0,0.0,0.0,0.0,0.0,0.0,0.0,0.0,0.0,0.0,0.0,0.0,0.0,0.0,0.0,0.0,0.0,0.0,0.0,0.0,0.0,0.0,0.0,0.0,0.0,0.0,0.0,0.0,0.0,0.0,0.0,0.0,0.0,0.0,0.0,0.0,0.0,0.0,0.0,0.0,0.0,0.0,0.0,0.0,0.0,0.0,0.0,0.0,0.0,0.0,0.0,0.0,0.0,0.0,0.0,0.0,0.0,0.0,0.0,0.0,0.0,0.0,0.0,0.0,0.0,0.0,0.0,0.0,0.0,0.0,0.0,0.0,0.0,0.0,0.0,0.0,0.0,0.0,0.0,0.0,0.0,0.0,0.0,0.0,0.0,0.0,0.0,0.0,0.0,0.0,0.0,0.0,0.0,0.0,0.0,0.0,0.0,0.0,0.0,0.0,0.0,0.0,0.0,0.0,0.0,0.0,0.0,0.0,0.0,0.0,0.0,0.0,0.0,0.0,0.0,0.0,0.0,0.0,0.0,0.0,0.0,0.0,0.0,0.0,0.0,0.0,0.0,0.0,0.0,0.0,0.0,0.0,0.0,0.0,0.0,0.0,0.0,0.0,0.0,0.0,0.0,0.0,0.0,0.0,0.0,0.0,0.0,0.0,0.0,0.0,0.0,0.0,0.0,0.0,0.0,0.0,0.0,0.0,0.0,0.0,0.0,0.0,0.0,0.0,0.0,0.0,0.0,0.0,0.0,0.0,0.0,0.0,0.0,0.0,0.0,0.0,0.0,0.0,0.0,0.0,0.0,0.0,0.0,0.0,0.0,0.0,0.0,0.0,0.0,0.0,0.0,0.0,0.0,0.0,0.0,0.0,0.0,0.0,0.0,0.0,0.0,0.0,0.0,0.0,0.0,0.0,0.0,0.0,0.0,0.0,0.0,0.0,0.0,0.0,0.0,0.0,0.0,0.0,0.0,0.0,0.0,0.0,0.0,0.0,0.0,0.0,0.0,0.0,0.0,0.0,0.0,0.0,0.0,0.0,0.0,0.0,0.0,0.0,0.0,0.0,0.0,0.0,0.0,0.0,0.0,0.0,0.0,0.0,0.0,0.0,0.0,0.0,0.0,0.0,0.0,0.0,0.0,0.0,0.0,0.0,0.0,0.0,0.0,0.0,0.0,0.0,0.0,0.0,0.0,0.0,0.0,0.0,0.0,0.0,0.0,0.0,0.0,0.0,0.0,0.0,0.0,0.0,0.0,0.0,0.0,0.0,0.0,0.0,0.0,0.0,0.0,0.0,0.0,0.0,0.0,0.0,0.0,-0.9615,0.0,0.0,0.0,-0.9617,0.0,0.0,0.0,0.0,0.0,0.0,0.0,0.0,0.0,0.0,0.0,0.0,0.0,0.0,0.0,0.0,0.0,0.0,0.0,0.0,0.0,0.0,0.0,0.0,0.0,0.0,0.0,0.0,0.0,0.0,0.0,0.0,0.0,0.0,0.0,0.0,0.0,0.0,0.0,0.0,0.0,0.0,0.0,0.0,0.0,0.0,0.0,0.0,0.0,0.0,0.0,0.0,0.0,0.0,0.0,0.0,0.0,0.0,0.0,0.0,0.0,0.0,0.0,0.0,0.0,0.0,0.0,0.0,0.0,0.0,0.0,0.0,0.0,0.0,0.0,0.0,0.0,0.0,0.0,0.0,0.0,0.0,0.0,0.0,0.0,0.0,0.0,0.0,0.0,0.0,0.0,0.0,0.0,0.0,0.0,0.0,0.0,0.0,0.0,0.0,0.0,0.0,0.0,0.0,0.0,0.0,0.0,0.0,0.0,0.0,-0.9651,-0.9661,-0.9669,-0.9672,-0.9609,0.0,0.0,0.0,0.0,0.0,0.0,0.0,0.0,0.0,0.0,0.0,0.0,0.0,0.0,0.0,0.0,0.0,0.0,0.0,0.0,0.0,0.0,0.0,0.0,0.0,0.0,0.0,0.0,0.0,0.0,0.0,0.0,0.0,0.0,0.0,0.0,0.0,0.0,0.0,0.0,0.0,0.0,0.0,0.0,0.0,0.0,0.0,0.0,0.0,0.0,0.0,0.0,0.0,0.0,0.0,0.0,0.0,0.0,0.0,0.0,0.0,0.0,0.0,0.0,0.0,0.0,0.0,0.0,0.0,0.0,0.0,0.0,0.0,0.0,0.0,0.0,0.0,0.0,0.0,0.0,0.0,0.0,0.0,0.0,0.0,0.0,0.0,0.0,0.0,0.0,0.0,0.0,0.0,0.0,0.0,0.0,0.0,0.0,0.0,0.0,0.0,0.0,0.0,0.0,0.0,0.0,0.0,0.0,0.0,0.0,0.0,0.0,-1.0152,-1.0121,-0.9866,0.0,0.0,0.0,0.0,0.0,0.0,0.0,0.0,0.0,0.0,0.0,0.0,0.0,0.0,0.0,0.0,0.0,0.0,0.0,0.0,0.0,0.0,0.0,0.0,0.0,0.0,0.0,0.0,0.0,0.0,0.0,0.0,0.0,0.0,0.0,0.0,0.0,0.0,0.0,0.0,0.0,0.0,0.0,0.0,0.0,0.0,0.0,0.0,0.0,0.0,0.0,0.0,0.0,0.0,0.0,0.0,0.0,0.0,0.0,0.0,0.0,0.0,0.0,0.0,0.0,0.0,0.0,0.0,0.0,0.0,0.0,0.0,0.0,0.0,0.0,0.0,0.0,0.0,0.0,0.0,0.0,0.0,0.0,0.0,0.0,0.0,0.0,0.0,0.0,0.0,0.0,0.0,0.0,0.0,0.0,0.0,0.0,0.0,0.0,0.0,0.0,0.0,0.0,0.0,0.0,0.0,0.0,0.0,0.0,0.0,-1.0848,-1.0805,-1.1479,0.0,-1.063,0.0,0.0,0.0,0.0,0.0,0.0,0.0,0.0,0.0,0.0,0.0,0.0,0.0,0.0,0.0,0.0,0.0,0.0,0.0,0.0,0.0,0.0,0.0,0.0,0.0,0.0,0.0,0.0,0.0,0.0,0.0,0.0,0.0,0.0,0.0,0.0,0.0,0.0,0.0,0.0,0.0,0.0,0.0,0.0,0.0,0.0,0.0,0.0,0.0,0.0,0.0,0.0,0.0,0.0,0.0,0.0,0.0,0.0,0.0,0.0,0.0,0.0,0.0,0.0,0.0,0.0,0.0,0.0,0.0,0.0,0.0,0.0,0.0,0.0,0.0,0.0,0.0,0.0,0.0,0.0,0.0,0.0,0.0,0.0,0.0,0.0,0.0,0.0,0.0,0.0,0.0,0.0,0.0,0.0,0.0,0.0,0.0,0.0,0.0,0.0,0.0,0.0,0.0,0.0,0.0,0.0,0.0,0.0,0.0,0.0,-1.0981,-1.0965,-1.1249,-1.1187,0.0,0.0,0.0,0.0,0.0,0.0,0.0,0.0,0.0,0.0,0.0,0.0,0.0,0.0,0.0,0.0,0.0,0.0,0.0,0.0,0.0,0.0,0.0,0.0,0.0,0.0,0.0,0.0,0.0,0.0,0.0,0.0,0.0,0.0,0.0,0.0,0.0,0.0,0.0,0.0,0.0,0.0,0.0,0.0,0.0,0.0,0.0,0.0,0.0,0.0,0.0,0.0,0.0,0.0,0.0,0.0,0.0,0.0,0.0,0.0,0.0,0.0,0.0,0.0,0.0,0.0,0.0,0.0,0.0,0.0,0.0,0.0,0.0,0.0,0.0,0.0,0.0,0.0,0.0,0.0,0.0,0.0,0.0,0.0,0.0,0.0,0.0,0.0,0.0,0.0,0.0,0.0,0.0,0.0,0.0,0.0,0.0,0.0,0.0,0.0,0.0,0.0,0.0,0.0,0.0,0.0,0.0,0.0,0.0,0.0,-1.0819,-1.157,-1.1955,-1.1728,-1.1406,-1.114,0.0,0.0,0.0,0.0,0.0,0.0,0.0,0.0,0.0,0.0,0.0,0.0,0.0,0.0,0.0,0.0,0.0,0.0,0.0,0.0,0.0,0.0,0.0,0.0,0.0,0.0,0.0,0.0,0.0,0.0,0.0,0.0,0.0,0.0,0.0,0.0,0.0,0.0,0.0,0.0,0.0,0.0,0.0,0.0,0.0,0.0,0.0,0.0,0.0,0.0,0.0,0.0,0.0,0.0,0.0,0.0,0.0,0.0,0.0,0.0,0.0,0.0,0.0,0.0,0.0,0.0,0.0,0.0,0.0,0.0,0.0,0.0,0.0,0.0,0.0,0.0,0.0,0.0,0.0,0.0,0.0,0.0,0.0,0.0,0.0,0.0,0.0,0.0,0.0,0.0,0.0,0.0,0.0,0.0,0.0,0.0,0.0,0.0,0.0,0.0,0.0,0.0,0.0,0.0,0.0,0.0,0.0,0.0,-0.9957,-1.1446,-1.2938,-1.4304,-1.364,-1.2796,0.0,0.0,0.0,0.0,0.0,0.0,0.0,0.0,0.0,0.0,0.0,0.0,0.0,0.0,0.0,0.0,0.0,0.0,0.0,0.0,0.0,0.0,0.0,0.0,0.0,0.0,0.0,0.0,0.0,0.0,0.0,0.0,0.0,0.0,0.0,0.0,0.0,0.0,0.0,0.0,0.0,0.0,0.0,0.0,0.0,0.0,0.0,0.0,0.0,0.0,0.0,0.0,0.0,0.0,0.0,0.0,0.0,0.0,0.0,0.0,0.0,0.0,0.0,0.0,0.0,0.0,0.0,0.0,0.0,0.0,0.0,0.0,0.0,0.0,0.0,0.0,0.0,0.0,0.0,0.0,0.0,0.0,0.0,0.0,0.0,0.0,0.0,0.0,0.0,0.0,0.0,0.0,0.0,0.0,0.0,0.0,0.0,0.0,0.0,0.0,0.0,0.0,0.0,0.0,0.0,0.0,0.0,0.0,0.0,-1.072,-1.2253,-1.356,-1.4526,-1.375,-1.2898,0.0,0.0,0.0,0.0,0.0,0.0,0.0,0.0,0.0,0.0,0.0,0.0,0.0,0.0,0.0,0.0,0.0,0.0,0.0,0.0,0.0,0.0,0.0,0.0,0.0,0.0,0.0,0.0,0.0,0.0,0.0,0.0,0.0,0.0,0.0,0.0,0.0,0.0,0.0,0.0,0.0,0.0,0.0,0.0,0.0,0.0,0.0,0.0,0.0,0.0,0.0,0.0,0.0,0.0,0.0,0.0,0.0,0.0,0.0,0.0,0.0,0.0,0.0,0.0,0.0,0.0,0.0,0.0,0.0,0.0,0.0,0.0,0.0,0.0,0.0,0.0,0.0,0.0,0.0,0.0,0.0,0.0,0.0,0.0,0.0,0.0,0.0,0.0,0.0,0.0,0.0,0.0,0.0,0.0,0.0,0.0,0.0,0.0,0.0,0.0,0.0,0.0,0.0,0.0,0.0,0.0,0.0,0.0,0.0,-1.1491,-1.2778,-1.3829,-1.4545,-1.3978,-1.3154,0.0,0.0,0.0,0.0,0.0,0.0,0.0,0.0,0.0,0.0,0.0,0.0,0.0,0.0,0.0,0.0,0.0,0.0,0.0,0.0,0.0,0.0,0.0,0.0,0.0,0.0,0.0,0.0,0.0,0.0,0.0,0.0,0.0,0.0,0.0,0.0,0.0,0.0,0.0,0.0,0.0,0.0,0.0,0.0,0.0,0.0,0.0,0.0,0.0,0.0,0.0,0.0,0.0,0.0,0.0,0.0,0.0,0.0,0.0,0.0,0.0,0.0,0.0,0.0,0.0,0.0,0.0,0.0,0.0,0.0,0.0,0.0,0.0,0.0,0.0,0.0,0.0,0.0,0.0,0.0,0.0,0.0,0.0,0.0,0.0,0.0,0.0,0.0,0.0,0.0,0.0,0.0,0.0,0.0,0.0,0.0,0.0,0.0,0.0,0.0,0.0,0.0,0.0,0.0,0.0,0.0,0.0,0.0,-1.0666,-1.2267,-1.3058,-1.3891,-1.46,-1.4499,-1.3669,0.0,0.0,0.0,0.0,0.0,0.0,0.0,0.0,0.0,0.0,0.0,0.0,0.0,0.0,0.0,0.0,0.0,0.0,0.0,0.0,0.0,0.0,0.0,0.0,0.0,0.0,0.0,0.0,0.0,0.0,0.0,0.0,0.0,0.0,0.0,0.0,0.0,0.0,0.0,0.0,0.0,0.0,0.0,0.0,0.0,0.0,0.0,0.0,0.0,0.0,0.0,0.0,0.0,0.0,0.0,0.0,0.0,0.0,0.0,0.0,0.0,0.0,0.0,0.0,0.0,0.0,0.0,0.0,0.0,0.0,0.0,0.0,0.0,0.0,0.0,0.0,0.0,0.0,0.0,0.0,0.0,0.0,0.0,0.0,0.0,0.0,0.0,0.0,0.0,0.0,0.0,0.0,0.0,0.0,0.0,0.0,0.0,0.0,0.0,0.0,0.0,0.0,0.0,0.0,0.0,0.0,0.0,0.0,0.0,-1.3913,-1.4661,-1.5443,-1.6196,-1.5594,-1.4678,0.0,0.0,0.0,0.0,0.0,0.0,0.0,0.0,0.0,0.0,0.0,0.0,0.0,0.0,0.0,0.0,0.0,0.0,0.0,0.0,0.0,0.0,0.0,0.0,0.0,0.0,0.0,0.0,0.0,0.0,0.0,0.0,0.0,0.0,0.0,0.0,0.0,0.0,0.0,0.0,0.0,0.0,0.0,0.0,0.0,0.0,0.0,0.0,0.0,0.0,0.0,0.0,0.0,0.0,0.0,0.0,0.0,0.0,0.0,0.0,0.0,0.0,0.0,0.0,0.0,0.0,0.0,0.0,0.0,0.0,0.0,0.0,0.0,0.0,0.0,0.0,0.0,0.0,0.0,0.0,0.0,0.0,0.0,0.0,0.0,0.0,0.0,0.0,0.0,0.0,0.0,0.0,0.0,0.0,0.0,0.0,0.0,0.0,0.0,0.0,0.0,0.0,0.0,0.0,0.0,0.0,0.0,0.0,0.0,-1.6288,-1.6276,-1.6479,-1.6962,-1.6086,-1.5148,-1.4216,0.0,0.0,0.0,0.0,0.0,0.0,0.0,0.0,0.0,0.0,0.0,0.0,0.0,0.0,0.0,0.0,0.0,0.0,0.0,0.0,0.0,0.0,0.0,0.0,0.0,0.0,0.0,0.0,0.0,0.0,0.0,0.0,0.0,0.0,0.0,0.0,0.0,0.0,0.0,0.0,0.0,0.0,0.0,0.0,0.0,0.0,0.0,0.0,0.0,0.0,0.0,0.0,0.0,0.0,0.0,0.0,0.0,0.0,0.0,0.0,0.0,0.0,0.0,0.0,0.0,0.0,0.0,0.0,0.0,0.0,0.0,0.0,0.0,0.0,0.0,0.0,0.0,0.0,0.0,0.0,0.0,0.0,0.0,0.0,0.0,0.0,0.0,0.0,0.0,0.0,0.0,0.0,0.0,0.0,0.0,0.0,0.0,0.0,0.0,0.0,0.0,0.0,0.0,0.0,0.0,0.0,0.0,0.0,-1.9148,-1.7917,-1.7224,-1.7133,-1.6301,-1.5334,0.0,0.0,0.0,0.0,0.0,0.0,0.0,0.0,0.0,0.0,0.0,0.0,0.0,0.0,0.0,0.0,0.0,0.0,0.0,0.0,0.0,0.0,0.0,0.0,0.0,0.0,0.0,0.0,0.0,0.0,0.0,0.0,0.0,0.0,0.0,0.0,0.0,0.0,0.0,0.0,0.0,0.0,0.0,0.0,0.0,0.0,0.0,0.0,0.0,0.0,0.0,0.0,0.0,0.0,0.0,0.0,0.0,0.0,0.0,0.0,0.0,0.0,0.0,0.0,0.0,0.0,0.0,0.0,0.0,0.0,0.0,0.0,0.0,0.0,0.0,0.0,0.0,0.0,0.0,0.0,0.0,0.0,0.0,0.0,0.0,0.0,0.0,0.0,0.0,0.0,0.0,0.0,0.0,0.0,0.0,0.0,0.0,0.0,0.0,0.0,0.0,0.0,0.0,0.0,0.0,0.0,0.0,0.0,0.0,-1.9066,-1.9896,-2.0059,-1.9492,-1.8645,-1.7431,0.0,0.0,0.0,0.0,0.0,0.0,0.0,0.0,0.0,0.0,0.0,0.0,0.0,0.0,0.0,0.0,0.0,0.0,0.0,0.0,0.0,0.0,0.0,0.0,0.0,0.0,0.0,0.0,0.0,0.0,0.0,0.0,0.0,0.0,0.0,0.0,0.0,0.0,0.0,0.0,0.0,0.0,0.0,0.0,0.0,0.0,0.0,0.0,0.0,0.0,0.0,0.0,0.0,0.0,0.0,0.0,0.0,0.0,0.0,0.0,0.0,0.0,0.0,0.0,0.0,0.0,0.0,0.0,0.0,0.0,0.0,0.0,0.0,0.0,0.0,0.0,0.0,0.0,0.0,0.0,0.0,0.0,0.0,0.0,0.0,0.0,0.0,0.0,0.0,0.0,0.0,0.0,0.0,0.0,0.0,0.0,0.0,0.0,0.0,0.0,0.0,0.0,0.0,0.0,0.0,0.0,0.0,0.0,-1.918,-1.9957,-2.1219,-2.1673,-2.1296,-1.9812,-1.8338,0.0,0.0,0.0,0.0,0.0,0.0,0.0,0.0,0.0,0.0,0.0,0.0,0.0,0.0,0.0,0.0,0.0,0.0,0.0,0.0,0.0,0.0,0.0,0.0,0.0,0.0,0.0,0.0,0.0,0.0,0.0,0.0,0.0,0.0,0.0,0.0,0.0,0.0,0.0,0.0,0.0,0.0,0.0,0.0,0.0,0.0,0.0,0.0,0.0,0.0,0.0,0.0,0.0,0.0,0.0,0.0,0.0,0.0,0.0,0.0,0.0,0.0,0.0,0.0,0.0,0.0,0.0,0.0,0.0,0.0,0.0,0.0,0.0,0.0,0.0,0.0,0.0,0.0,0.0,0.0,0.0,0.0,0.0,0.0,0.0,0.0,0.0,0.0,0.0,0.0,0.0,0.0,0.0,0.0,0.0,0.0,0.0,0.0,0.0,0.0,0.0,0.0,0.0,0.0,0.0,0.0,0.0,0.0,-2.1077,-2.1286,-2.2075,-2.2565,-2.2665,-2.0405,-1.861,0.0,0.0,0.0,0.0,0.0,0.0,0.0,0.0,0.0,0.0,0.0,0.0,0.0,0.0,0.0,0.0,0.0,0.0,0.0,0.0,0.0,0.0,0.0,0.0,0.0,0.0,0.0,0.0,0.0,0.0,0.0,0.0,0.0,0.0,0.0,0.0,0.0,0.0,0.0,0.0,0.0,0.0,0.0,0.0,0.0,0.0,0.0,0.0,0.0,0.0,0.0,0.0,0.0,0.0,0.0,0.0,0.0,0.0,0.0,0.0,0.0,0.0,0.0,0.0,0.0,0.0,0.0,0.0,0.0,0.0,0.0,0.0,0.0,0.0,0.0,0.0,0.0,0.0,0.0,0.0,0.0,0.0,0.0,0.0,0.0,0.0,0.0,0.0,0.0,0.0,0.0,0.0,0.0,0.0,0.0,0.0,0.0,0.0,0.0,0.0,0.0,0.0,0.0,0.0,0.0,0.0,0.0,0.0,-2.1167,-2.1905,-2.2749,-2.3483,-2.4112,-2.1932,-1.9679,0.0,0.0,0.0,0.0,0.0,0.0,0.0,0.0,0.0,0.0,0.0,0.0,0.0,0.0,0.0,0.0,0.0,0.0,0.0,0.0,0.0,0.0,0.0,0.0,0.0,0.0,0.0,0.0,0.0,0.0,0.0,0.0,0.0,0.0,0.0,0.0,0.0,0.0,0.0,0.0,0.0,0.0,0.0,0.0,0.0,0.0,0.0,0.0,-0.5918,0.0,0.0,0.0,0.0,0.0,0.0,0.0,0.0,0.0,0.0,0.0,0.0,0.0,0.0,0.0,0.0,0.0,0.0,0.0,0.0,0.0,0.0,0.0,0.0,0.0,0.0,0.0,0.0,0.0,0.0,0.0,0.0,0.0,0.0,0.0,0.0,0.0,0.0,0.0,0.0,0.0,0.0,0.0,0.0,0.0,0.0,0.0,0.0,0.0,0.0,0.0,0.0,0.0,0.0,0.0,0.0,0.0,0.0,0.0,-2.1207,-2.2435,-2.3358,-2.4007,-2.4325,-2.2546,-2.0365,0.0,0.0,0.0,0.0,0.0,0.0,0.0,0.0,0.0,0.0,0.0,0.0,0.0,0.0,0.0,0.0,0.0,0.0,0.0,0.0,0.0,0.0,0.0,0.0,0.0,0.0,0.0,0.0,0.0,0.0,0.0,0.0,0.0,0.0,0.0,0.0,0.0,0.0,0.0,0.0,0.0,0.0,0.0,0.0,0.0,0.0,0.0,0.0,0.0,0.0,0.0,0.0,0.0,0.0,0.0,0.0,0.0,0.0,0.0,0.0,0.0,0.0,0.0,0.0,0.0,0.0,0.0,0.0,0.0,0.0,0.0,0.0,0.0,0.0,0.0,0.0,0.0,0.0,0.0,0.0,0.0,0.0,0.0,0.0,0.0,0.0,0.0,0.0,0.0,0.0,0.0,0.0,0.0,0.0,0.0,0.0,0.0,0.0,0.0,0.0,0.0,0.0,0.0,0.0,0.0,0.0,0.0,-1.9247,-2.1673,-2.2972,-2.3964,-2.4401,-2.4305,-2.2723,-2.0702,-1.8298,0.0,0.0,0.0,0.0,0.0,0.0,0.0,0.0,0.0,0.0,0.0,0.0,0.0,0.0,0.0,0.0,0.0,0.0,0.0,0.0,0.0,0.0,0.0,0.0,0.0,0.0,0.0,0.0,0.0,0.0,0.0,0.0,0.0,0.0,0.0,0.0,0.0,0.0,-0.5014,-0.5063,0.0,0.0,0.0,0.0,0.0,0.0,0.0,0.0,-0.6484,0.0,0.0,0.0,0.0,0.0,0.0,0.0,0.0,0.0,0.0,0.0,0.0,0.0,0.0,0.0,0.0,0.0,0.0,0.0,0.0,0.0,0.0,0.0,0.0,0.0,0.0,0.0,0.0,0.0,0.0,0.0,0.0,0.0,0.0,0.0,0.0,0.0,0.0,0.0,0.0,0.0,0.0,0.0,0.0,0.0,0.0,0.0,0.0,0.0,0.0,0.0,0.0,0.0,0.0,0.0,0.0,-1.6323,-2.1301,-2.3726,-2.3581,-2.4469,-2.4951,-2.4882,-2.2773,-2.0398,-1.7927,0.0,0.0,0.0,0.0,0.0,0.0,0.0,0.0,0.0,0.0,0.0,0.0,0.0,0.0,0.0,0.0,0.0,0.0,0.0,0.0,0.0,0.0,0.0,0.0,0.0,0.0,0.0,0.0,0.0,0.0,0.0,0.0,0.0,0.0,0.0,0.0,0.0,0.0,0.0,-0.595,-0.619,0.0,0.0,0.0,0.0,0.0,0.0,0.0,0.0,-0.7448,0.0,0.0,0.0,0.0,0.0,0.0,0.0,0.0,0.0,0.0,0.0,0.0,0.0,0.0,0.0,0.0,0.0,0.0,0.0,0.0,0.0,0.0,0.0,0.0,0.0,0.0,0.0,0.0,0.0,0.0,0.0,0.0,0.0,0.0,0.0,0.0,0.0,0.0,0.0,0.0,0.0,0.0,0.0,0.0,0.0,0.0,0.0,0.0,0.0,0.0,0.0,0.0,0.0,0.0,0.0,-1.6947,-2.1754,-2.4195,-2.4142,-2.4996,-2.5261,-2.4802,-2.2973,-2.0637,0.0,0.0,0.0,0.0,0.0,0.0,0.0,0.0,0.0,0.0,0.0,0.0,0.0,0.0,0.0,0.0,0.0,0.0,0.0,0.0,0.0,0.0,0.0,0.0,0.0,0.0,0.0,0.0,0.0,0.0,0.0,0.0,0.0,0.0,0.0,0.0,0.0,0.0,0.0,0.0,-0.6293,-0.651,-0.6911,0.0,0.0,0.0,0.0,0.0,0.0,-0.8016,-0.7759,0.0,0.0,0.0,0.0,0.0,0.0,0.0,0.0,0.0,0.0,0.0,0.0,0.0,0.0,0.0,0.0,0.0,0.0,0.0,0.0,0.0,0.0,0.0,0.0,0.0,0.0,0.0,0.0,0.0,0.0,0.0,0.0,0.0,0.0,0.0,0.0,0.0,0.0,0.0,0.0,0.0,0.0,0.0,0.0,0.0,0.0,0.0,0.0,0.0,0.0,0.0,0.0,0.0,0.0,0.0,-1.728,-2.1691,-2.4103,-2.4428,-2.5402,-2.5499,-2.4584,-2.3107,-2.0822,0.0,0.0,0.0,0.0,0.0,0.0,0.0,0.0,0.0,0.0,0.0,0.0,0.0,0.0,0.0,0.0,0.0,0.0,0.0,0.0,0.0,0.0,0.0,0.0,0.0,0.0,0.0,0.0,0.0,0.0,0.0,0.0,0.0,0.0,0.0,0.0,0.0,0.0,0.0,0.0,0.0,-0.6762,-0.728,-0.7509,0.0,0.0,0.0,0.0,-0.8339,-0.8239,0.0,0.0,0.0,0.0,0.0,0.0,0.0,0.0,0.0,0.0,0.0,0.0,0.0,0.0,0.0,0.0,0.0,0.0,0.0,0.0,0.0,0.0,0.0,0.0,0.0,0.0,0.0,0.0,0.0,0.0,0.0,0.0,0.0,0.0,0.0,0.0,0.0,0.0,0.0,0.0,0.0,0.0,0.0,0.0,0.0,0.0,0.0,0.0,0.0,0.0,0.0,0.0,0.0,0.0,0.0,0.0,-1.701,-2.1468,-2.3846,-2.421,-2.5581,-2.5731,-2.4464,-2.2891,-2.0571,0.0,0.0,0.0,0.0,0.0,0.0,0.0,0.0,0.0,0.0,0.0,0.0,0.0,0.0,0.0,0.0,0.0,0.0,0.0,0.0,0.0,0.0,0.0,0.0,0.0,0.0,0.0,0.0,0.0,0.0,0.0,0.0,0.0,0.0,0.0,0.0,0.0,0.0,0.0,0.0,0.0,-0.756,-0.8392,-0.8837,-0.913,0.0,0.0,-0.9453,-0.9659,-0.8981,0.0,0.0,0.0,0.0,0.0,0.0,0.0,0.0,0.0,0.0,0.0,0.0,0.0,0.0,0.0,0.0,0.0,0.0,0.0,0.0,0.0,0.0,0.0,0.0,0.0,0.0,0.0,0.0,0.0,0.0,0.0,0.0,0.0,0.0,0.0,0.0,0.0,0.0,0.0,0.0,0.0,0.0,0.0,0.0,0.0,0.0,0.0,0.0,0.0,0.0,0.0,0.0,0.0,0.0,0.0,-1.2652,-1.7444,-2.1376,-2.372,-2.4479,-2.5553,-2.5475,-2.4131,-2.259,-2.0294,0.0,0.0,0.0,0.0,0.0,0.0,0.0,0.0,0.0,0.0,0.0,0.0,0.0,0.0,0.0,0.0,0.0,0.0,0.0,0.0,0.0,0.0,0.0,0.0,0.0,0.0,0.0,0.0,0.0,0.0,0.0,0.0,0.0,0.0,0.0,0.0,0.0,0.0,0.0,0.0,0.0,0.0,-0.882,-0.9346,0.0,0.0,0.0,-1.0035,-1.0041,0.0,0.0,0.0,0.0,0.0,0.0,0.0,0.0,0.0,0.0,0.0,0.0,0.0,0.0,0.0,0.0,0.0,0.0,0.0,0.0,0.0,0.0,0.0,0.0,0.0,0.0,0.0,0.0,0.0,0.0,0.0,0.0,0.0,0.0,0.0,0.0,0.0,0.0,0.0,0.0,0.0,0.0,0.0,0.0,0.0,0.0,0.0,0.0,0.0,0.0,0.0,0.0,0.0,0.0,0.0,0.0,0.0,-1.7959,-2.1633,-2.3956,-2.4886,-2.5456,-2.5301,-2.431,-2.2638,0.0,0.0,0.0,0.0,0.0,0.0,0.0,0.0,0.0,0.0,0.0,0.0,0.0,0.0,0.0,0.0,0.0,0.0,0.0,0.0,0.0,0.0,0.0,0.0,0.0,0.0,0.0,-0.3396,0.0,0.0,0.0,0.0,0.0,0.0,0.0,0.0,0.0,0.0,0.0,0.0,0.0,0.0,-0.8627,-0.9306,-0.9893,-1.0415,0.0,0.0,-1.0533,-1.0281,-0.9826,-0.9171,0.0,0.0,0.0,0.0,0.0,0.0,0.0,0.0,0.0,0.0,0.0,0.0,0.0,0.0,0.0,0.0,0.0,0.0,0.0,0.0,0.0,0.0,0.0,0.0,0.0,0.0,0.0,0.0,0.0,0.0,0.0,0.0,0.0,0.0,0.0,0.0,0.0,0.0,0.0,0.0,0.0,0.0,0.0,0.0,0.0,0.0,0.0,0.0,0.0,0.0,0.0,0.0,0.0,0.0,-1.2835,-1.8282,-2.2406,-2.4693,-2.5173,-2.5285,-2.5346,-2.5336,-2.3224,-2.1023,0.0,0.0,0.0,0.0,0.0,0.0,0.0,0.0,0.0,0.0,0.0,0.0,0.0,0.0,0.0,0.0,0.0,0.0,0.0,0.0,0.0,0.0,0.0,0.0,0.0,0.0,0.0,0.0,0.0,0.0,0.0,0.0,0.0,0.0,0.0,0.0,0.0,0.0,0.0,0.0,0.0,-0.9321,-1.0109,-1.0909,-1.1344,0.0,-1.123,-1.1118,-1.0805,-1.0102,-0.9409,-0.8813,0.0,0.0,0.0,0.0,0.0,0.0,0.0,0.0,0.0,0.0,0.0,0.0,0.0,0.0,0.0,0.0,0.0,0.0,0.0,0.0,0.0,0.0,0.0,0.0,0.0,0.0,0.0,0.0,0.0,0.0,0.0,0.0,0.0,0.0,0.0,0.0,0.0,0.0,0.0,0.0,0.0,0.0,0.0,0.0,0.0,0.0,0.0,0.0,0.0,0.0,0.0,0.0,0.0,-1.3655,-1.8713,-2.2493,-2.477,-2.5397,-2.5541,-2.5457,-2.513,-2.3391,-2.1232,0.0,0.0,0.0,0.0,0.0,0.0,0.0,0.0,0.0,0.0,0.0,0.0,0.0,0.0,0.0,0.0,0.0,0.0,0.0,0.0,0.0,0.0,0.0,0.0,0.0,0.0,0.0,0.0,-0.4251,-0.4321,-0.4289,0.0,0.0,0.0,0.0,0.0,0.0,0.0,0.0,0.0,0.0,-0.9559,-1.0264,-1.0984,0.0,0.0,-1.1624,-1.1368,-1.1041,-1.0286,-0.9555,-0.8919,-0.8001,0.0,0.0,0.0,0.0,0.0,0.0,0.0,0.0,0.0,0.0,0.0,0.0,0.0,0.0,0.0,0.0,0.0,0.0,0.0,0.0,0.0,0.0,0.0,0.0,0.0,0.0,0.0,0.0,0.0,0.0,0.0,0.0,0.0,0.0,0.0,0.0,0.0,0.0,0.0,0.0,0.0,0.0,0.0,0.0,0.0,0.0,0.0,0.0,0.0,0.0,0.0,0.0,-1.418,-1.9197,-2.2827,-2.5026,-2.5768,-2.5827,-2.5722,-2.5321,-2.3833,-2.1812,0.0,0.0,0.0,0.0,0.0,0.0,0.0,0.0,0.0,0.0,0.0,0.0,0.0,0.0,0.0,0.0,0.0,0.0,0.0,0.0,0.0,0.0,0.0,0.0,0.0,0.0,0.0,0.0,-0.4415,-0.429,-0.4133,0.0,0.0,0.0,0.0,0.0,0.0,0.0,0.0,0.0,0.0,-0.9888,-1.0579,-1.1299,-1.1867,-1.2047,-1.1888,-1.1556,-1.1214,-1.0534,-0.9812,-0.909,0.0,0.0,0.0,0.0,0.0,0.0,0.0,0.0,0.0,0.0,0.0,0.0,0.0,0.0,0.0,0.0,0.0,0.0,0.0,0.0,0.0,0.0,0.0,0.0,0.0,0.0,0.0,-0.943,0.0,0.0,-0.6962,0.0,0.0,0.0,0.0,0.0,0.0,0.0,0.0,0.0,0.0,0.0,0.0,0.0,0.0,0.0,0.0,0.0,0.0,0.0,0.0,0.0,0.0,-1.4251,-1.9696,-2.3568,-2.5773,-2.6153,-2.6092,-2.6183,-2.6241,-2.482,-2.3086,-2.0886,0.0,0.0,0.0,0.0,0.0,0.0,0.0,0.0,0.0,0.0,0.0,0.0,0.0,0.0,0.0,0.0,0.0,0.0,0.0,0.0,0.0,0.0,0.0,0.0,0.0,0.0,-0.5021,-0.474,-0.435,0.0,0.0,0.0,0.0,0.0,0.0,0.0,0.0,0.0,-0.8289,-0.9482,-1.0435,-1.1137,-1.1971,-1.2315,-1.2021,-1.1963,-1.1826,-1.129,-1.0739,-1.0127,0.0,0.0,0.0,0.0,0.0,0.0,0.0,0.0,0.0,0.0,0.0,0.0,0.0,0.0,0.0,0.0,0.0,0.0,0.0,0.0,0.0,0.0,0.0,0.0,0.0,0.0,0.0,-1.1937,-1.2545,0.0,0.0,0.0,0.0,0.0,0.0,0.0,0.0,0.0,0.0,0.0,-1.5204,-1.5773,0.0,0.0,0.0,0.0,0.0,0.0,0.0,0.0,0.0,0.0,0.0,0.0,-1.4942,-1.9369,-2.3496,-2.5691,-2.5832,-2.6394,-2.6701,-2.6732,-2.5303,-2.2825,-1.9265,0.0,0.0,0.0,0.0,0.0,0.0,0.0,0.0,0.0,0.0,0.0,0.0,0.0,0.0,0.0,0.0,0.0,0.0,0.0,0.0,0.0,0.0,0.0,0.0,0.0,-0.5042,0.0,0.0,0.0,0.0,0.0,0.0,0.0,0.0,0.0,0.0,-0.6696,-0.7616,-0.867,-0.958,-1.0372,-1.0991,-1.1496,-1.1847,0.0,0.0,0.0,0.0,0.0,0.0,0.0,0.0,0.0,0.0,0.0,0.0,0.0,-0.7037,-0.6494,-0.5443,-0.5052,-0.4737,-0.4413,0.0,0.0,0.0,0.0,0.0,0.0,0.0,0.0,0.0,0.0,0.0,0.0,0.0,0.0,-1.418,-1.4958,-1.3678,0.0,0.0,0.0,0.0,0.0,0.0,0.0,0.0,-1.7016,-1.7165,-1.7306,-1.846,-1.8706,-1.8048,-1.7267,-1.5677,0.0,0.0,0.0,0.0,0.0,0.0,0.0,0.0,-1.5327,-1.9505,-2.3509,-2.5507,-2.56,-2.6627,-2.7101,-2.6844,-2.5106,-2.2655,-1.9542,-1.7591,-1.5459,0.0,0.0,0.0,0.0,0.0,0.0,0.0,0.0,0.0,0.0,0.0,0.0,0.0,0.0,0.0,0.0,0.0,0.0,0.0,0.0,0.0,0.0,0.0,-0.5703,0.0,0.0,0.0,0.0,0.0,0.0,0.0,0.0,0.0,-0.6633,-0.7345,-0.8303,-0.935,-1.002,-1.0553,-1.1219,0.0,0.0,0.0,0.0,0.0,0.0,0.0,-1.1235,-1.0963,-1.0824,-1.0558,-1.0018,-0.961,-0.9146,-0.873,0.0,0.0,-0.6492,-0.6021,-0.5767,-0.5376,-0.5336,-0.5365,-0.5053,-0.5087,-0.5243,0.0,0.0,0.0,0.0,-1.6748,0.0,0.0,0.0,-1.7184,-1.6842,0.0,-1.5901,0.0,0.0,0.0,0.0,-1.5746,-1.577,0.0,0.0,-1.9731,-1.9837,-1.9542,-2.1123,-2.1266,-2.0032,-1.934,-1.844,-1.7246,-1.447,-1.2606,0.0,0.0,0.0,0.0,0.0,-1.5434,-2.0104,-2.3556,-2.5334,-2.5411,-2.6822,-2.7295,-2.6572,-2.4397,-2.2761,-2.1773,-1.9137,-1.6912,-1.5367,-1.2882,0.0,0.0,0.0,0.0,0.0,0.0,0.0,0.0,0.0,0.0,0.0,0.0,0.0,0.0,0.0,0.0,0.0,0.0,0.0,0.0,-0.6776,0.0,0.0,0.0,0.0,0.0,0.0,0.0,0.0,0.0,-0.7574,-0.7627,-0.8131,-0.895,-1.0219,0.0,0.0,0.0,0.0,-1.2303,-1.2182,-1.2189,-1.2131,-1.1995,-1.1989,-1.1852,-1.1716,0.0,0.0,-1.139,-1.0946,-1.057,-1.0192,-0.9889,-0.9309,-0.7892,-0.7395,-0.7086,-0.6556,-0.6456,-0.6266,-0.5981,-0.5847,-0.5908,-2.2442,0.0,0.0,0.0,0.0,-1.8361,-1.884,-1.9735,-1.8919,-1.887,-1.9294,-1.8364,0.0,0.0,0.0,0.0,0.0,0.0,-1.9755,-2.1346,-2.209,-2.2765,-2.3405,-2.3383,-2.3225,-2.2949,-2.1697,-2.0606,-1.9607,-1.8053,-1.608,-1.3779,0.0,0.0,0.0,0.0,-1.6359,-2.0069,-2.3522,-2.5333,-2.5396,-2.6822,-2.721,-2.6322,-2.5077,-2.3714,-2.2267,-1.9978,-1.8023,-1.6512,-1.4265,0.0,0.0,0.0,0.0,0.0,0.0,0.0,0.0,0.0,0.0,0.0,0.0,0.0,0.0,0.0,0.0,0.0,0.0,0.0,-0.6987,-0.7021,-0.6924,0.0,0.0,0.0,0.0,0.0,0.0,0.0,0.0,0.0,-0.9305,-0.9506,-0.982,0.0,0.0,-1.1384,-1.183,-1.2134,-1.2398,-1.2614,-1.2761,0.0,-1.2819,-1.2826,-1.2815,-1.2779,-1.2978,-1.3009,-1.2675,-1.234,-1.2093,-1.184,-1.1349,-1.0741,-1.0123,-0.889,-0.7923,-0.7517,-0.7327,-0.7082,-0.6688,-0.6681,-0.6763,-2.5442,-2.3177,-2.1884,-2.1355,-2.1336,-2.1272,-2.1713,-2.2391,-2.155,-2.1624,-2.2245,-2.1314,-2.0819,-2.0621,-2.0354,0.0,0.0,0.0,-2.2105,-2.319,-2.3934,-2.4498,-2.486,-2.4896,-2.4844,-2.4689,-2.3487,-2.2417,-2.1459,-2.069,-1.9113,-1.6803,0.0,-1.6264,-1.6477,-1.6069,-1.7418,-2.0611,-2.3775,-2.5423,-2.5411,-2.6788,-2.7125,-2.6223,-2.5331,-2.4149,-2.2706,-2.0648,-1.8892,-1.7572,-1.5507,-1.3594,0.0,0.0,0.0,0.0,0.0,0.0,0.0,0.0,0.0,0.0,0.0,-0.476,-0.5634,0.0,0.0,0.0,-0.713,-0.752,-0.7888,-0.7833,0.0,0.0,0.0,0.0,0.0,0.0,0.0,-0.8591,-0.9292,-0.9933,-1.0408,-1.0768,-1.1009,-1.1135,-1.1483,-1.1884,-1.2178,0.0,-1.2726,-1.2906,-1.3186,-1.338,-1.3387,-1.3581,-1.3738,-1.3952,-1.3959,-1.3902,-1.3822,-1.3636,-1.3447,-1.3105,-1.2641,-1.215,-1.175,-1.051,-0.9148,-0.838,-0.8002,-0.7712,-0.7282,-0.7265,-0.7322,-2.8222,-2.7345,-2.5616,-2.4727,-2.4487,-2.443,-2.4795,-2.5419,-2.4627,-2.4657,-2.5215,-2.4357,-2.3853,-2.3608,-2.3203,0.0,-2.371,-2.3743,-2.4109,-2.4709,-2.549,-2.5496,-2.4862,-2.5944,-2.6173,-2.5631,-2.4871,-2.3941,-2.2933,-2.2605,-2.1679,-2.0264,-1.8589,-1.8042,-1.8499,-1.7653,-1.8588,-2.1462,-2.4101,-2.5454,-2.5426,-2.6599,-2.684,-2.6085,-2.5145,-2.4132,-2.3083,-2.1052,-1.953,-1.8575,-1.6612,-1.4898,-1.354,0.0,0.0,0.0,0.0,0.0,0.0,0.0,0.0,0.0,0.0,0.0,0.0,0.0,0.0,-0.7816,-0.8464,0.0,-0.8993,-0.9028,0.0,0.0,0.0,-0.8767,-0.8643,-0.9072,-0.9486,-0.976,0.0,0.0,-1.1069,-1.1837,-1.2278,-1.2011,-1.2211,-1.2472,-1.2822,-1.306,-1.3287,-1.3293,-1.3554,-1.3754,-1.3828,-1.4262,-1.4723,-1.501,-1.4896,-1.4851,-1.4774,-1.4765,-1.464,-1.419,-1.3903,-1.3533,-1.2883,-1.1939,-1.0744,-0.9246,-0.8592,-0.8208,-0.7841,-0.7641,-0.7634,-3.1046,-3.0779,-3.0135,-2.8439,-2.6148,-2.6066,-2.6135,-2.63,-2.6114,-2.6033,-2.6093,-2.5796,-2.541,-2.5031,-2.475,-2.4607,-2.4636,-2.5692,-2.6145,-2.6251,-2.7571,-2.7818,-2.7231,-2.7731,-2.73,-2.6114,-2.6135,-2.5373,-2.4051,-2.3617,-2.2945,-2.1929,-2.1332,-2.0481,-1.936,-1.8994,-1.9938,-2.2221,-2.3437,-2.4578,-2.5523,-2.566,-2.5589,-2.5282,-2.4332,-2.3558,-2.3014,-2.136,-2.0007,-1.9057,-1.7457,-1.5761,-1.4103,-1.3026,0.0,0.0,0.0,0.0,0.0,0.0,0.0,0.0,0.0,-0.7154,-0.8018,0.0,-0.8474,0.0,-0.9571,-0.9914,-0.9909,-0.9811,0.0,0.0,-0.9726,-0.9784,-0.984,-1.0275,-1.0601,-1.0675,-1.139,-1.1911,-1.1984,-1.2579,-1.2973,-1.2906,-1.2946,-1.3019,-1.3106,-1.3554,-1.3881,-1.3908,-1.4302,-1.4643,-1.4683,-1.5137,-1.5605,-1.5912,-1.6139,-1.6188,-1.6182,-1.6058,-1.5815,-1.5413,-1.5059,-1.4435,-1.3774,-1.2868,-1.1909,-1.0729,-0.9593,-0.8803,-0.8503,-0.8113,-0.7933,-3.206,-3.1992,-3.1709,-3.0545,-2.8864,-2.8382,-2.8209,-2.8191,-2.7842,-2.7592,-2.7437,-2.7242,-2.7128,-2.707,-2.686,-2.6831,-2.6994,-2.7672,-2.7913,-2.7809,-2.8621,-2.88,-2.8448,-2.8561,-2.8452,-2.8106,-2.7252,-2.6385,-2.5433,-2.477,-2.4033,-2.3183,-2.2917,-2.2279,-2.1296,-2.0709,-2.117,-2.2584,-2.357,-2.4548,-2.5476,-2.5301,-2.4963,-2.4542,-2.3827,-2.313,-2.2574,-2.1205,-2.0132,-1.9211,-1.7943,-1.651,-1.498,-1.4163,-1.3176,0.0,0.0,0.0,0.0,0.0,0.0,0.0,0.0,0.0,0.0,0.0,-1.008,-1.066,-1.0912,-1.0999,-1.1013,-1.09,-1.0795,-1.0702,-1.0579,-1.0726,-1.0972,-1.1364,-1.1623,-1.1757,-1.2325,-1.2705,-1.2719,-1.3106,-1.34,-1.3407,-1.352,-1.3547,-1.348,-1.3908,-1.4282,-1.4302,-1.4776,-1.5264,-1.5491,-1.5812,-1.6126,-1.6406,-1.66,-1.6707,-1.6707,-1.6726,-1.6609,-1.6304,-1.5894,-1.5359,-1.4514,-1.3577,-1.2629,-1.1645,-1.0565,-0.9588,-0.8888,-0.8501,-0.8235,-3.2381,-3.2272,-3.2006,-3.1911,-3.1837,-3.0901,-3.0448,-3.0283,-2.9512,-2.907,-2.8907,-2.8621,-2.8762,-2.9243,-2.8987,-2.9082,-2.9506,-2.9436,-2.9329,-2.9257,-2.9304,-2.9313,-2.9289,-2.9168,-2.9606,-3.0458,-2.8443,-2.7186,-2.6753,-2.5905,-2.5016,-2.4195,-2.3834,-2.3615,-2.3425,-2.2505,-2.2274,-2.2802,-2.3924,-2.4671,-2.5129,-2.5003,-2.4596,-2.3789,-2.3369,-2.278,-2.1963,-2.1015,-2.01,-1.9297,-1.8377,-1.7295,-1.5982,-1.5346,-1.46,0.0,-1.3174,0.0,0.0,0.0,0.0,0.0,0.0,0.0,0.0,-1.1224,-1.1768,-1.2343,-1.2239,-1.2142,-1.2186,-1.2042,-1.1931,-1.172,-1.1531,-1.1635,-1.2042,-1.2265,-1.2518,-1.2856,-1.3073,-1.3267,-1.3267,-1.3514,-1.3701,-1.3714,-1.3895,-1.3948,-1.3801,-1.4202,-1.4583,-1.4576,-1.507,-1.5638,-1.6139,-1.6306,-1.6446,-1.6734,-1.6854,-1.682,-1.6854,-1.7048,-1.7098,-1.6821,-1.6453,-1.608,-1.525,-1.4266,-1.3192,-1.2408,-1.1294,-1.0281,-0.9282,-0.879,-0.8587,-3.4049,-3.3915,-3.3679,-3.3536,-3.3481,-3.2537,-3.1788,-3.1109,-3.032,-2.985,-2.9693,-2.9458,-2.9651,-3.0112,-2.9839,-2.9669,-2.966,-3.0056,-3.0223,-3.0185,-3.0762,-3.0942,-3.0777,-3.0751,-3.0857,-3.1002,-2.9716,-2.8445,-2.7189,-2.6755,-2.6031,-2.5163,-2.4839,-2.4563,-2.4256,0.0,0.0,0.0,-2.367,-2.382,-2.3866,-2.3733,-2.3435,-2.2942,-2.268,0.0,-2.1712,-2.1266,-2.0593,-1.9595,-1.9227,0.0,0.0,0.0,0.0,0.0,0.0,0.0,0.0,0.0,0.0,0.0,-1.3091,-1.2722,-1.2143,-1.2683,-1.315,-1.3409,-1.3415,-1.335,-1.3113,-1.314,-1.3001,-1.2677,-1.2785,-1.2934,-1.299,-1.3006,-1.3066,-1.3113,-1.338,-1.3479,-1.3581,-1.3814,-1.3995,-1.3988,-1.4048,-1.4062,-1.4008,-1.4482,-1.4863,-1.4923,-1.5378,-1.5945,-1.654,-1.6607,-1.6747,-1.7255,-1.7415,-1.7395,-1.7388,-1.7428,-1.739,-1.7187,-1.6817,-1.6418,-1.5779,-1.503,-1.4067,-1.3202,-1.2186,-1.1021,-0.9762,-0.9093,-0.8793,-3.4517,-3.4363,-3.4124,-3.3998,0.0,-3.3419,-3.2963,-3.2485,-3.1311,-3.0698,-3.0519,-3.0324,-3.0543,-3.1069,-3.0759,-3.0727,-3.0942,-3.1077,-3.1104,-3.1011,-3.1329,-3.1445,-3.1334,-3.1346,-3.1291,-3.115,-3.028,-2.918,-2.7923,-2.7316,-2.6531,-2.5567,-2.5262,-2.4982,-2.4661,-2.4337,-2.4013,-2.3595,-2.3595,-2.3523,-2.3407,-2.3275,-2.2994,-2.2586,-2.2263,0.0,0.0,0.0,0.0,0.0,0.0,0.0,0.0,-1.7392,-1.6977,-1.6338,-1.6056,-1.5722,-1.53,-1.5185,-1.4911,-1.4553,-1.4794,-1.4611,-1.369,-1.41,-1.4414,-1.4462,-1.4581,-1.4453,-1.4024,-1.4076,-1.3926,-1.3417,-1.3411,-1.3393,-1.336,-1.3427,-1.348,-1.3634,-1.3768,-1.3861,-1.3868,-1.3988,-1.4082,-1.4088,-1.4088,-1.4088,-1.4135,-1.4589,-1.5037,-1.5337,-1.5611,-1.5979,-1.638,-1.6493,-1.67,-1.7208,-1.7368,-1.7428,-1.7562,-1.7589,-1.7582,-1.7378,-1.7166,-1.6743,-1.6211,-1.5357,-1.4498,-1.363,-1.2654,-1.1647,-1.0566,-0.9727,-0.9137,-3.4517,-3.4363,-3.4124,-3.4005,-3.3998,-3.3887,-3.3807,-3.3715,-3.2228,0.0,0.0,-3.122,-3.1456,-3.1977,-3.1682,-3.179,-3.2214,-3.1965,-3.1783,-3.1709,-3.1651,-3.1576,-3.1559,-3.1576,-3.1479,-3.1252,-3.0641,-2.9728,-2.859,-2.7857,-2.6904,-2.5819,-2.547,-2.5139,-2.4742,-2.4322,-2.3985,-2.3668,-2.3595,-2.3465,-2.3319,-2.3127,-2.2859,-2.2417,-2.2108,-2.1815,-2.1537,-2.1123,-2.0601,-2.006,-1.9786,-1.9246,-1.8412,-1.8264,-1.7953,-1.7396,-1.7151,-1.68,-1.6286,-1.6275,-1.6144,-1.5741,-1.6079,-1.5991,-1.5267,-1.5425,-1.5586,-1.5489,-1.5618,-1.5471,-1.4969,-1.4942,-1.4687,-1.4059,-1.3784,-1.3688,-1.3681,-1.3721,-1.3814,-1.4041,-1.4068,-1.4082,-1.4075,-1.4082,-1.4088,-1.4088,-1.4088,-1.4122,-1.4215,-1.4629,-1.5137,-1.5565,-1.5745,-1.5939,-1.6192,-1.6293,-1.6493,-1.6967,-1.7121,-1.7241,-1.7435,-1.7549,-1.7582,-1.7589,-1.7384,-1.6961,-1.643,-1.5785,-1.4922,-1.4051,-1.3186,-1.2327,-1.1455,-1.0472,-0.9691,-3.4517,-3.4386,-3.4173,-3.4049,-3.3998,-3.3921,-3.3842,-3.3733,-3.2834,-3.2352,-3.2229,-3.2147,-3.2383,-3.2818,-3.2545,-3.2384,-3.2354,-3.2161,-3.2037,-3.2037,-3.2054,-3.1948,-3.177,-3.1804,-3.1817,-3.1716,-3.1432,-3.0479,-2.9039,-2.8528,-2.7533,-2.6085,-2.5584,-2.5123,-2.4595,-2.4379,-2.4128,-2.3885,-2.3566,-2.3377,-2.3319,-2.3083,-2.2768,-2.2431,-2.254,-2.241,-2.2046,-2.2049,-2.1912,-2.1619,-2.1457,-2.1091,-2.0588,-2.0372,-2.0085,-1.9528,-1.9044,-1.8508,-1.8035,-1.7701,-1.7257,-1.6837,-1.7042,-1.6947,-1.635,-1.6484,-1.6637,-1.6629,-1.6519,-1.6323,-1.6104,-1.5826,-1.5355,-1.464,-1.4536,-1.4379,-1.4092,-1.4008,-1.4021,-1.4075,-1.4088,-1.4088,-1.4088,-1.4088,-1.4088,-1.4088,-1.4088,-1.4168,-1.4396,-1.4743,-1.5077,-1.5404,-1.5678,-1.5932,-1.6139,-1.6273,-1.64,-1.6707,-1.6961,-1.7108,-1.7188,-1.7388,-1.7528,-1.7569,-1.7371,-1.7067,-1.6736,-1.6205,-1.5458,-1.46,-1.3948,-1.3192,-1.2327,-1.1455,-1.0472,-3.4495,-3.4381,-3.4173,-3.4074,-3.3998,-3.3895,-3.3815,-3.377,-3.3421,-3.3203,-3.3113,-3.2993,-3.3049,-3.3196,-3.2916,-3.2672,-3.2557,-3.2387,-3.2284,-3.2197,-3.2179,-3.2109,-3.1969,-3.2003,-3.2106,-3.2102,-3.1815,-3.0805,-2.9274,-2.8901,-2.7908,-2.6236,-2.5605,-2.5139,-2.4661,-2.4421,-2.4212,-2.397,-2.361,-2.3496,-2.3791,-2.3472,-2.3306,-2.3265,-2.3078,-2.2755,-2.2418,-2.2163,-2.1966,-2.1801,-2.1635,-2.1425,-2.1031,-2.0803,-2.0401,-1.9749,-1.9358,-1.8928,-1.8312,-1.802,-1.7759,-1.7534,-1.7674,-1.7637,-1.73,-1.7321,-1.7279,-1.7263,-1.708,-1.6874,-1.6619,-1.6357,-1.5843,-1.51,-1.4823,-1.4566,-1.4328,-1.4166,-1.4088,-1.4088,-1.4088,-1.4088,-1.4088,-1.4088,-1.4088,-1.4088,-1.4088,-1.4148,-1.4275,-1.4536,-1.483,-1.5124,-1.5411,-1.5625,-1.5792,-1.5939,-1.6139,-1.6426,-1.658,-1.6734,-1.6867,-1.7114,-1.7268,-1.7348,-1.7357,-1.7265,-1.7054,-1.653,-1.5891,-1.5464,-1.46,-1.3738,-1.298,-1.1891,-1.0582,-3.4431,-3.4363,-3.4197,-3.4074,-3.3998,-3.3842,-3.3807,-3.3807,-3.3807,-3.3762,-3.3698,-3.3577,-3.3462,-3.3364,-3.3073,-3.2866,-3.2734,-3.2639,-3.2557,-3.242,-3.242,-3.2368,-3.2228,-3.2283,-3.2336,-3.2371,-3.2017,-3.1074,-2.9674,-2.9168,-2.807,-2.6338,-2.5605,-2.5162,-2.4766,-2.4503,-2.4254,-2.3982,-2.3595,-2.3629,-2.4158,-2.3829,-2.3735,-2.3955,-2.3637,-2.3192,-2.2801,-2.2454,-2.224,-2.2084,-2.1971,-2.1686,-2.1399,-2.1168,-2.0676,-2.0084,-1.9674,-1.9138,-1.8406,-1.8158,-1.7989,-1.7978,-1.8008,-1.8008,-1.8008,-1.7862,-1.7808,-1.7722,-1.7613,-1.7369,-1.7125,-1.6709,-1.6229,-1.5567,-1.4977,-1.465,-1.4398,-1.425,-1.4088,-1.4088,-1.4088,-1.4088,-1.4088,-1.4088,-1.4088,-1.4088,-1.4088,-1.4088,-1.4115,-1.4295,-1.4516,-1.475,-1.5064,-1.5284,-1.5311,-1.5545,-1.5805,-1.6059,-1.6213,-1.6386,-1.66,-1.6807,-1.6974,-1.7081,-1.7261,-1.7304,-1.7062,-1.6647,-1.6243,-1.5861,-1.503,-1.4169,-1.3093,-1.1896,-1.0578,-3.4427,-3.4293,-3.4221,-3.4124,-3.3972,-3.386,-3.3807,-3.3807,-3.3807,-3.3788,-3.378,-3.3661,-3.3538,-3.3393,-3.3178,-3.3042,-3.2979,-3.2884,-3.2852,-3.2852,-3.2834,-3.2731,-3.2556,-3.2684,-3.2623,-3.2386,-3.2161,-3.1478,-3.0348,-2.9374,-2.7945,-2.6102,-2.5584,-2.5201,-2.4822,-2.4626,-2.4379,-2.3982,-2.3522,-2.3615,-2.4128,-2.3768,-2.3686,-2.3983,-2.401,-2.3797,-2.3313,-2.3425,-2.3344,-2.3251,-2.3022,-2.2795,-2.2506,-2.2323,-2.1932,-2.1214,-2.0722,-1.9987,-1.8874,-1.8526,-1.8287,-1.8066,-1.8008,-1.8008,-1.8008,-1.8008,-1.8151,-1.8363,-1.798,-1.7729,-1.7797,-1.7196,-1.6402,-1.5733,-1.5151,-1.465,-1.4398,-1.425,-1.4088,-1.4088,-1.4088,-1.4088,-1.4088,-1.4088,-1.4088,-1.4088,-1.4088,-1.4088,-1.4088,-1.4128,-1.4182,-1.4289,-1.4629,-1.4957,-1.5023,-1.5244,-1.5438,-1.5538,-1.5932,-1.6172,-1.6319,-1.6607,-1.6954,-1.678,-1.686,-1.6912,-1.6852,-1.6471,-1.6235,-1.5828,-1.5157,-1.4363,-1.2866,-1.1746,-1.0752,-3.4404,-3.4311,-3.4173,-3.4074,-3.3921,-3.3842,-3.3807,-3.3807,-3.3807,-3.3807,-3.3807,-3.3698,-3.3615,-3.3559,-3.3375,-3.3274,-3.3244,-3.3152,-3.314,-3.3152,-3.3165,-3.3063,-3.2911,-3.2939,-3.2866,-3.2687,-3.2456,-3.1812,-3.0629,-2.9072,-2.769,-2.6759,-2.5966,-2.5362,-2.4989,-2.4742,-2.44,-2.4051,-2.3681,-2.3718,-2.4143,-2.4096,-2.4376,-2.4984,-2.4792,-2.4359,-2.3848,-2.3677,-2.3497,-2.3271,-2.3125,-2.2957,-2.269,-2.2482,-2.2099,-2.1463,-2.0635,-1.9868,-1.9075,-1.8674,-1.8347,-1.8008,-1.8008,-1.8008,-1.8008,-1.8008,-1.8143,-1.8237,-1.8036,-1.7895,-1.7795,-1.7332,-1.6722,-1.6147,-1.5401,-1.4824,-1.4566,-1.4243,-1.4088,-1.4088,-1.4088,-1.4088,-1.4088,-1.4088,-1.4088,-1.4088,-1.4088,-1.4088,-1.4088,-1.4088,-1.4088,-1.4115,-1.4315,-1.4502,-1.4676,-1.495,-1.511,-1.5211,-1.5471,-1.5745,-1.5825,-1.6046,-1.6313,-1.6413,-1.6406,-1.6533,-1.6739,-1.6374,-1.6024,-1.5646,-1.47,-1.3656,-1.2284,-1.1438,-1.0588,-3.4545,-3.424,-3.408,-3.3998,-3.3895,-3.3834,-3.3807,-3.3807,-3.3807,-3.3807,-3.3788,-3.3734,-3.3726,-3.3698,-3.352,-3.3452,-3.3452,-3.3393,-3.3382,-3.3382,-3.3422,-3.3386,-3.3225,-3.319,-3.3104,-3.2948,-3.2657,-3.1932,-3.0734,-2.9225,-2.8115,-2.7553,-2.6578,-2.5843,-2.5456,-2.4972,-2.4482,-2.4105,-2.3767,-2.3806,-2.4172,-2.4356,-2.4839,-2.5528,-2.5259,-2.4708,-2.4118,-2.378,-2.3437,-2.3138,-2.3125,-2.2969,-2.2739,-2.2555,-2.2161,-2.14,-2.0506,-1.9726,-1.9131,-1.8741,-1.8347,-1.8076,-1.8008,-1.8008,-1.8008,-1.8008,-1.8007,-1.7957,-1.7924,-1.7868,-1.7595,-1.725,-1.6806,-1.6261,-1.5584,-1.5075,-1.4741,-1.4412,-1.4166,-1.4082,-1.4088,-1.4088,-1.4088,-1.4088,-1.4088,-1.4088,-1.4088,-1.4088,-1.4088,-1.4088,-1.4088,-1.4088,-1.4095,-1.4182,-1.4382,-1.4649,-1.481,-1.491,-1.5104,-1.5297,-1.5324,-1.5585,-1.5765,-1.5979,-1.5858,-1.5903,-1.6249,-1.6082,-1.5538,-1.5178,-1.4282,-1.2956,-1.1874,-1.1001,-1.0168,-3.5056,-3.4136,-3.3991,-3.3895,-3.3895,-3.3834,-3.3807,-3.3807,-3.3807,-3.3807,-3.3807,-3.3807,-3.3807,-3.378,-3.3643,-3.3605,-3.3587,-3.3577,-3.3577,-3.3605,-3.3605,-3.3587,-3.3559,-3.3433,-3.3304,-3.3037,-3.277,-3.1915,-3.0625,-3.0125,-2.9471,-2.8427,-2.7432,-2.6759,-2.6246,-2.5433,-2.4698,-2.4223,-2.3822,-2.379,-2.4128,-2.4423,-2.469,-2.4899,-2.497,-2.4708,-2.4131,-2.3793,-2.3437,-2.3125,-2.3125,-2.2969,-2.2751,-2.2678,-2.2173,-2.1285,-2.0495,-1.9781,-1.9142,-1.8741,-1.8347,-1.8076,-1.8008,-1.8008,-1.8008,-1.8008,-1.7901,-1.7577,-1.7675,-1.7615,-1.7309,-1.7012,-1.6531,-1.5927,-1.5613,-1.5162,-1.4699,-1.4476,-1.4307,-1.4153,-1.4075,-1.4082,-1.4088,-1.4088,-1.4088,-1.4088,-1.4088,-1.4088,-1.4088,-1.4088,-1.4088,-1.4088,-1.4082,-1.4095,-1.4135,-1.4349,-1.4509,-1.4603,-1.4763,-1.4977,-1.5177,-1.5357,-1.5471,-1.5485,-1.5498,-1.5576,-1.5738,-1.5541,-1.4923,-1.4383,-1.3538,-1.2444,-1.1559,-1.0534,-0.9792,-3.4927,-3.3991,-3.3921,-3.3868,-3.3815,-3.3807,-3.3807,-3.3807,-3.3807,-3.3807,-3.3807,-3.3807,-3.3807,-3.3807,-3.3807,-3.3762,-3.3726,-3.3726,-3.3734,-3.3807,-3.3842,-3.3788,-3.3726,-3.3633,-3.3397,-3.3124,-3.288,-3.2297,-3.1351,-3.054,-2.9829,-2.9165,-2.8252,-2.7594,-2.705,-2.5878,-2.5149,-2.5025,-2.417,-2.3666,-2.3837,-2.4378,-2.4604,-2.4353,-2.4765,-2.4721,-2.4131,-2.3793,-2.3437,-2.3125,-2.3125,-2.3042,-2.2763,-2.2333,-2.1812,-2.1221,-2.0495,-1.9781,-1.9142,-1.8741,-1.8347,-1.8008,-1.8008,-1.8008,-1.8008,-1.8008,-1.7872,-1.7686,-1.7574,-1.7422,-1.7045,-1.6805,-1.6492,-1.5974,-1.5347,-1.4881,-1.4547,-1.4153,-1.3892,-1.3939,-1.4038,-1.4088,-1.4068,-1.4088,-1.4088,-1.4088,-1.4088,-1.4088,-1.4088,-1.4088,-1.4088,-1.4088,-1.3997,-1.3822,-1.3822,-1.4064,-1.4262,-1.4329,-1.4456,-1.4522,-1.4619,-1.4635,-1.474,-1.4793,-1.478,-1.481,-1.4899,-1.4737,-1.4169,-1.3467,-1.2552,-1.1873,-1.122,-1.0095,-0.9466,-3.4825,-3.3968,-3.3868,-3.3842,-3.3807,-3.3807,-3.3807,-3.3807,-3.3807,-3.3807,-3.3807,-3.3807,-3.3807,-3.3834,-3.3868,-3.3895,-3.3895,-3.3895,-3.3921,-3.3991,-3.4023,-3.3979,-3.3876,-3.3788,-3.3578,-3.3189,-3.2925,-3.2489,-3.1877,-3.1065,-3.0489,-3.009,-2.9131,-2.8474,-2.7948,-2.6766,-2.6078,-2.5784,-2.4518,-2.3741,-2.3911,-2.4473,-2.454,-2.4184,-2.4668,-2.4708,-2.4176,-2.3793,-2.3509,-2.3271,-2.3138,-2.2969,-2.2763,-2.2073,-2.1572,-2.1158,-2.0506,-1.9846,-1.9198,-1.8741,-1.8347,-1.8008,-1.8008,-1.8008,-1.8008,-1.8008,-1.7862,-1.7716,-1.7588,-1.7323,-1.693,-1.6613,-1.6287,-1.5878,-1.5304,-1.4747,-1.445,-1.3909,-1.3691,-1.3655,-1.3837,-1.3908,-1.3961,-1.4035,-1.4075,-1.4088,-1.4088,-1.4088,-1.4088,-1.4088,-1.4082,-1.3997,-1.3828,-1.3652,-1.3646,-1.3776,-1.3802,-1.3854,-1.3972,-1.3998,-1.4089,-1.408,-1.3995,-1.4034,-1.4059,-1.4063,-1.3958,-1.3812,-1.3288,-1.2523,-1.1818,-1.1086,-1.0404,-0.9751,-0.9172,-3.4747,-3.395,-3.3834,-3.3807,-3.3807,-3.3807,-3.3807,-3.3807,-3.3807,-3.3807,-3.3807,-3.3807,-3.3807,-3.3834,-3.3887,-3.3972,-3.4074,-3.4099,-3.4124,-3.4105,-3.4173,-3.4154,-3.4025,-3.3928,-3.3698,-3.3328,-3.2858,-3.2438,-3.2055,-3.1642,-3.1342,-3.1004,-3.0084,-2.9417,-2.9116,-2.8174,-2.7376,-2.6561,-2.5144,-2.4357,-2.4461,-2.4765,-2.4654,-2.4198,-2.4682,-2.4821,-2.435,-2.3852,-2.3569,-2.3475,-2.3223,-2.2957,-2.2678,-2.2073,-2.1561,-2.1158,-2.0495,-1.9781,-1.9198,-1.8741,-1.8337,-1.8017,-1.7988,-1.7988,-1.793,-1.7978,-1.793,-1.7794,-1.7588,-1.7332,-1.6978,-1.6562,-1.6082,-1.5708,-1.5396,-1.4942,-1.4447,-1.4031,-1.366,-1.3319,-1.346,-1.3546,-1.3612,-1.3861,-1.4008,-1.4021,-1.4062,-1.4088,-1.4088,-1.4088,-1.3997,-1.3822,-1.3652,-1.3561,-1.3483,-1.3398,-1.3398,-1.3411,-1.3508,-1.3566,-1.355,-1.3534,-1.3523,-1.3548,-1.3468,-1.3387,-1.3068,-1.2813,-1.2362,-1.1696,-1.0977,-1.045,-0.982,-0.9283,-0.8871,-3.4721,-3.3852,-3.3807,-3.3807,-3.3807,-3.3807,-3.3807,-3.3807,-3.3807,-3.3807,-3.3807,-3.3807,-3.3815,-3.3868,-3.3947,-3.4049,-3.4173,-3.4311,-3.4381,-3.4363,-3.434,-3.4316,-3.425,-3.4105,-3.3752,-3.3273,-3.283,-3.2438,-3.2108,-3.1765,-3.1483,-3.1123,-3.0637,-3.0236,-2.9963,-2.9424,-2.8732,-2.7718,-2.7079,-2.635,-2.542,-2.5429,-2.525,-2.4888,-2.5039,-2.5005,-2.4765,-2.4157,-2.3649,-2.3276,-2.3292,-2.309,-2.2678,-2.2123,-2.1686,-2.1221,-2.0506,-1.9846,-1.9274,-1.871,-1.8245,-1.7886,-1.789,-1.7832,-1.7666,-1.7832,-1.7901,-1.792,-1.7716,-1.751,-1.7323,-1.6908,-1.6342,-1.5656,-1.5122,-1.4712,-1.4238,-1.3762,-1.3334,-1.3074,-1.3153,-1.332,-1.3394,-1.3601,-1.3774,-1.3801,-1.3928,-1.4041,-1.4068,-1.4021,-1.3997,-1.3737,-1.3652,-1.34,-1.318,-1.2974,-1.289,-1.3024,-1.3153,-1.3215,-1.318,-1.312,-1.3102,-1.2922,-1.2845,-1.2589,-1.2187,-1.1807,-1.1359,-1.0983,-1.0482,-0.987,-0.9345,-0.894,-0.8538,-3.4694,-3.3844,-3.3807,-3.3807,-3.3807,-3.3807,-3.3807,-3.3807,-3.3807,-3.3807,-3.3807,-3.3807,-3.386,-3.3895,-3.3979,-3.4124,-3.4288,-3.4473,-3.4583,-3.4626,-3.4583,-3.4517,-3.445,-3.4154,-3.3797,-3.3339,-3.293,-3.2539,-3.2179,-3.1839,-3.1559,-3.1308,-3.0952,-3.0692,-3.0501,-3.0182,-2.9491,-2.8713,-2.8255,-2.7472,-2.6406,-2.6002,-2.572,-2.5393,-2.5354,-2.5258,-2.5005,-2.4492,-2.4002,-2.3526,-2.3352,-2.309,-2.2739,-2.2235,-2.1581,-2.0894,-2.0206,-1.9501,-1.8868,-1.8257,-1.7891,-1.7486,-1.7448,-1.7432,-1.7236,-1.7422,-1.7568,-1.7744,-1.761,-1.7484,-1.7423,-1.7125,-1.656,-1.5859,-1.5237,-1.4561,-1.4015,-1.3431,-1.3098,-1.2866,-1.2929,-1.2999,-1.3093,-1.3293,-1.3474,-1.3514,-1.3641,-1.3761,-1.3761,-1.3741,-1.3602,-1.3437,-1.3194,-1.2915,-1.2634,-1.2551,-1.2385,-1.2547,-1.28,-1.2814,-1.2814,-1.2729,-1.2679,-1.2175,-1.1953,-1.1707,-1.131,-1.1013,-1.0646,-1.0276,-0.9824,-0.9334,-0.8832,-0.8619,-0.8211,-3.4639,-3.3844,-3.3807,-3.3807,-3.3807,-3.3807,-3.3807,-3.3807,-3.3807,-3.3807,-3.3807,-3.3834,-3.3842,-3.3939,-3.4049,-3.4221,-3.4386,-3.4539,-3.471,-3.4811,-3.483,-3.4728,-3.4542,-3.4165,-3.3813,-3.3502,-3.3178,-3.2752,-3.2335,-3.2001,-3.1688,-3.1479,-3.1112,-3.0831,-3.0667,-3.0356,-2.9935,-2.9342,-2.874,-2.7938,-2.7033,-2.653,-2.6061,-2.5592,-2.5652,-2.5508,-2.5174,-2.4892,-2.4563,-2.4099,-2.3497,-2.3138,-2.2848,-2.2297,-2.1513,-2.0615,-1.9823,-1.9043,-1.8164,-1.7687,-1.7302,-1.7024,-1.6904,-1.6699,-1.6728,-1.6836,-1.7021,-1.7314,-1.7261,-1.7283,-1.7309,-1.7176,-1.6682,-1.6132,-1.5346,-1.4633,-1.371,-1.3221,-1.2882,-1.2688,-1.2702,-1.2795,-1.2739,-1.2993,-1.314,-1.3193,-1.324,-1.332,-1.3327,-1.328,-1.3015,-1.2881,-1.2811,-1.2588,-1.2331,-1.2249,-1.2174,-1.2222,-1.2407,-1.2445,-1.2529,-1.2401,-1.2106,-1.1688,-1.1225,-1.0885,-1.0497,-1.0319,-0.9935,-0.9566,-0.9108,-0.8722,-0.8409,-0.8088,-0.7955,-3.4149,-3.3868,-3.3815,-3.3807,-3.3807,-3.3807,-3.3807,-3.3807,-3.3807,-3.3807,-3.3807,-3.386,-3.3895,-3.3998,-3.4124,-3.4269,-3.4495,-3.4666,-3.479,-3.4908,-3.5002,-3.4888,-3.4626,-3.426,-3.3943,-3.368,-3.328,-3.2866,-3.2456,-3.2144,-3.1837,-3.1517,-3.123,-3.0992,-3.0708,-3.0533,-3.0087,-2.9547,-2.8996,-2.8419,-2.7799,-2.719,-2.6777,-2.6442,-2.6147,-2.5893,-2.5619,-2.5174,-2.4677,-2.4112,-2.3806,-2.3437,-2.3078,-2.2543,-2.1798,-2.0813,-2.0086,-1.928,-1.8408,-1.7801,-1.7308,-1.6799,-1.6733,-1.6697,-1.6331,-1.6543,-1.6748,-1.6963,-1.7093,-1.7261,-1.7226,-1.729,-1.6872,-1.5982,-1.5204,-1.4425,-1.3855,-1.3193,-1.2826,-1.262,-1.2533,-1.2506,-1.2512,-1.2672,-1.2936,-1.2899,-1.3013,-1.3146,-1.3086,-1.31,-1.2896,-1.2765,-1.2603,-1.2344,-1.2104,-1.203,-1.1962,-1.198,-1.2059,-1.2149,-1.2195,-1.2204,-1.1787,-1.1262,-1.0787,-1.0414,-0.9981,-0.9717,-0.9314,-0.8945,-0.8545,-0.8236,-0.7915,-0.7692,-0.7678,-3.3947,-3.3895,-3.3815,-3.3807,-3.3807,-3.3807,-3.3807,-3.3807,-3.3807,-3.3852,-3.3879,-3.3887,-3.3972,-3.4099,-3.4221,-3.4427,-3.4645,-3.479,-3.4908,-3.5039,-3.5075,-3.4965,-3.4708,-3.4371,-3.4087,-3.3788,-3.3379,-3.2961,-3.2539,-3.2249,-3.191,-3.1576,-3.1308,-3.1072,-3.079,-3.0584,-3.0201,-2.9649,-2.9074,-2.8606,-2.8268,-2.7725,-2.7335,-2.7041,-2.6606,-2.6286,-2.5893,-2.5508,-2.5005,-2.4376,-2.4028,-2.3688,-2.3258,-2.2775,-2.1946,-2.0712,-2.0079,-1.9242,-1.8121,-1.7508,-1.6966,-1.6534,-1.6487,-1.6217,-1.5949,-1.6045,-1.6201,-1.6455,-1.6699,-1.6918,-1.71,-1.7205,-1.6802,-1.6061,-1.5204,-1.4497,-1.4,-1.3411,-1.2973,-1.2746,-1.2526,-1.2305,-1.2305,-1.2465,-1.2532,-1.2585,-1.2672,-1.2752,-1.2779,-1.2832,-1.2711,-1.2441,-1.2272,-1.1976,-1.1725,-1.157,-1.16,-1.1636,-1.1757,-1.1854,-1.1729,-1.1715,-1.1277,-1.0816,-1.0373,-0.9955,-0.9482,-0.9077,-0.8631,-0.8283,-0.7978,-0.7781,-0.7577,-0.7408,-0.7396,-3.3954,-3.3895,-3.3842,-3.3834,-3.3815,-3.3815,-3.3834,-3.3834,-3.3815,-3.3905,-3.3976,-3.3939,-3.4049,-3.4221,-3.434,-3.4561,-3.4788,-3.4888,-3.502,-3.511,-3.511,-3.5002,-3.4827,-3.4539,-3.4197,-3.386,-3.3512,-3.305,-3.2654,-3.2266,-3.1948,-3.1634,-3.1329,-3.1112,-3.0888,-3.0692,-3.0307,-2.9793,-2.9162,-2.8779,-2.8494,-2.8024,-2.764,-2.7335,-2.6937,-2.65,-2.6096,-2.57,-2.5232,-2.453,-2.4279,-2.3923,-2.345,-2.2932,-2.1884,-2.0569,-1.9831,-1.8883,-1.7632,-1.7059,-1.6587,-1.6243,-1.5964,-1.5662,-1.5537,-1.5547,-1.5684,-1.5967,-1.6096,-1.65,-1.6965,-1.6973,-1.6669,-1.6097,-1.5559,-1.4982,-1.4274,-1.363,-1.3119,-1.2893,-1.2526,-1.2378,-1.2305,-1.2305,-1.2318,-1.2425,-1.2472,-1.2498,-1.2525,-1.2538,-1.2287,-1.1947,-1.1759,-1.1621,-1.1396,-1.1172,-1.1208,-1.1256,-1.1413,-1.1474,-1.1236,-1.1083,-1.074,-1.03,-0.9985,-0.9493,-0.9041,-0.8546,-0.8138,-0.785,-0.7743,-0.7576,-0.7389,-0.7177,-0.7034,-3.4124,-3.4049,-3.3991,-3.3947,-3.3947,-3.3947,-3.3928,-3.3947,-3.3947,-3.3991,-3.4016,-3.4074,-3.4197,-3.4274,-3.4495,-3.4647,-3.4831,-3.4927,-3.5073,-3.5176,-3.5127,-3.5077,-3.4945,-3.4663,-3.4311,-3.3983,-3.3633,-3.319,-3.2734,-3.2386,-3.2038,-3.1654,-3.1483,-3.1269,-3.0929,-3.0816,-3.0525,-2.9957,-2.9371,-2.8917,-2.8669,-2.822,-2.7825,-2.7524,-2.7049,-2.675,-2.6438,-2.5643,-2.4964,-2.4668,-2.4442,-2.4116,-2.3612,-2.2804,-2.1799,-2.0819,-1.9859,-1.8906,-1.7846,-1.72,-1.6751,-1.6363,-1.6087,-1.5798,-1.5672,-1.5478,-1.5449,-1.5615,-1.5869,-1.6334,-1.6898,-1.6741,-1.6519,-1.6253,-1.5921,-1.5363,-1.4569,-1.3855,-1.3346,-1.2973,-1.2673,-1.2452,-1.2298,-1.2298,-1.2305,-1.2305,-1.2305,-1.2305,-1.2305,-1.2305,-1.2009,-1.1706,-1.1632,-1.1484,-1.126,-1.1117,-1.1043,-1.1037,-1.1139,-1.1065,-1.091,-1.0735,-1.0433,-1.0054,-0.9673,-0.9141,-0.864,-0.8208,-0.7827,-0.7631,-0.7427,-0.7315,-0.7186,-0.6919,-0.6865,-3.4197,-3.4148,-3.4074,-3.4023,-3.3998,-3.3998,-3.3998,-3.3979,-3.4049,-3.4074,-3.4124,-3.4221,-3.4381,-3.4495,-3.4647,-3.4791,-3.4927,-3.5037,-3.5143,-3.5212,-3.5145,-3.5096,-3.5021,-3.4724,-3.4381,-3.4067,-3.3716,-3.328,-3.288,-3.2488,-3.2109,-3.1765,-3.1559,-3.1346,-3.1049,-3.0972,-3.0626,-3.0136,-2.9585,-2.9164,-2.8858,-2.8429,-2.7974,-2.7535,-2.6967,-2.6535,-2.6242,-2.5422,-2.4756,-2.4406,-2.4136,-2.3779,-2.3219,-2.2426,-2.1613,-2.0655,-2.0041,-1.9033,-1.8111,-1.7534,-1.7134,-1.6591,-1.6316,-1.6029,-1.5798,-1.5604,-1.5478,-1.5459,-1.5674,-1.6043,-1.6677,-1.676,-1.6594,-1.6504,-1.6202,-1.5638,-1.4927,-1.4209,-1.363,-1.3193,-1.282,-1.2599,-1.2445,-1.2372,-1.2298,-1.2305,-1.2305,-1.2305,-1.2231,-1.2231,-1.2009,-1.1781,-1.1632,-1.1409,-1.1186,-1.1117,-1.1043,-1.0962,-1.0911,-1.0796,-1.0557,-1.0456,-1.0339,-0.9853,-0.9334,-0.8867,-0.833,-0.7928,-0.7676,-0.7554,-0.7345,-0.7211,-0.7091,-0.7138,-0.7007,-3.4311,-3.4221,-3.4173,-3.4105,-3.4074,-3.4074,-3.4074,-3.4074,-3.4105,-3.4221,-3.4269,-3.4404,-3.4561,-3.4689,-3.4792,-3.4945,-3.5091,-3.5196,-3.5245,-3.528,-3.5162,-3.5114,-3.5021,-3.4745,-3.439,-3.4006,-3.3743,-3.3397,-3.2975,-3.2588,-3.2214,-3.1948,-3.1634,-3.1385,-3.1224,-3.1053,-3.0784,-3.0323,-2.9826,-2.9438,-2.9106,-2.8653,-2.814,-2.7394,-2.6877,-2.6243,-2.5775,-2.5067,-2.4396,-2.3949,-2.3525,-2.2904,-2.2273,-2.1799,-2.1302,-2.0378,-1.9916,-1.9178,-1.834,-1.7865,-1.7434,-1.6931,-1.6545,-1.6249,-1.5904,-1.574,-1.5604,-1.5478,-1.5537,-1.5722,-1.6273,-1.6379,-1.6647,-1.6642,-1.6374,-1.586,-1.5346,-1.4633,-1.4065,-1.3484,-1.3046,-1.2673,-1.2526,-1.2452,-1.2378,-1.2305,-1.2298,-1.2285,-1.2204,-1.207,-1.1909,-1.1632,-1.1484,-1.1186,-1.0962,-1.0893,-1.0818,-1.0738,-1.0732,-1.0438,-1.0218,-0.9997,-0.9858,-0.9489,-0.8937,-0.8539,-0.8163,-0.7909,-0.7659,-0.7466,-0.7406,-0.7346,-0.7339,-0.7271,-0.7211,-3.4454,-3.4381,-3.4358,-3.434,-3.434,-3.434,-3.4316,-3.434,-3.4404,-3.445,-3.4473,-3.4645,-3.4749,-3.4812,-3.4983,-3.5127,-3.5245,-3.5277,-3.5277,-3.5296,-3.5162,-3.5096,-3.5021,-3.4745,-3.4394,-3.4037,-3.376,-3.3473,-3.3086,-3.2719,-3.237,-3.2073,-3.1746,-3.15,-3.128,-3.115,-3.0907,-3.0492,-3.0044,-2.9677,-2.9348,-2.8748,-2.8057,-2.7116,-2.6606,-2.6039,-2.5372,-2.459,-2.3894,-2.3516,-2.2616,-2.1986,-2.1613,-2.1446,-2.1077,-2.0511,-1.9801,-1.9119,-1.8583,-1.803,-1.7601,-1.7155,-1.6772,-1.6441,-1.6202,-1.5972,-1.5788,-1.5604,-1.5508,-1.5635,-1.6103,-1.6119,-1.6201,-1.6327,-1.6211,-1.5892,-1.5573,-1.4988,-1.4324,-1.3561,-1.3107,-1.2746,-1.2673,-1.2439,-1.2331,-1.2225,-1.2118,-1.2005,-1.1886,-1.1793,-1.1704,-1.1514,-1.126,-1.0962,-1.0663,-1.0588,-1.0519,-1.0438,-1.0363,-1.0218,-0.9922,-0.962,-0.9322,-0.9094,-0.8861,-0.8498,-0.8192,-0.7876,-0.7825,-0.7741,-0.7725,-0.7622,-0.763,-0.7644,-0.7414,-3.4647,-3.4561,-3.4539,-3.4539,-3.4517,-3.4495,-3.4495,-3.4536,-3.4623,-3.4645,-3.4689,-3.483,-3.4927,-3.4982,-3.5072,-3.5209,-3.5308,-3.5308,-3.5308,-3.5277,-3.5162,-3.5096,-3.5059,-3.4745,-3.4357,-3.4043,-3.3795,-3.3541,-3.3147,-3.2784,-3.2472,-3.2144,-3.1856,-3.1576,-3.1363,-3.1258,-3.1036,-3.0659,-3.029,-2.9941,-2.9553,-2.8744,-2.7752,-2.7147,-2.6196,-2.5498,-2.4984,-2.4177,-2.352,-2.3126,-2.254,-2.1977,-2.1553,-2.1196,-2.0901,-2.0307,-1.9753,-1.9239,-1.8827,-1.8302,-1.792,-1.7545,-1.711,-1.6715,-1.6431,-1.6212,-1.5961,-1.573,-1.5682,-1.5713,-1.6086,-1.5933,-1.6023,-1.6186,-1.6038,-1.5686,-1.5358,-1.4797,-1.4218,-1.3527,-1.32,-1.2954,-1.2753,-1.2572,-1.2291,-1.2164,-1.2018,-1.1795,-1.1644,-1.1441,-1.1269,-1.0985,-1.0722,-1.0404,-1.0101,-1.0021,-0.9991,-0.9938,-0.9879,-0.9734,-0.962,-0.9322,-0.917,-0.9099,-0.8789,-0.8479,-0.8327,-0.8102,-0.8097,-0.8093,-0.8111,-0.8124,-0.8034,-0.7893,-0.7785,-3.4811,-3.4749,-3.4749,-3.4708,-3.4668,-3.4647,-3.4668,-3.4668,-3.479,-3.4849,-3.4868,-3.4983,-3.5072,-3.5122,-3.5207,-3.5304,-3.5412,-3.5358,-3.532,-3.5289,-3.5176,-3.5095,-3.5021,-3.4766,-3.4416,-3.4091,-3.3891,-3.3625,-3.328,-3.2898,-3.2573,-3.2266,-3.2001,-3.1763,-3.1593,-3.1325,-3.1122,-3.0881,-3.0492,-3.013,-2.9415,-2.8342,-2.7377,-2.7056,-2.577,-2.4925,-2.4506,-2.3896,-2.3423,-2.3067,-2.2646,-2.2161,-2.1641,-2.1151,-2.0562,-1.9901,-1.9685,-1.9436,-1.904,-1.8679,-1.8259,-1.7822,-1.749,-1.7099,-1.6715,-1.6498,-1.6202,-1.5846,-1.574,-1.5771,-1.594,-1.5858,-1.5908,-1.5946,-1.5824,-1.5487,-1.5094,-1.4637,-1.4079,-1.3568,-1.3308,-1.2878,-1.2564,-1.2199,-1.187,-1.1779,-1.1642,-1.132,-1.1102,-1.0765,-1.0532,-1.0294,-1.0014,-0.9732,-0.9516,-0.9411,-0.9321,-0.9229,-0.9255,-0.92,-0.9115,-0.9018,-0.9013,-0.8917,-0.887,-0.8637,-0.8484,-0.8403,-0.8479,-0.8475,-0.8551,-0.8632,-0.8556,-0.8479,-0.843,-3.4927,-3.487,-3.4889,-3.4851,-3.487,-3.4851,-3.487,-3.487,-3.4927,-3.4983,-3.4983,-3.5089,-3.5193,-3.5226,-3.532,-3.5432,-3.5446,-3.5412,-3.535,-3.5285,-3.5174,-3.5094,-3.504,-3.4745,-3.4439,-3.4157,-3.3961,-3.3734,-3.3444,-3.3104,-3.2802,-3.2488,-3.2214,-3.193,-3.1554,-3.1414,-3.1207,-3.1072,-3.0658,-2.9871,-2.8801,-2.7699,-2.6738,-2.6069,-2.5466,-2.4897,-2.4313,-2.3842,-2.3494,-2.3216,-2.2799,-2.2027,-2.1176,-2.0683,-1.9954,-1.9495,-1.9406,-1.9579,-1.9129,-1.8713,-1.8395,-1.7878,-1.762,-1.7401,-1.6914,-1.6564,-1.6301,-1.6114,-1.5961,-1.5876,-1.586,-1.5781,-1.5762,-1.5664,-1.5538,-1.5412,-1.5113,-1.4397,-1.3851,-1.332,-1.2893,-1.2456,-1.2039,-1.171,-1.1434,-1.1352,-1.1201,-1.0893,-1.0504,-1.0099,-0.9691,-0.939,-0.9235,-0.9031,-0.8849,-0.8752,-0.8704,-0.8646,-0.867,-0.8699,-0.8733,-0.8702,-0.8803,-0.8722,-0.8746,-0.8927,-0.8941,-0.8937,-0.8937,-0.9013,-0.9165,-0.9241,-0.9246,-0.9165,-0.9008,-3.5107,-3.5001,-3.5001,-3.5019,-3.5018,-3.5037,-3.5054,-3.5072,-3.5143,-3.516,-3.5176,-3.5223,-3.527,-3.532,-3.5432,-3.5479,-3.5493,-3.5446,-3.5364,-3.5285,-3.519,-3.511,-3.504,-3.4807,-3.4502,-3.4246,-3.4043,-3.3887,-3.3587,-3.3232,-3.2912,-3.2619,-3.2335,-3.1847,-3.1392,-3.1436,-3.1356,-3.0925,-3.0023,-2.8984,-2.8176,-2.7265,-2.6459,-2.5961,-2.5368,-2.4834,-2.441,-2.4009,-2.3711,-2.3362,-2.2761,-2.2015,-2.126,-2.0592,-1.9786,-1.9225,-1.9201,-1.9039,-1.8598,-1.826,-1.7966,-1.7622,-1.726,-1.6774,-1.6545,-1.6385,-1.6269,-1.6026,-1.6115,-1.6036,-1.5796,-1.573,-1.5586,-1.5417,-1.5179,-1.4911,-1.4691,-1.4214,-1.3555,-1.3036,-1.2421,-1.1905,-1.1521,-1.1202,-1.0901,-1.0786,-1.0552,-1.0159,-0.967,-0.9169,-0.879,-0.8388,-0.8304,-0.8212,-0.8089,-0.8017,-0.8089,-0.8073,-0.815,-0.8178,-0.8351,-0.8413,-0.8586,-0.8728,-0.8872,-0.9085,-0.9341,-0.9392,-0.9316,-0.9544,-0.9771,-0.9771,-0.9771,-0.9771,-0.9539,-3.5285,-3.5176,-3.516,-3.5141,-3.5155,-3.5155,-3.519,-3.5223,-3.5258,-3.5293,-3.5324,-3.53,-3.5364,-3.5412,-3.5479,-3.5493,-3.5493,-3.5446,-3.5379,-3.53,-3.5207,-3.5126,-3.5039,-3.4829,-3.4567,-3.43,-3.4117,-3.3825,-3.345,-3.311,-3.2751,-3.2513,-3.2183,-3.1564,-3.0976,-3.0751,-3.0643,-2.9607,-2.8574,-2.8004,-2.7656,-2.6867,-2.638,-2.5926,-2.5401,-2.4822,-2.4605,-2.4087,-2.3736,-2.3278,-2.2376,-2.1599,-2.0941,-2.0202,-1.9453,-1.8856,-1.8627,-1.8313,-1.8029,-1.7745,-1.746,-1.7228,-1.6884,-1.6582,-1.6162,-1.6197,-1.6148,-1.5892,-1.5886,-1.5908,-1.5711,-1.5455,-1.5199,-1.4963,-1.4716,-1.4408,-1.4028,-1.3551,-1.299,-1.2342,-1.1738,-1.1196,-1.0829,-1.0657,-1.0451,-1.0221,-0.9861,-0.9408,-0.8942,-0.8353,-0.8061,-0.7721,-0.7559,-0.7518,-0.7462,-0.7424,-0.746,-0.7654,-0.7728,-0.7845,-0.8113,-0.8364,-0.8586,-0.8707,-0.8892,-0.9223,-0.9548,-0.9665,-0.9776,-1.0073,-1.0293,-1.0368,-1.0368,-1.0293,-1.0067,-3.5457,-3.5364,-3.533,-3.53,-3.5285,-3.53,-3.53,-3.53,-3.53,-3.5315,-3.5335,-3.5345,-3.5427,-3.5474,-3.5507,-3.552,-3.5488,-3.5493,-3.546,-3.5383,-3.5324,-3.5212,-3.5075,-3.4888,-3.4689,-3.4505,-3.4167,-3.3586,-3.3031,-3.269,-3.2309,-3.1966,-3.1693,-3.0981,-3.0267,-2.976,-2.899,-2.806,-2.7217,-2.7211,-2.7081,-2.6566,-2.5966,-2.5745,-2.542,-2.5162,-2.4918,-2.4099,-2.3409,-2.3041,-2.2003,-2.1079,-2.0419,-1.9751,-1.9072,-1.8425,-1.8011,-1.7758,-1.7506,-1.7604,-1.7686,-1.7364,-1.6926,-1.6477,-1.6135,-1.6093,-1.6012,-1.5851,-1.5785,-1.5521,-1.5204,-1.4836,-1.477,-1.4547,-1.4349,-1.3951,-1.355,-1.2972,-1.2428,-1.1671,-1.113,-1.0689,-1.0125,-0.992,-0.9687,-0.9472,-0.9034,-0.8603,-0.8187,-0.7681,-0.7438,-0.7136,-0.6928,-0.6884,-0.6871,-0.6923,-0.7089,-0.7359,-0.7591,-0.7748,-0.7985,-0.8299,-0.8528,-0.884,-0.9038,-0.9389,-0.9663,-0.984,-1.0098,-1.0605,-1.0812,-1.0887,-1.0738,-1.0519,-1.0293,-3.5558,-3.5514,-3.5496,-3.5463,-3.5432,-3.5379,-3.5398,-3.5412,-3.5432,-3.5412,-3.5427,-3.5468,-3.5476,-3.5509,-3.5541,-3.5554,-3.5554,-3.5528,-3.5482,-3.5412,-3.5339,-3.5261,-3.5108,-3.4964,-3.4772,-3.4442,-3.3967,-3.3492,-3.2974,-3.2244,-3.1419,-3.1029,-3.0894,-3.0362,-2.9611,-2.8757,-2.7788,-2.7334,-2.6826,-2.6824,-2.6754,-2.649,-2.6059,-2.5987,-2.56,-2.5153,-2.4611,-2.4052,-2.3351,-2.2562,-2.1566,-2.0768,-2.0079,-1.9491,-1.8877,-1.8256,-1.7909,-1.7666,-1.7295,-1.7242,-1.6901,-1.6608,-1.6288,-1.6115,-1.5985,-1.5873,-1.5826,-1.5742,-1.5629,-1.5378,-1.5226,-1.4934,-1.4679,-1.431,-1.3941,-1.3528,-1.3113,-1.2562,-1.2016,-1.1368,-1.0861,-1.043,-0.9778,-0.9147,-0.8962,-0.869,-0.8224,-0.778,-0.7359,-0.7136,-0.6957,-0.6776,-0.6638,-0.666,-0.666,-0.6772,-0.6819,-0.7118,-0.7428,-0.775,-0.8014,-0.8292,-0.8548,-0.8877,-0.9212,-0.953,-0.9799,-1.003,-1.0413,-1.0815,-1.1175,-1.1335,-1.1111,-1.0812,-1.0443,-3.5658,-3.5657,-3.5646,-3.5589,-3.5515,-3.5488,-3.5468,-3.5515,-3.5534,-3.5534,-3.5515,-3.5534,-3.5547,-3.5547,-3.556,-3.5591,-3.5591,-3.5547,-3.5522,-3.5488,-3.5398,-3.5308,-3.5117,-3.475,-3.4245,-3.394,-3.3385,-3.2786,-3.2151,-3.1557,-3.0765,-3.0161,-2.9898,-2.9511,-2.8934,-2.8022,-2.7386,-2.7215,-2.699,-2.6725,-2.6691,-2.6468,-2.6274,-2.612,-2.5721,-2.5159,-2.4442,-2.3718,-2.2902,-2.2108,-2.1283,-2.0572,-2.0065,-1.9572,-1.897,-1.8553,-1.8266,-1.7962,-1.7516,-1.6905,-1.6436,-1.6311,-1.611,-1.5909,-1.5709,-1.5729,-1.5718,-1.547,-1.5437,-1.5361,-1.511,-1.456,-1.4175,-1.378,-1.3401,-1.302,-1.2666,-1.2219,-1.1679,-1.1112,-1.0582,-0.9896,-0.9157,-0.847,-0.8027,-0.7903,-0.7643,-0.7178,-0.6816,-0.6608,-0.6535,-0.6484,-0.6366,-0.6459,-0.6617,-0.6718,-0.6872,-0.7168,-0.7462,-0.7734,-0.8033,-0.8323,-0.859,-0.8899,-0.9242,-0.9603,-0.9908,-1.0218,-1.0554,-1.0972,-1.1222,-1.1388,-1.1335,-1.1037,-1.0663,-3.5782,-3.5794,-3.5718,-3.5667,-3.5616,-3.5611,-3.5611,-3.5591,-3.5591,-3.5611,-3.5598,-3.5591,-3.5604,-3.5604,-3.5596,-3.5628,-3.5608,-3.5584,-3.554,-3.5515,-3.5488,-3.5403,-3.504,-3.4508,-3.3538,-3.2618,-3.2241,-3.1843,-3.1066,-3.0732,-3.0043,-2.9453,-2.9193,-2.8861,-2.8327,-2.7924,-2.7531,-2.7213,-2.7055,-2.6892,-2.6742,-2.6589,-2.6452,-2.6029,-2.5574,-2.5053,-2.4207,-2.3234,-2.2428,-2.1771,-2.0957,-2.0349,-1.9974,-1.967,-1.925,-1.8898,-1.8616,-1.8305,-1.7948,-1.7047,-1.6595,-1.6436,-1.6275,-1.6044,-1.5881,-1.5763,-1.5688,-1.5418,-1.5071,-1.4746,-1.4283,-1.3857,-1.3641,-1.3352,-1.3006,-1.2635,-1.2319,-1.1919,-1.1402,-1.0865,-1.0046,-0.9239,-0.8453,-0.7769,-0.7284,-0.6992,-0.6963,-0.6667,-0.6306,-0.6263,-0.6269,-0.6348,-0.6294,-0.648,-0.6608,-0.6768,-0.6959,-0.7235,-0.7511,-0.7841,-0.8034,-0.8243,-0.8571,-0.8848,-0.9072,-0.9271,-0.9851,-1.0381,-1.0621,-1.0779,-1.1108,-1.1259,-1.1321,-1.1143,-1.073,-3.584,-3.5791,-3.5764,-3.5743,-3.5718,-3.5646,-3.5623,-3.5612,-3.562,-3.5616,-3.5604,-3.562,-3.5623,-3.5604,-3.5637,-3.5667,-3.5667,-3.5604,-3.5581,-3.557,-3.5483,-3.5468,-3.5091,-3.4221,-3.2877,-3.155,-3.1162,-3.1393,-3.0997,-3.0354,-2.9781,-2.9237,-2.8858,-2.8466,-2.8191,-2.7906,-2.7735,-2.7386,-2.7135,-2.6942,-2.6859,-2.6674,-2.632,-2.5816,-2.5346,-2.463,-2.3753,-2.2753,-2.2151,-2.1567,-2.0793,-2.0494,-2.0189,-1.994,-1.9603,-1.9295,-1.8945,-1.8436,-1.7922,-1.724,-1.6863,-1.6625,-1.6398,-1.6244,-1.6163,-1.5925,-1.5703,-1.5421,-1.4914,-1.4619,-1.4348,-1.3962,-1.3672,-1.3288,-1.293,-1.2546,-1.2218,-1.1698,-1.1158,-1.0617,-0.9895,-0.8883,-0.8043,-0.7563,-0.697,-0.6609,-0.6568,-0.6392,-0.6056,-0.613,-0.6168,-0.635,-0.6415,-0.6513,-0.6653,-0.6861,-0.714,-0.7453,-0.7747,-0.8017,-0.8173,-0.8247,-0.8398,-0.8634,-0.8771,-0.8992,-0.9506,-0.9964,-1.0277,-1.0526,-1.0615,-1.076,-1.0836,-1.0761,-1.0536,-3.5889,-3.5833,-3.5846,-3.5853,-3.5811,-3.5727,-3.5659,-3.5669,-3.5637,-3.5635,-3.5654,-3.5667,-3.5688,-3.5679,-3.5708,-3.5727,-3.5727,-3.5689,-3.5648,-3.5579,-3.5198,-3.5252,-3.4968,-3.3873,-3.2076,-3.075,-3.0519,-3.072,-3.0525,-2.9908,-2.9509,-2.92,-2.8863,-2.8543,-2.8237,-2.8057,-2.7799,-2.75,-2.7233,-2.7074,-2.6856,-2.6521,-2.6016,-2.5479,-2.4843,-2.4029,-2.3217,-2.2578,-2.2095,-2.147,-2.1103,-2.0812,-2.0548,-2.0258,-1.9873,-1.942,-1.8542,-1.7932,-1.724,-1.6797,-1.6361,-1.6117,-1.6191,-1.609,-1.5852,-1.5428,-1.5242,-1.4998,-1.4789,-1.4383,-1.4038,-1.3664,-1.3309,-1.2929,-1.2616,-1.2234,-1.1865,-1.1358,-1.1048,-1.045,-0.9717,-0.8685,-0.7741,-0.7295,-0.6807,-0.6524,-0.629,-0.6043,-0.5914,-0.6049,-0.6213,-0.633,-0.6478,-0.6659,-0.686,-0.7063,-0.7353,-0.7703,-0.7862,-0.8017,-0.804,-0.8037,-0.8285,-0.838,-0.839,-0.8534,-0.9038,-0.9402,-0.9593,-0.968,-0.9679,-0.9977,-1.0311,-1.0225,-1.0005,-3.5962,-3.5895,-3.589,-3.5924,-3.5903,-3.5818,-3.581,-3.5803,-3.5737,-3.5708,-3.5708,-3.5766,-3.5784,-3.5793,-3.581,-3.5799,-3.5799,-3.5773,-3.5621,-3.5378,-3.4831,-3.4948,-3.4269,-3.2955,-3.1511,-3.0624,-3.0266,-3.0319,-2.9945,-2.9755,-2.9512,-2.9225,-2.8934,-2.8619,-2.8389,-2.8142,-2.7871,-2.7561,-2.7313,-2.7171,-2.6939,-2.6262,-2.5775,-2.5169,-2.4346,-2.3624,-2.2942,-2.2454,-2.1956,-2.1532,-2.1319,-2.1038,-2.0798,-2.0534,-1.9798,-1.8872,-1.7666,-1.7043,-1.6514,-1.6187,-1.5729,-1.5543,-1.5632,-1.5333,-1.5097,-1.4913,-1.4825,-1.4545,-1.4216,-1.3758,-1.3315,-1.3021,-1.2668,-1.2409,-1.2142,-1.1807,-1.1489,-1.1129,-1.0822,-1.0272,-0.954,-0.8597,-0.7639,-0.7098,-0.6739,-0.6528,-0.6332,-0.6192,-0.6093,-0.6174,-0.6323,-0.6439,-0.6628,-0.6838,-0.7051,-0.7235,-0.7378,-0.7666,-0.7703,-0.7813,-0.7829,-0.7841,-0.7915,-0.7961,-0.7936,-0.8123,-0.8555,-0.8719,-0.8764,-0.8842,-0.8895,-0.9076,-0.9412,-0.9393,-0.9265,-3.5979,-3.5974,-3.5955,-3.5988,-3.5955,-3.5909,-3.5846,-3.5799,-3.5776,-3.576,-3.5763,-3.5788,-3.5803,-3.5799,-3.5859,-3.5859,-3.5833,-3.5733,-3.5305,-3.4865,-3.4342,-3.4066,-3.3373,-3.2319,-3.1188,-3.0586,-3.0232,-3.0123,-3.0003,-2.9786,-2.9532,-2.927,-2.9026,-2.8743,-2.8502,-2.8253,-2.7964,-2.7652,-2.7407,-2.7181,-2.6862,-2.617,-2.561,-2.4764,-2.4015,-2.326,-2.2694,-2.2412,-2.1883,-2.1249,-2.1007,-2.0593,-1.9774,-1.9431,-1.8889,-1.8143,-1.7393,-1.6844,-1.6374,-1.6001,-1.5522,-1.4912,-1.4861,-1.4917,-1.4764,-1.4622,-1.4455,-1.4084,-1.3773,-1.3397,-1.3024,-1.2669,-1.2309,-1.1982,-1.1723,-1.1452,-1.1095,-1.0714,-1.0412,-0.9753,-0.9003,-0.8367,-0.7452,-0.7008,-0.6667,-0.655,-0.6404,-0.6284,-0.6242,-0.634,-0.6362,-0.6478,-0.6706,-0.6929,-0.7175,-0.7365,-0.7478,-0.7591,-0.7581,-0.7564,-0.7557,-0.7586,-0.7626,-0.7578,-0.7501,-0.7741,-0.8084,-0.8177,-0.808,-0.8083,-0.8122,-0.8326,-0.8482,-0.8498,-0.8471,-3.601,-3.6007,-3.6007,-3.6005,-3.6001,-3.5952,-3.5912,-3.5866,-3.5846,-3.584,-3.5833,-3.5853,-3.584,-3.5852,-3.5883,-3.5752,-3.5377,-3.5236,-3.4834,-3.4101,-3.3683,-3.3374,-3.2703,-3.1815,-3.0948,-3.0465,-3.0279,-3.0194,-3.0079,-2.9839,-2.957,-2.9373,-2.9138,-2.8887,-2.8637,-2.8398,-2.8154,-2.7824,-2.7522,-2.7182,-2.6644,-2.5983,-2.5163,-2.4413,-2.3676,-2.3031,-2.2515,-2.2327,-2.1664,-2.1012,-2.0759,-2.0125,-1.9279,-1.8783,-1.8124,-1.7423,-1.6732,-1.62,-1.575,-1.5421,-1.4985,-1.4562,-1.4228,-1.4207,-1.4145,-1.3988,-1.3853,-1.3617,-1.3414,-1.3143,-1.2805,-1.2472,-1.205,-1.1644,-1.1372,-1.1085,-1.0701,-1.0302,-0.9765,-0.9097,-0.8464,-0.7867,-0.7321,-0.6942,-0.667,-0.6629,-0.6608,-0.6569,-0.6509,-0.65,-0.6507,-0.6523,-0.6764,-0.7042,-0.7241,-0.739,-0.7344,-0.735,-0.7344,-0.7298,-0.7272,-0.7197,-0.7139,-0.7101,-0.7047,-0.7329,-0.7605,-0.7417,-0.7338,-0.739,-0.7338,-0.7289,-0.738,-0.7494,-0.7452,-3.6011,-3.6011,-3.6011,-3.6011,-3.601,-3.6007,-3.6003,-3.6003,-3.5927,-3.5919,-3.5899,-3.5904,-3.5909,-3.5895,-3.5767,-3.5357,-3.4939,-3.4647,-3.4029,-3.3206,-3.2621,-3.2347,-3.2048,-3.129,-3.0664,-3.0424,-3.033,-3.0247,-3.0142,-2.9956,-2.9754,-2.9531,-2.931,-2.9093,-2.8863,-2.8554,-2.8234,-2.778,-2.7353,-2.6877,-2.6248,-2.5513,-2.4653,-2.3957,-2.329,-2.2703,-2.2436,-2.2005,-2.1396,-2.0926,-2.0399,-1.9729,-1.886,-1.8143,-1.7423,-1.6862,-1.6159,-1.5693,-1.5279,-1.4962,-1.4588,-1.4218,-1.3874,-1.3817,-1.3753,-1.3642,-1.349,-1.3288,-1.3046,-1.2789,-1.2464,-1.2085,-1.1651,-1.1292,-1.0995,-1.0634,-1.02,-0.9736,-0.9105,-0.855,-0.8101,-0.7531,-0.7209,-0.685,-0.6734,-0.669,-0.6719,-0.6701,-0.6689,-0.6645,-0.6687,-0.6666,-0.6953,-0.7148,-0.7136,-0.7209,-0.7138,-0.7107,-0.7068,-0.6878,-0.6708,-0.665,-0.6612,-0.6587,-0.6503,-0.674,-0.6916,-0.6822,-0.6728,-0.6663,-0.6538,-0.6256,-0.6258,-0.6456,-0.6572,-3.6015,-3.6015,-3.6015,-3.6015,-3.6013,-3.6013,-3.6011,-3.6009,-3.5984,-3.5952,-3.5974,-3.5935,-3.5939,-3.5809,-3.5204,-3.4755,-3.4518,-3.3828,-3.3151,-3.2545,-3.1907,-3.1543,-3.1352,-3.0837,-3.0436,-3.039,-3.0323,-3.0286,-3.0199,-3.0068,-2.9943,-2.9771,-2.9476,-2.9161,-2.8968,-2.8659,-2.8306,-2.7576,-2.6716,-2.6446,-2.6226,-2.518,-2.42,-2.385,-2.3397,-2.2646,-2.2314,-2.1882,-2.0917,-2.0056,-1.9583,-1.8757,-1.7715,-1.7177,-1.6756,-1.6322,-1.5903,-1.5477,-1.5104,-1.4828,-1.4529,-1.4241,-1.4026,-1.3795,-1.3607,-1.3425,-1.322,-1.2978,-1.2697,-1.2437,-1.2113,-1.1737,-1.1341,-1.0978,-1.0644,-1.0173,-0.9749,-0.9123,-0.8497,-0.8068,-0.768,-0.7382,-0.7089,-0.6937,-0.6774,-0.6718,-0.6712,-0.6718,-0.6717,-0.674,-0.6893,-0.6924,-0.717,-0.7308,-0.7193,-0.6996,-0.6836,-0.6712,-0.659,-0.639,-0.6131,-0.6085,-0.5982,-0.5953,-0.602,-0.6159,-0.6216,-0.6258,-0.6164,-0.6081,-0.5887,-0.5631,-0.5497,-0.56,-0.576,-3.6016,-3.6016,-3.6016,-3.6015,-3.6015,-3.6015,-3.6015,-3.6014,-3.6013,-3.554,-3.5005,-3.5218,-3.5433,-3.5279,-3.4496,-3.3829,-3.3629,-3.3064,-3.2289,-3.1668,-3.1423,-3.1064,-3.0713,-3.053,-3.0499,-3.0436,-3.0379,-3.0318,-3.0253,-3.0142,-3.0038,-2.9813,-2.9455,-2.8951,-2.8775,-2.8653,-2.815,-2.7014,-2.5901,-2.5643,-2.5867,-2.4956,-2.4155,-2.3848,-2.3159,-2.2488,-2.1965,-2.1479,-2.0442,-1.9499,-1.8949,-1.8225,-1.7429,-1.6998,-1.6612,-1.6305,-1.5955,-1.5624,-1.5285,-1.4996,-1.4718,-1.4433,-1.4189,-1.396,-1.3708,-1.3539,-1.3242,-1.3,-1.2768,-1.252,-1.2113,-1.1737,-1.133,-1.0985,-1.0545,-1.0067,-0.9439,-0.875,-0.825,-0.7871,-0.7574,-0.7312,-0.7111,-0.694,-0.6828,-0.6748,-0.6728,-0.6764,-0.68,-0.6787,-0.6969,-0.7039,-0.7184,-0.7113,-0.6846,-0.6648,-0.6519,-0.6332,-0.6175,-0.5889,-0.5624,-0.5476,-0.5365,-0.5382,-0.5408,-0.5383,-0.5501,-0.558,-0.5522,-0.5443,-0.5259,-0.5093,-0.4953,-0.4871,-0.4949,-3.6016,-3.6016,-3.6016,-3.6016,-3.6016,-3.6015,-3.6015,-3.5976,-3.5859,-3.4921,-3.3691,-3.4099,-3.4371,-3.4233,-3.3625,-3.284,-3.2265,-3.2076,-3.1426,-3.1056,-3.0853,-3.075,-3.0673,-3.055,-3.051,-3.0499,-3.0436,-3.0402,-3.0336,-3.0062,-2.9742,-2.9639,-2.9042,-2.8308,-2.8315,-2.8353,-2.7995,-2.6534,-2.5472,-2.4821,-2.4726,-2.4653,-2.4037,-2.3361,-2.2754,-2.225,-2.1601,-2.0823,-1.9856,-1.9171,-1.8491,-1.7872,-1.741,-1.7018,-1.6712,-1.6409,-1.6151,-1.5826,-1.5536,-1.5225,-1.4921,-1.4596,-1.4369,-1.4124,-1.3874,-1.3594,-1.331,-1.3047,-1.285,-1.252,-1.2113,-1.1737,-1.133,-1.0878,-1.0428,-0.9932,-0.9217,-0.8496,-0.8126,-0.7795,-0.7545,-0.7328,-0.716,-0.6999,-0.6914,-0.6793,-0.6751,-0.6836,-0.6872,-0.6865,-0.6963,-0.6942,-0.6912,-0.6749,-0.6582,-0.6403,-0.6299,-0.6008,-0.5813,-0.5396,-0.507,-0.5022,-0.491,-0.4886,-0.4857,-0.4923,-0.4885,-0.4976,-0.4864,-0.4864,-0.4784,-0.4658,-0.4587,-0.446,-0.4314,-3.6016,-3.6016,-3.6015,-3.6015,-3.6015,-3.6013,-3.6012,-3.5856,-3.5212,-3.4333,-3.3397,-3.2754,-3.291,-3.3592,-3.2732,-3.2125,-3.1905,-3.1482,-3.1125,-3.0818,-3.0736,-3.0676,-3.0621,-3.0577,-3.0559,-3.051,-3.049,-3.0469,-3.0158,-2.9629,-2.9238,-2.9117,-2.8226,-2.7698,-2.7573,-2.7493,-2.7017,-2.5817,-2.5189,-2.4561,-2.4282,-2.4051,-2.3542,-2.3027,-2.2646,-2.1704,-2.0855,-2.024,-1.9516,-1.8858,-1.8284,-1.7789,-1.7432,-1.7142,-1.6841,-1.657,-1.6301,-1.6039,-1.574,-1.5463,-1.515,-1.4842,-1.4574,-1.4305,-1.4013,-1.3715,-1.3412,-1.3129,-1.285,-1.252,-1.215,-1.1737,-1.133,-1.0764,-1.0273,-0.9774,-0.9136,-0.87,-0.8291,-0.8002,-0.7753,-0.7503,-0.7251,-0.7125,-0.7076,-0.6999,-0.6907,-0.6943,-0.6943,-0.6985,-0.6985,-0.6901,-0.6781,-0.6751,-0.6679,-0.6331,-0.6157,-0.5837,-0.5499,-0.5141,-0.4818,-0.4582,-0.4517,-0.4498,-0.4494,-0.453,-0.4526,-0.4412,-0.4492,-0.4492,-0.4407,-0.4282,-0.4223,-0.4113,-0.3964]},{"header":{"parameterUnit":"m.s-1","parameterCategory":1,"la1":31.0,"la2":29.5877,"lo1":-88.7671,"lo2":-86.6584,"dx":0.0162,"dy":0.0185,"nx":115,"ny":88,"refTime":"2022-12-08T18:00:00:Z","depth":0,"parameterNumber":3,"parameterNumberName":"V-component_of_WINDS"},"data":[0.0,0.0,0.0,0.0,0.0,0.0,0.0,0.0,0.0,0.0,0.0,0.0,0.0,0.0,0.0,0.0,0.0,0.0,0.0,0.0,0.0,0.0,0.0,0.0,0.0,0.0,0.0,0.0,0.0,0.0,0.0,0.0,0.0,0.0,0.0,0.0,0.0,0.0,0.0,0.0,0.0,0.0,0.0,0.0,0.0,0.0,0.0,0.0,0.0,0.0,0.0,0.0,0.0,0.0,0.0,0.0,0.0,0.0,0.0,0.0,0.0,0.0,0.0,0.0,0.0,0.0,0.0,0.0,0.0,0.0,0.0,0.0,0.0,0.0,0.0,0.0,0.0,0.0,0.0,0.0,0.0,0.0,0.0,0.0,0.0,0.0,0.0,0.0,0.0,0.0,0.0,0.0,0.0,0.0,0.0,0.0,0.0,0.0,0.0,0.0,0.0,0.0,0.0,0.0,0.0,0.0,0.0,0.0,0.0,0.0,0.0,0.0,0.0,0.0,0.0,0.0,0.0,0.0,0.0,0.0,0.0,0.0,0.0,0.0,0.0,0.0,0.0,0.0,0.0,0.0,0.0,0.0,0.0,0.0,0.0,0.0,0.0,0.0,0.0,0.0,0.0,0.0,0.0,0.0,0.0,0.0,0.0,0.0,0.0,0.0,0.0,0.0,0.0,0.0,0.0,0.0,0.0,0.0,0.0,0.0,0.0,0.0,0.0,0.0,0.0,0.0,0.0,0.0,0.0,0.0,0.0,0.0,0.0,0.0,0.0,0.0,0.0,0.0,0.0,0.0,0.0,0.0,0.0,0.0,0.0,0.0,0.0,0.0,0.0,0.0,0.0,0.0,0.0,0.0,0.0,0.0,0.0,0.0,0.0,0.0,0.0,0.0,0.0,0.0,0.0,0.0,0.0,0.0,0.0,0.0,0.0,0.0,0.0,0.0,0.0,0.0,0.0,0.0,0.0,0.0,0.0,0.0,0.0,0.0,0.0,0.0,0.0,0.0,0.0,0.0,0.0,0.0,0.0,0.0,0.0,0.0,0.0,0.0,0.0,0.0,0.0,0.0,0.0,0.0,0.0,0.0,0.0,0.0,0.0,0.0,0.0,0.0,0.0,0.0,0.0,0.0,0.0,0.0,0.0,0.0,0.0,0.0,0.0,0.0,0.0,0.0,0.0,0.0,0.0,0.0,0.0,0.0,0.0,0.0,0.0,0.0,0.0,0.0,0.0,0.0,0.0,0.0,0.0,0.0,0.0,0.0,0.0,0.0,0.0,0.0,0.0,0.0,0.0,0.0,0.0,0.0,0.0,0.0,0.0,0.0,0.0,0.0,0.0,0.0,0.0,0.0,0.0,0.0,0.0,0.0,0.0,0.0,0.0,0.0,0.0,0.0,0.0,0.0,0.0,0.0,0.0,0.0,0.0,0.0,0.0,0.0,0.0,0.0,0.0,0.0,0.0,0.0,0.0,0.0,0.0,0.0,0.0,0.0,0.0,0.0,0.0,0.0,0.0,0.0,0.0,0.0,0.0,0.0,0.0,0.0,0.0,0.0,0.0,0.0,0.0,0.0,0.0,0.0,0.0,0.0,0.0,0.0,0.0,0.0,0.0,0.0,0.0,0.0,0.0,0.0,0.0,0.0,0.0,0.0,0.0,0.0,0.0,0.0,0.0,0.0,0.0,0.0,0.0,0.0,0.0,0.0,0.0,0.0,0.0,0.0,0.0,0.0,0.0,0.0,0.0,0.0,0.0,0.0,0.0,0.0,0.0,0.0,0.0,0.0,0.0,0.0,0.0,0.0,0.0,0.0,0.0,0.0,0.0,0.0,0.0,0.0,0.0,0.0,0.0,0.0,0.0,0.0,0.0,0.0,0.0,0.0,0.0,0.0,0.0,0.0,0.0,0.0,0.0,0.0,0.0,0.0,0.0,0.0,0.0,0.0,0.0,0.0,0.0,0.0,0.0,0.0,0.0,0.0,0.0,0.0,0.0,0.0,0.0,0.0,0.0,0.0,0.0,0.0,0.0,0.0,0.0,0.0,0.0,0.0,0.0,0.0,0.0,0.0,0.0,0.0,0.0,0.0,0.0,0.0,0.0,0.0,0.0,0.0,0.0,0.0,0.0,0.0,0.0,0.0,0.0,0.0,0.0,0.0,0.0,0.0,0.0,0.0,0.0,0.0,0.0,0.0,0.0,0.0,0.0,0.0,0.0,0.0,0.0,0.0,0.0,0.0,0.0,0.0,0.0,0.0,0.0,0.0,0.0,0.0,0.0,0.0,0.0,0.0,0.0,0.0,0.0,0.0,0.0,0.0,0.0,0.0,0.0,0.0,0.0,0.0,0.0,0.0,0.0,0.0,0.0,0.0,0.0,0.0,0.0,0.0,0.0,0.0,0.0,0.0,0.0,0.0,0.0,0.0,0.0,0.0,0.0,0.0,0.0,0.0,0.0,0.0,0.0,0.0,0.0,0.0,0.0,0.0,0.0,0.0,0.0,0.0,0.0,0.0,0.0,0.0,0.0,0.0,0.0,0.0,0.0,0.0,0.0,0.0,0.0,0.0,0.0,0.0,0.0,0.0,0.0,0.0,0.0,0.0,0.0,0.0,0.0,0.0,0.0,0.0,0.0,0.0,0.0,0.0,0.0,0.0,0.0,0.0,0.0,0.0,0.0,0.0,0.0,0.0,0.0,0.0,0.0,0.0,0.0,0.0,0.0,0.0,0.0,0.0,0.0,0.0,0.0,0.0,0.0,0.0,0.0,0.0,0.0,0.0,0.0,0.0,0.0,0.0,0.0,0.0,0.0,0.0,0.0,0.0,0.0,0.0,0.0,0.0,0.0,0.0,0.0,0.0,0.0,0.0,0.0,0.0,0.0,0.0,0.0,0.0,0.0,0.0,0.0,0.0,0.0,0.0,0.0,0.0,0.0,0.0,0.0,0.0,0.0,0.0,0.0,0.0,0.0,0.0,0.0,0.0,0.0,0.0,0.0,0.0,0.0,0.0,0.0,0.0,0.0,0.0,0.0,0.0,0.0,0.0,0.0,0.0,0.0,0.0,0.0,0.0,0.0,0.0,0.0,0.0,0.0,0.0,0.0,0.0,0.0,0.0,0.0,0.0,0.0,0.0,0.0,0.0,0.0,0.0,0.0,0.0,0.0,0.0,0.0,0.0,0.0,0.0,0.0,0.0,0.0,0.0,0.0,0.0,0.0,0.0,0.0,0.0,0.0,0.0,0.0,0.0,0.0,0.0,0.0,0.0,0.0,0.0,0.0,0.0,0.0,0.0,0.0,0.0,0.0,0.0,0.0,0.0,0.0,0.0,0.0,0.0,0.0,0.0,0.0,0.0,0.0,0.0,0.0,0.0,0.0,0.0,0.0,0.0,0.0,0.0,0.0,0.0,0.0,0.0,0.0,0.0,0.0,0.0,0.0,0.0,0.0,0.0,0.0,0.0,0.0,0.0,0.0,0.0,0.0,0.0,0.0,0.0,0.0,0.0,0.0,0.0,0.0,0.0,0.0,0.0,0.0,0.0,0.0,0.0,0.0,0.0,0.0,0.0,0.0,0.0,0.0,0.0,0.0,0.0,0.0,0.0,0.0,0.0,0.0,0.0,0.0,0.0,0.0,0.0,0.0,0.0,0.0,0.0,0.0,0.0,0.0,0.0,0.0,0.0,0.0,0.0,0.0,0.0,0.0,0.0,0.0,0.0,0.0,0.0,0.0,0.0,0.0,0.0,0.0,0.0,0.0,0.0,0.0,0.0,0.0,0.0,0.0,0.0,0.0,0.0,0.0,0.0,0.0,0.0,0.0,0.0,0.0,0.0,0.0,0.0,0.0,0.0,0.0,0.0,0.0,0.0,0.0,0.0,0.0,0.0,0.0,0.0,0.0,0.0,0.0,0.0,0.0,0.0,0.0,0.0,0.0,0.0,0.0,0.0,0.0,0.0,0.0,0.0,0.0,0.0,0.0,0.0,0.0,0.0,0.0,0.0,0.0,0.0,0.0,0.0,0.0,0.0,0.0,0.0,0.0,0.0,0.0,0.0,0.0,0.0,0.0,0.0,0.0,0.0,0.0,0.0,0.0,0.0,0.0,0.0,0.0,0.0,0.0,0.0,0.0,0.0,0.0,0.0,0.0,0.0,0.0,0.0,0.0,0.0,0.0,0.0,0.0,0.0,0.0,0.0,0.0,0.0,0.0,0.0,0.0,0.0,0.0,0.0,0.0,0.0,0.0,0.0,0.0,0.0,-0.3619,0.0,0.0,0.0,-0.3668,0.0,0.0,0.0,0.0,0.0,0.0,0.0,0.0,0.0,0.0,0.0,0.0,0.0,0.0,0.0,0.0,0.0,0.0,0.0,0.0,0.0,0.0,0.0,0.0,0.0,0.0,0.0,0.0,0.0,0.0,0.0,0.0,0.0,0.0,0.0,0.0,0.0,0.0,0.0,0.0,0.0,0.0,0.0,0.0,0.0,0.0,0.0,0.0,0.0,0.0,0.0,0.0,0.0,0.0,0.0,0.0,0.0,0.0,0.0,0.0,0.0,0.0,0.0,0.0,0.0,0.0,0.0,0.0,0.0,0.0,0.0,0.0,0.0,0.0,0.0,0.0,0.0,0.0,0.0,0.0,0.0,0.0,0.0,0.0,0.0,0.0,0.0,0.0,0.0,0.0,0.0,0.0,0.0,0.0,0.0,0.0,0.0,0.0,0.0,0.0,0.0,0.0,0.0,0.0,0.0,0.0,0.0,0.0,0.0,0.0,-0.3465,-0.3493,-0.3472,-0.352,-0.3689,0.0,0.0,0.0,0.0,0.0,0.0,0.0,0.0,0.0,0.0,0.0,0.0,0.0,0.0,0.0,0.0,0.0,0.0,0.0,0.0,0.0,0.0,0.0,0.0,0.0,0.0,0.0,0.0,0.0,0.0,0.0,0.0,0.0,0.0,0.0,0.0,0.0,0.0,0.0,0.0,0.0,0.0,0.0,0.0,0.0,0.0,0.0,0.0,0.0,0.0,0.0,0.0,0.0,0.0,0.0,0.0,0.0,0.0,0.0,0.0,0.0,0.0,0.0,0.0,0.0,0.0,0.0,0.0,0.0,0.0,0.0,0.0,0.0,0.0,0.0,0.0,0.0,0.0,0.0,0.0,0.0,0.0,0.0,0.0,0.0,0.0,0.0,0.0,0.0,0.0,0.0,0.0,0.0,0.0,0.0,0.0,0.0,0.0,0.0,0.0,0.0,0.0,0.0,0.0,0.0,0.0,0.0,0.0,0.0,0.0,0.0,0.0,-0.357,-0.3659,-0.3837,0.0,0.0,0.0,0.0,0.0,0.0,0.0,0.0,0.0,0.0,0.0,0.0,0.0,0.0,0.0,0.0,0.0,0.0,0.0,0.0,0.0,0.0,0.0,0.0,0.0,0.0,0.0,0.0,0.0,0.0,0.0,0.0,0.0,0.0,0.0,0.0,0.0,0.0,0.0,0.0,0.0,0.0,0.0,0.0,0.0,0.0,0.0,0.0,0.0,0.0,0.0,0.0,0.0,0.0,0.0,0.0,0.0,0.0,0.0,0.0,0.0,0.0,0.0,0.0,0.0,0.0,0.0,0.0,0.0,0.0,0.0,0.0,0.0,0.0,0.0,0.0,0.0,0.0,0.0,0.0,0.0,0.0,0.0,0.0,0.0,0.0,0.0,0.0,0.0,0.0,0.0,0.0,0.0,0.0,0.0,0.0,0.0,0.0,0.0,0.0,0.0,0.0,0.0,0.0,0.0,0.0,0.0,0.0,0.0,0.0,-0.3709,-0.3773,-0.4037,0.0,-0.4241,0.0,0.0,0.0,0.0,0.0,0.0,0.0,0.0,0.0,0.0,0.0,0.0,0.0,0.0,0.0,0.0,0.0,0.0,0.0,0.0,0.0,0.0,0.0,0.0,0.0,0.0,0.0,0.0,0.0,0.0,0.0,0.0,0.0,0.0,0.0,0.0,0.0,0.0,0.0,0.0,0.0,0.0,0.0,0.0,0.0,0.0,0.0,0.0,0.0,0.0,0.0,0.0,0.0,0.0,0.0,0.0,0.0,0.0,0.0,0.0,0.0,0.0,0.0,0.0,0.0,0.0,0.0,0.0,0.0,0.0,0.0,0.0,0.0,0.0,0.0,0.0,0.0,0.0,0.0,0.0,0.0,0.0,0.0,0.0,0.0,0.0,0.0,0.0,0.0,0.0,0.0,0.0,0.0,0.0,0.0,0.0,0.0,0.0,0.0,0.0,0.0,0.0,0.0,0.0,0.0,0.0,0.0,0.0,0.0,0.0,-0.3621,-0.3669,-0.3984,-0.4155,0.0,0.0,0.0,0.0,0.0,0.0,0.0,0.0,0.0,0.0,0.0,0.0,0.0,0.0,0.0,0.0,0.0,0.0,0.0,0.0,0.0,0.0,0.0,0.0,0.0,0.0,0.0,0.0,0.0,0.0,0.0,0.0,0.0,0.0,0.0,0.0,0.0,0.0,0.0,0.0,0.0,0.0,0.0,0.0,0.0,0.0,0.0,0.0,0.0,0.0,0.0,0.0,0.0,0.0,0.0,0.0,0.0,0.0,0.0,0.0,0.0,0.0,0.0,0.0,0.0,0.0,0.0,0.0,0.0,0.0,0.0,0.0,0.0,0.0,0.0,0.0,0.0,0.0,0.0,0.0,0.0,0.0,0.0,0.0,0.0,0.0,0.0,0.0,0.0,0.0,0.0,0.0,0.0,0.0,0.0,0.0,0.0,0.0,0.0,0.0,0.0,0.0,0.0,0.0,0.0,0.0,0.0,0.0,0.0,0.0,-0.3359,-0.3704,-0.3971,-0.4153,-0.4293,-0.4332,0.0,0.0,0.0,0.0,0.0,0.0,0.0,0.0,0.0,0.0,0.0,0.0,0.0,0.0,0.0,0.0,0.0,0.0,0.0,0.0,0.0,0.0,0.0,0.0,0.0,0.0,0.0,0.0,0.0,0.0,0.0,0.0,0.0,0.0,0.0,0.0,0.0,0.0,0.0,0.0,0.0,0.0,0.0,0.0,0.0,0.0,0.0,0.0,0.0,0.0,0.0,0.0,0.0,0.0,0.0,0.0,0.0,0.0,0.0,0.0,0.0,0.0,0.0,0.0,0.0,0.0,0.0,0.0,0.0,0.0,0.0,0.0,0.0,0.0,0.0,0.0,0.0,0.0,0.0,0.0,0.0,0.0,0.0,0.0,0.0,0.0,0.0,0.0,0.0,0.0,0.0,0.0,0.0,0.0,0.0,0.0,0.0,0.0,0.0,0.0,0.0,0.0,0.0,0.0,0.0,0.0,0.0,0.0,-0.2832,-0.3445,-0.4172,-0.489,-0.4897,-0.4816,0.0,0.0,0.0,0.0,0.0,0.0,0.0,0.0,0.0,0.0,0.0,0.0,0.0,0.0,0.0,0.0,0.0,0.0,0.0,0.0,0.0,0.0,0.0,0.0,0.0,0.0,0.0,0.0,0.0,0.0,0.0,0.0,0.0,0.0,0.0,0.0,0.0,0.0,0.0,0.0,0.0,0.0,0.0,0.0,0.0,0.0,0.0,0.0,0.0,0.0,0.0,0.0,0.0,0.0,0.0,0.0,0.0,0.0,0.0,0.0,0.0,0.0,0.0,0.0,0.0,0.0,0.0,0.0,0.0,0.0,0.0,0.0,0.0,0.0,0.0,0.0,0.0,0.0,0.0,0.0,0.0,0.0,0.0,0.0,0.0,0.0,0.0,0.0,0.0,0.0,0.0,0.0,0.0,0.0,0.0,0.0,0.0,0.0,0.0,0.0,0.0,0.0,0.0,0.0,0.0,0.0,0.0,0.0,0.0,-0.3074,-0.3746,-0.4406,-0.4966,-0.4937,-0.4822,0.0,0.0,0.0,0.0,0.0,0.0,0.0,0.0,0.0,0.0,0.0,0.0,0.0,0.0,0.0,0.0,0.0,0.0,0.0,0.0,0.0,0.0,0.0,0.0,0.0,0.0,0.0,0.0,0.0,0.0,0.0,0.0,0.0,0.0,0.0,0.0,0.0,0.0,0.0,0.0,0.0,0.0,0.0,0.0,0.0,0.0,0.0,0.0,0.0,0.0,0.0,0.0,0.0,0.0,0.0,0.0,0.0,0.0,0.0,0.0,0.0,0.0,0.0,0.0,0.0,0.0,0.0,0.0,0.0,0.0,0.0,0.0,0.0,0.0,0.0,0.0,0.0,0.0,0.0,0.0,0.0,0.0,0.0,0.0,0.0,0.0,0.0,0.0,0.0,0.0,0.0,0.0,0.0,0.0,0.0,0.0,0.0,0.0,0.0,0.0,0.0,0.0,0.0,0.0,0.0,0.0,0.0,0.0,0.0,-0.3431,-0.4029,-0.4527,-0.4973,-0.5053,-0.4918,0.0,0.0,0.0,0.0,0.0,0.0,0.0,0.0,0.0,0.0,0.0,0.0,0.0,0.0,0.0,0.0,0.0,0.0,0.0,0.0,0.0,0.0,0.0,0.0,0.0,0.0,0.0,0.0,0.0,0.0,0.0,0.0,0.0,0.0,0.0,0.0,0.0,0.0,0.0,0.0,0.0,0.0,0.0,0.0,0.0,0.0,0.0,0.0,0.0,0.0,0.0,0.0,0.0,0.0,0.0,0.0,0.0,0.0,0.0,0.0,0.0,0.0,0.0,0.0,0.0,0.0,0.0,0.0,0.0,0.0,0.0,0.0,0.0,0.0,0.0,0.0,0.0,0.0,0.0,0.0,0.0,0.0,0.0,0.0,0.0,0.0,0.0,0.0,0.0,0.0,0.0,0.0,0.0,0.0,0.0,0.0,0.0,0.0,0.0,0.0,0.0,0.0,0.0,0.0,0.0,0.0,0.0,0.0,-0.3517,-0.3897,-0.4243,-0.4648,-0.4992,-0.5277,-0.5213,0.0,0.0,0.0,0.0,0.0,0.0,0.0,0.0,0.0,0.0,0.0,0.0,0.0,0.0,0.0,0.0,0.0,0.0,0.0,0.0,0.0,0.0,0.0,0.0,0.0,0.0,0.0,0.0,0.0,0.0,0.0,0.0,0.0,0.0,0.0,0.0,0.0,0.0,0.0,0.0,0.0,0.0,0.0,0.0,0.0,0.0,0.0,0.0,0.0,0.0,0.0,0.0,0.0,0.0,0.0,0.0,0.0,0.0,0.0,0.0,0.0,0.0,0.0,0.0,0.0,0.0,0.0,0.0,0.0,0.0,0.0,0.0,0.0,0.0,0.0,0.0,0.0,0.0,0.0,0.0,0.0,0.0,0.0,0.0,0.0,0.0,0.0,0.0,0.0,0.0,0.0,0.0,0.0,0.0,0.0,0.0,0.0,0.0,0.0,0.0,0.0,0.0,0.0,0.0,0.0,0.0,0.0,0.0,0.0,-0.4521,-0.487,-0.5242,-0.5695,-0.5753,-0.5745,0.0,0.0,0.0,0.0,0.0,0.0,0.0,0.0,0.0,0.0,0.0,0.0,0.0,0.0,0.0,0.0,0.0,0.0,0.0,0.0,0.0,0.0,0.0,0.0,0.0,0.0,0.0,0.0,0.0,0.0,0.0,0.0,0.0,0.0,0.0,0.0,0.0,0.0,0.0,0.0,0.0,0.0,0.0,0.0,0.0,0.0,0.0,0.0,0.0,0.0,0.0,0.0,0.0,0.0,0.0,0.0,0.0,0.0,0.0,0.0,0.0,0.0,0.0,0.0,0.0,0.0,0.0,0.0,0.0,0.0,0.0,0.0,0.0,0.0,0.0,0.0,0.0,0.0,0.0,0.0,0.0,0.0,0.0,0.0,0.0,0.0,0.0,0.0,0.0,0.0,0.0,0.0,0.0,0.0,0.0,0.0,0.0,0.0,0.0,0.0,0.0,0.0,0.0,0.0,0.0,0.0,0.0,0.0,0.0,-0.5728,-0.5644,-0.5714,-0.6048,-0.6054,-0.6043,-0.5998,0.0,0.0,0.0,0.0,0.0,0.0,0.0,0.0,0.0,0.0,0.0,0.0,0.0,0.0,0.0,0.0,0.0,0.0,0.0,0.0,0.0,0.0,0.0,0.0,0.0,0.0,0.0,0.0,0.0,0.0,0.0,0.0,0.0,0.0,0.0,0.0,0.0,0.0,0.0,0.0,0.0,0.0,0.0,0.0,0.0,0.0,0.0,0.0,0.0,0.0,0.0,0.0,0.0,0.0,0.0,0.0,0.0,0.0,0.0,0.0,0.0,0.0,0.0,0.0,0.0,0.0,0.0,0.0,0.0,0.0,0.0,0.0,0.0,0.0,0.0,0.0,0.0,0.0,0.0,0.0,0.0,0.0,0.0,0.0,0.0,0.0,0.0,0.0,0.0,0.0,0.0,0.0,0.0,0.0,0.0,0.0,0.0,0.0,0.0,0.0,0.0,0.0,0.0,0.0,0.0,0.0,0.0,0.0,-0.7398,-0.6566,-0.6184,-0.6321,-0.6257,-0.6156,0.0,0.0,0.0,0.0,0.0,0.0,0.0,0.0,0.0,0.0,0.0,0.0,0.0,0.0,0.0,0.0,0.0,0.0,0.0,0.0,0.0,0.0,0.0,0.0,0.0,0.0,0.0,0.0,0.0,0.0,0.0,0.0,0.0,0.0,0.0,0.0,0.0,0.0,0.0,0.0,0.0,0.0,0.0,0.0,0.0,0.0,0.0,0.0,0.0,0.0,0.0,0.0,0.0,0.0,0.0,0.0,0.0,0.0,0.0,0.0,0.0,0.0,0.0,0.0,0.0,0.0,0.0,0.0,0.0,0.0,0.0,0.0,0.0,0.0,0.0,0.0,0.0,0.0,0.0,0.0,0.0,0.0,0.0,0.0,0.0,0.0,0.0,0.0,0.0,0.0,0.0,0.0,0.0,0.0,0.0,0.0,0.0,0.0,0.0,0.0,0.0,0.0,0.0,0.0,0.0,0.0,0.0,0.0,0.0,-0.7607,-0.7737,-0.775,-0.7482,-0.7344,-0.722,0.0,0.0,0.0,0.0,0.0,0.0,0.0,0.0,0.0,0.0,0.0,0.0,0.0,0.0,0.0,0.0,0.0,0.0,0.0,0.0,0.0,0.0,0.0,0.0,0.0,0.0,0.0,0.0,0.0,0.0,0.0,0.0,0.0,0.0,0.0,0.0,0.0,0.0,0.0,0.0,0.0,0.0,0.0,0.0,0.0,0.0,0.0,0.0,0.0,0.0,0.0,0.0,0.0,0.0,0.0,0.0,0.0,0.0,0.0,0.0,0.0,0.0,0.0,0.0,0.0,0.0,0.0,0.0,0.0,0.0,0.0,0.0,0.0,0.0,0.0,0.0,0.0,0.0,0.0,0.0,0.0,0.0,0.0,0.0,0.0,0.0,0.0,0.0,0.0,0.0,0.0,0.0,0.0,0.0,0.0,0.0,0.0,0.0,0.0,0.0,0.0,0.0,0.0,0.0,0.0,0.0,0.0,0.0,-0.7847,-0.842,-0.8844,-0.8922,-0.8604,-0.8105,-0.7784,0.0,0.0,0.0,0.0,0.0,0.0,0.0,0.0,0.0,0.0,0.0,0.0,0.0,0.0,0.0,0.0,0.0,0.0,0.0,0.0,0.0,0.0,0.0,0.0,0.0,0.0,0.0,0.0,0.0,0.0,0.0,0.0,0.0,0.0,0.0,0.0,0.0,0.0,0.0,0.0,0.0,0.0,0.0,0.0,0.0,0.0,0.0,0.0,0.0,0.0,0.0,0.0,0.0,0.0,0.0,0.0,0.0,0.0,0.0,0.0,0.0,0.0,0.0,0.0,0.0,0.0,0.0,0.0,0.0,0.0,0.0,0.0,0.0,0.0,0.0,0.0,0.0,0.0,0.0,0.0,0.0,0.0,0.0,0.0,0.0,0.0,0.0,0.0,0.0,0.0,0.0,0.0,0.0,0.0,0.0,0.0,0.0,0.0,0.0,0.0,0.0,0.0,0.0,0.0,0.0,0.0,0.0,0.0,-0.8677,-0.9477,-0.9771,-0.987,-0.9738,-0.8714,-0.8092,0.0,0.0,0.0,0.0,0.0,0.0,0.0,0.0,0.0,0.0,0.0,0.0,0.0,0.0,0.0,0.0,0.0,0.0,0.0,0.0,0.0,0.0,0.0,0.0,0.0,0.0,0.0,0.0,0.0,0.0,0.0,0.0,0.0,0.0,0.0,0.0,0.0,0.0,0.0,0.0,0.0,0.0,0.0,0.0,0.0,0.0,0.0,0.0,0.0,0.0,0.0,0.0,0.0,0.0,0.0,0.0,0.0,0.0,0.0,0.0,0.0,0.0,0.0,0.0,0.0,0.0,0.0,0.0,0.0,0.0,0.0,0.0,0.0,0.0,0.0,0.0,0.0,0.0,0.0,0.0,0.0,0.0,0.0,0.0,0.0,0.0,0.0,0.0,0.0,0.0,0.0,0.0,0.0,0.0,0.0,0.0,0.0,0.0,0.0,0.0,0.0,0.0,0.0,0.0,0.0,0.0,0.0,0.0,-0.9313,-1.0099,-1.0367,-1.064,-1.0862,-0.9707,-0.8813,0.0,0.0,0.0,0.0,0.0,0.0,0.0,0.0,0.0,0.0,0.0,0.0,0.0,0.0,0.0,0.0,0.0,0.0,0.0,0.0,0.0,0.0,0.0,0.0,0.0,0.0,0.0,0.0,0.0,0.0,0.0,0.0,0.0,0.0,0.0,0.0,0.0,0.0,0.0,0.0,0.0,0.0,0.0,0.0,0.0,0.0,0.0,0.0,-1.0788,0.0,0.0,0.0,0.0,0.0,0.0,0.0,0.0,0.0,0.0,0.0,0.0,0.0,0.0,0.0,0.0,0.0,0.0,0.0,0.0,0.0,0.0,0.0,0.0,0.0,0.0,0.0,0.0,0.0,0.0,0.0,0.0,0.0,0.0,0.0,0.0,0.0,0.0,0.0,0.0,0.0,0.0,0.0,0.0,0.0,0.0,0.0,0.0,0.0,0.0,0.0,0.0,0.0,0.0,0.0,0.0,0.0,0.0,0.0,-1.0115,-1.0942,-1.1141,-1.1322,-1.1472,-1.0573,-0.9659,0.0,0.0,0.0,0.0,0.0,0.0,0.0,0.0,0.0,0.0,0.0,0.0,0.0,0.0,0.0,0.0,0.0,0.0,0.0,0.0,0.0,0.0,0.0,0.0,0.0,0.0,0.0,0.0,0.0,0.0,0.0,0.0,0.0,0.0,0.0,0.0,0.0,0.0,0.0,0.0,0.0,0.0,0.0,0.0,0.0,0.0,0.0,0.0,0.0,0.0,0.0,0.0,0.0,0.0,0.0,0.0,0.0,0.0,0.0,0.0,0.0,0.0,0.0,0.0,0.0,0.0,0.0,0.0,0.0,0.0,0.0,0.0,0.0,0.0,0.0,0.0,0.0,0.0,0.0,0.0,0.0,0.0,0.0,0.0,0.0,0.0,0.0,0.0,0.0,0.0,0.0,0.0,0.0,0.0,0.0,0.0,0.0,0.0,0.0,0.0,0.0,0.0,0.0,0.0,0.0,0.0,0.0,-1.002,-1.0983,-1.1831,-1.1948,-1.2033,-1.2052,-1.1329,-1.0435,-0.9475,0.0,0.0,0.0,0.0,0.0,0.0,0.0,0.0,0.0,0.0,0.0,0.0,0.0,0.0,0.0,0.0,0.0,0.0,0.0,0.0,0.0,0.0,0.0,0.0,0.0,0.0,0.0,0.0,0.0,0.0,0.0,0.0,0.0,0.0,0.0,0.0,0.0,0.0,-1.1001,-1.1855,0.0,0.0,0.0,0.0,0.0,0.0,0.0,0.0,-1.1881,0.0,0.0,0.0,0.0,0.0,0.0,0.0,0.0,0.0,0.0,0.0,0.0,0.0,0.0,0.0,0.0,0.0,0.0,0.0,0.0,0.0,0.0,0.0,0.0,0.0,0.0,0.0,0.0,0.0,0.0,0.0,0.0,0.0,0.0,0.0,0.0,0.0,0.0,0.0,0.0,0.0,0.0,0.0,0.0,0.0,0.0,0.0,0.0,0.0,0.0,0.0,0.0,0.0,0.0,0.0,0.0,-0.9808,-1.0679,-1.1636,-1.2604,-1.2806,-1.2851,-1.2815,-1.1918,-1.1018,-1.004,0.0,0.0,0.0,0.0,0.0,0.0,0.0,0.0,0.0,0.0,0.0,0.0,0.0,0.0,0.0,0.0,0.0,0.0,0.0,0.0,0.0,0.0,0.0,0.0,0.0,0.0,0.0,0.0,0.0,0.0,0.0,0.0,0.0,0.0,0.0,0.0,0.0,0.0,0.0,-1.4363,-1.513,0.0,0.0,0.0,0.0,0.0,0.0,0.0,0.0,-1.3935,0.0,0.0,0.0,0.0,0.0,0.0,0.0,0.0,0.0,0.0,0.0,0.0,0.0,0.0,0.0,0.0,0.0,0.0,0.0,0.0,0.0,0.0,0.0,0.0,0.0,0.0,0.0,0.0,0.0,0.0,0.0,0.0,0.0,0.0,0.0,0.0,0.0,0.0,0.0,0.0,0.0,0.0,0.0,0.0,0.0,0.0,0.0,0.0,0.0,0.0,0.0,0.0,0.0,0.0,0.0,-1.0436,-1.1506,-1.2528,-1.3451,-1.3642,-1.3645,-1.3467,-1.2538,-1.1557,0.0,0.0,0.0,0.0,0.0,0.0,0.0,0.0,0.0,0.0,0.0,0.0,0.0,0.0,0.0,0.0,0.0,0.0,0.0,0.0,0.0,0.0,0.0,0.0,0.0,0.0,0.0,0.0,0.0,0.0,0.0,0.0,0.0,0.0,0.0,0.0,0.0,0.0,0.0,0.0,-1.5193,-1.5717,-1.6481,0.0,0.0,0.0,0.0,0.0,0.0,-1.5732,-1.5227,0.0,0.0,0.0,0.0,0.0,0.0,0.0,0.0,0.0,0.0,0.0,0.0,0.0,0.0,0.0,0.0,0.0,0.0,0.0,0.0,0.0,0.0,0.0,0.0,0.0,0.0,0.0,0.0,0.0,0.0,0.0,0.0,0.0,0.0,0.0,0.0,0.0,0.0,0.0,0.0,0.0,0.0,0.0,0.0,0.0,0.0,0.0,0.0,0.0,0.0,0.0,0.0,0.0,0.0,0.0,-1.1008,-1.2272,-1.3361,-1.4174,-1.4518,-1.4426,-1.398,-1.314,-1.2021,0.0,0.0,0.0,0.0,0.0,0.0,0.0,0.0,0.0,0.0,0.0,0.0,0.0,0.0,0.0,0.0,0.0,0.0,0.0,0.0,0.0,0.0,0.0,0.0,0.0,0.0,0.0,0.0,0.0,0.0,0.0,0.0,0.0,0.0,0.0,0.0,0.0,0.0,0.0,0.0,0.0,-1.6225,-1.7152,-1.7372,0.0,0.0,0.0,0.0,-1.7098,-1.6799,0.0,0.0,0.0,0.0,0.0,0.0,0.0,0.0,0.0,0.0,0.0,0.0,0.0,0.0,0.0,0.0,0.0,0.0,0.0,0.0,0.0,0.0,0.0,0.0,0.0,0.0,0.0,0.0,0.0,0.0,0.0,0.0,0.0,0.0,0.0,0.0,0.0,0.0,0.0,0.0,0.0,0.0,0.0,0.0,0.0,0.0,0.0,0.0,0.0,0.0,0.0,0.0,0.0,0.0,0.0,0.0,-1.142,-1.2963,-1.4046,-1.4619,-1.5371,-1.5233,-1.4267,-1.3551,-1.2483,0.0,0.0,0.0,0.0,0.0,0.0,0.0,0.0,0.0,0.0,0.0,0.0,0.0,0.0,0.0,0.0,0.0,0.0,0.0,0.0,0.0,0.0,0.0,0.0,0.0,0.0,0.0,0.0,0.0,0.0,0.0,0.0,0.0,0.0,0.0,0.0,0.0,0.0,0.0,0.0,0.0,-1.803,-1.9416,-2.0203,-2.0628,0.0,0.0,-2.0504,-2.0365,-1.9259,0.0,0.0,0.0,0.0,0.0,0.0,0.0,0.0,0.0,0.0,0.0,0.0,0.0,0.0,0.0,0.0,0.0,0.0,0.0,0.0,0.0,0.0,0.0,0.0,0.0,0.0,0.0,0.0,0.0,0.0,0.0,0.0,0.0,0.0,0.0,0.0,0.0,0.0,0.0,0.0,0.0,0.0,0.0,0.0,0.0,0.0,0.0,0.0,0.0,0.0,0.0,0.0,0.0,0.0,0.0,-1.0383,-1.2101,-1.3882,-1.5039,-1.552,-1.6123,-1.5918,-1.486,-1.4047,-1.2929,0.0,0.0,0.0,0.0,0.0,0.0,0.0,0.0,0.0,0.0,0.0,0.0,0.0,0.0,0.0,0.0,0.0,0.0,0.0,0.0,0.0,0.0,0.0,0.0,0.0,0.0,0.0,0.0,0.0,0.0,0.0,0.0,0.0,0.0,0.0,0.0,0.0,0.0,0.0,0.0,0.0,0.0,-2.0529,-2.1366,0.0,0.0,0.0,-2.2278,-2.1781,0.0,0.0,0.0,0.0,0.0,0.0,0.0,0.0,0.0,0.0,0.0,0.0,0.0,0.0,0.0,0.0,0.0,0.0,0.0,0.0,0.0,0.0,0.0,0.0,0.0,0.0,0.0,0.0,0.0,0.0,0.0,0.0,0.0,0.0,0.0,0.0,0.0,0.0,0.0,0.0,0.0,0.0,0.0,0.0,0.0,0.0,0.0,0.0,0.0,0.0,0.0,0.0,0.0,0.0,0.0,0.0,0.0,-1.2929,-1.473,-1.5931,-1.6472,-1.6849,-1.6588,-1.5712,-1.4772,0.0,0.0,0.0,0.0,0.0,0.0,0.0,0.0,0.0,0.0,0.0,0.0,0.0,0.0,0.0,0.0,0.0,0.0,0.0,0.0,0.0,0.0,0.0,0.0,0.0,0.0,0.0,-0.6775,0.0,0.0,0.0,0.0,0.0,0.0,0.0,0.0,0.0,0.0,0.0,0.0,0.0,0.0,-2.0081,-2.166,-2.2618,-2.3392,0.0,0.0,-2.3937,-2.3365,-2.3009,-2.2141,0.0,0.0,0.0,0.0,0.0,0.0,0.0,0.0,0.0,0.0,0.0,0.0,0.0,0.0,0.0,0.0,0.0,0.0,0.0,0.0,0.0,0.0,0.0,0.0,0.0,0.0,0.0,0.0,0.0,0.0,0.0,0.0,0.0,0.0,0.0,0.0,0.0,0.0,0.0,0.0,0.0,0.0,0.0,0.0,0.0,0.0,0.0,0.0,0.0,0.0,0.0,0.0,0.0,0.0,-1.1607,-1.3839,-1.5399,-1.6656,-1.7544,-1.7623,-1.7501,-1.717,-1.6036,-1.472,0.0,0.0,0.0,0.0,0.0,0.0,0.0,0.0,0.0,0.0,0.0,0.0,0.0,0.0,0.0,0.0,0.0,0.0,0.0,0.0,0.0,0.0,0.0,0.0,0.0,0.0,0.0,0.0,0.0,0.0,0.0,0.0,0.0,0.0,0.0,0.0,0.0,0.0,0.0,0.0,0.0,-2.1696,-2.3249,-2.4647,-2.5629,0.0,-2.5828,-2.5877,-2.5924,-2.4693,-2.3436,-2.2663,0.0,0.0,0.0,0.0,0.0,0.0,0.0,0.0,0.0,0.0,0.0,0.0,0.0,0.0,0.0,0.0,0.0,0.0,0.0,0.0,0.0,0.0,0.0,0.0,0.0,0.0,0.0,0.0,0.0,0.0,0.0,0.0,0.0,0.0,0.0,0.0,0.0,0.0,0.0,0.0,0.0,0.0,0.0,0.0,0.0,0.0,0.0,0.0,0.0,0.0,0.0,0.0,0.0,-1.2678,-1.4752,-1.6192,-1.7506,-1.8707,-1.8642,-1.8326,-1.7843,-1.6917,-1.5568,0.0,0.0,0.0,0.0,0.0,0.0,0.0,0.0,0.0,0.0,0.0,0.0,0.0,0.0,0.0,0.0,0.0,0.0,0.0,0.0,0.0,0.0,0.0,0.0,0.0,0.0,0.0,0.0,-0.9116,-0.932,-0.9357,0.0,0.0,0.0,0.0,0.0,0.0,0.0,0.0,0.0,0.0,-2.2656,-2.4181,-2.5721,0.0,0.0,-2.7551,-2.7446,-2.6989,-2.6113,-2.5056,-2.3856,-2.2133,0.0,0.0,0.0,0.0,0.0,0.0,0.0,0.0,0.0,0.0,0.0,0.0,0.0,0.0,0.0,0.0,0.0,0.0,0.0,0.0,0.0,0.0,0.0,0.0,0.0,0.0,0.0,0.0,0.0,0.0,0.0,0.0,0.0,0.0,0.0,0.0,0.0,0.0,0.0,0.0,0.0,0.0,0.0,0.0,0.0,0.0,0.0,0.0,0.0,0.0,0.0,0.0,-1.3516,-1.5615,-1.7123,-1.8518,-1.9773,-1.9728,-1.9383,-1.8908,-1.8123,-1.6812,0.0,0.0,0.0,0.0,0.0,0.0,0.0,0.0,0.0,0.0,0.0,0.0,0.0,0.0,0.0,0.0,0.0,0.0,0.0,0.0,0.0,0.0,0.0,0.0,0.0,0.0,0.0,0.0,-0.9857,-0.9635,-0.9448,0.0,0.0,0.0,0.0,0.0,0.0,0.0,0.0,0.0,0.0,-2.3873,-2.5384,-2.6945,-2.8126,-2.8729,-2.8879,-2.8782,-2.8288,-2.7442,-2.642,-2.5146,0.0,0.0,0.0,0.0,0.0,0.0,0.0,0.0,0.0,0.0,0.0,0.0,0.0,0.0,0.0,0.0,0.0,0.0,0.0,0.0,0.0,0.0,0.0,0.0,0.0,0.0,0.0,-0.4076,0.0,0.0,-0.3414,0.0,0.0,0.0,0.0,0.0,0.0,0.0,0.0,0.0,0.0,0.0,0.0,0.0,0.0,0.0,0.0,0.0,0.0,0.0,0.0,0.0,0.0,-1.4004,-1.6454,-1.8084,-1.9509,-2.071,-2.0848,-2.0734,-2.0502,-1.9655,-1.8446,-1.6913,0.0,0.0,0.0,0.0,0.0,0.0,0.0,0.0,0.0,0.0,0.0,0.0,0.0,0.0,0.0,0.0,0.0,0.0,0.0,0.0,0.0,0.0,0.0,0.0,0.0,0.0,-1.1617,-1.11,-1.0375,0.0,0.0,0.0,0.0,0.0,0.0,0.0,0.0,0.0,-2.1043,-2.3469,-2.5507,-2.7055,-2.8549,-2.9548,-2.9753,-2.9797,-2.9831,-2.9996,-2.8722,-2.7449,0.0,0.0,0.0,0.0,0.0,0.0,0.0,0.0,0.0,0.0,0.0,0.0,0.0,0.0,0.0,0.0,0.0,0.0,0.0,0.0,0.0,0.0,0.0,0.0,0.0,0.0,0.0,-0.4762,-0.4816,0.0,0.0,0.0,0.0,0.0,0.0,0.0,0.0,0.0,0.0,0.0,-0.9686,-0.9808,0.0,0.0,0.0,0.0,0.0,0.0,0.0,0.0,0.0,0.0,0.0,0.0,-1.4555,-1.6837,-1.8274,-1.9713,-2.12,-2.1469,-2.1525,-2.1455,-2.0582,-1.8983,-1.6599,0.0,0.0,0.0,0.0,0.0,0.0,0.0,0.0,0.0,0.0,0.0,0.0,0.0,0.0,0.0,0.0,0.0,0.0,0.0,0.0,0.0,0.0,0.0,0.0,0.0,-1.1459,0.0,0.0,0.0,0.0,0.0,0.0,0.0,0.0,0.0,0.0,-1.791,-2.0235,-2.2885,-2.4796,-2.65,-2.8082,-2.9185,-3.0075,0.0,0.0,0.0,0.0,0.0,0.0,0.0,0.0,0.0,0.0,0.0,0.0,0.0,-2.6261,-2.5111,-2.1832,-2.1043,-2.0936,-2.0986,0.0,0.0,0.0,0.0,0.0,0.0,0.0,0.0,0.0,0.0,0.0,0.0,0.0,0.0,-0.5514,-0.5667,-0.5665,0.0,0.0,0.0,0.0,0.0,0.0,0.0,0.0,-0.9824,-1.0416,-1.1292,-1.1591,-1.186,-1.2117,-1.1979,-1.1286,0.0,0.0,0.0,0.0,0.0,0.0,0.0,0.0,-1.5194,-1.7333,-1.87,-2.0108,-2.1481,-2.2048,-2.2241,-2.203,-2.1066,-1.9607,-1.7673,-1.6332,-1.4863,0.0,0.0,0.0,0.0,0.0,0.0,0.0,0.0,0.0,0.0,0.0,0.0,0.0,0.0,0.0,0.0,0.0,0.0,0.0,0.0,0.0,0.0,0.0,-1.3195,0.0,0.0,0.0,0.0,0.0,0.0,0.0,0.0,0.0,-1.81,-2.0044,-2.2356,-2.5008,-2.6447,-2.7853,-2.9418,0.0,0.0,0.0,0.0,0.0,0.0,0.0,-3.1078,-3.1175,-3.0996,-3.0882,-3.1061,-3.119,-3.1125,-3.0697,0.0,0.0,-2.628,-2.557,-2.5749,-2.6132,-2.7136,-2.7927,-2.7945,-2.8852,-2.9737,0.0,0.0,0.0,0.0,-0.6345,0.0,0.0,0.0,-0.6682,-0.6592,0.0,-0.6627,0.0,0.0,0.0,0.0,-0.8818,-0.9013,0.0,0.0,-1.1449,-1.2037,-1.269,-1.3263,-1.3548,-1.3576,-1.3479,-1.3397,-1.3233,-1.1614,-1.0531,0.0,0.0,0.0,0.0,0.0,-1.5913,-1.7865,-1.9418,-2.0699,-2.1703,-2.2606,-2.2802,-2.2297,-2.1115,-2.0315,-1.9951,-1.8081,-1.6619,-1.5706,-1.3516,0.0,0.0,0.0,0.0,0.0,0.0,0.0,0.0,0.0,0.0,0.0,0.0,0.0,0.0,0.0,0.0,0.0,0.0,0.0,0.0,-1.5583,0.0,0.0,0.0,0.0,0.0,0.0,0.0,0.0,0.0,-2.0668,-2.0814,-2.219,-2.4261,-2.7332,0.0,0.0,0.0,0.0,-3.2474,-3.2582,-3.2601,-3.2664,-3.2735,-3.2716,-3.2787,-3.2856,0.0,0.0,-3.429,-3.4455,-3.4573,-3.4686,-3.4773,-3.4144,-3.195,-3.1407,-3.1638,-3.2589,-3.2828,-3.3004,-3.3077,-3.316,-3.3506,-0.7346,0.0,0.0,0.0,0.0,-0.6774,-0.6997,-0.7281,-0.7121,-0.7196,-0.7454,-0.7466,0.0,0.0,0.0,0.0,0.0,0.0,-1.1291,-1.2324,-1.2754,-1.3343,-1.4063,-1.4399,-1.4725,-1.4974,-1.4982,-1.4902,-1.4775,-1.4232,-1.3256,-1.1925,0.0,0.0,0.0,0.0,-1.6647,-1.7991,-1.9825,-2.1069,-2.169,-2.2606,-2.2934,-2.2681,-2.2089,-2.1446,-2.0855,-1.9293,-1.8023,-1.7098,-1.5432,0.0,0.0,0.0,0.0,0.0,0.0,0.0,0.0,0.0,0.0,0.0,0.0,0.0,0.0,0.0,0.0,0.0,0.0,0.0,-1.5511,-1.6243,-1.6412,0.0,0.0,0.0,0.0,0.0,0.0,0.0,0.0,0.0,-2.5566,-2.6117,-2.6979,0.0,0.0,-3.1066,-3.2067,-3.2892,-3.3606,-3.4193,-3.4825,0.0,-3.522,-3.5238,-3.545,-3.6085,-3.6905,-3.7515,-3.7609,-3.77,-3.778,-3.7839,-3.801,-3.8085,-3.8112,-3.633,-3.5373,-3.614,-3.6837,-3.7302,-3.7454,-3.7892,-3.8354,-0.79,-0.7419,-0.7535,-0.751,-0.7503,-0.7742,-0.7957,-0.815,-0.8004,-0.8139,-0.8539,-0.8612,-0.8837,-0.9289,-0.9817,0.0,0.0,0.0,-1.257,-1.3389,-1.3818,-1.4287,-1.4864,-1.5257,-1.56,-1.5881,-1.6067,-1.6064,-1.5951,-1.6092,-1.5409,-1.4037,0.0,-1.4453,-1.4771,-1.5999,-1.7191,-1.8235,-2.0039,-2.1144,-2.1703,-2.2677,-2.3065,-2.2795,-2.2509,-2.2128,-2.1641,-2.0202,-1.9141,-1.8517,-1.6997,-1.5433,0.0,0.0,0.0,0.0,0.0,0.0,0.0,0.0,0.0,0.0,0.0,-0.837,-1.0164,0.0,0.0,0.0,-1.4949,-1.6406,-1.7718,-1.8232,0.0,0.0,0.0,0.0,0.0,0.0,0.0,-2.3602,-2.5529,-2.7291,-2.8594,-2.9586,-3.0246,-3.0387,-3.1549,-3.2651,-3.3458,0.0,-3.4963,-3.5459,-3.6229,-3.6762,-3.678,-3.7312,-3.8003,-3.886,-3.9418,-3.981,-3.9859,-4.017,-4.0481,-4.0634,-4.1026,-4.1683,-4.273,-4.1382,-4.0022,-3.9851,-4.0227,-4.0622,-4.0781,-4.12,-4.1527,-0.8427,-0.8425,-0.8571,-0.8575,-0.8551,-0.8771,-0.9025,-0.9252,-0.9086,-0.9342,-0.9742,-0.9841,-1.0187,-1.0697,-1.1505,0.0,-1.3143,-1.3365,-1.371,-1.4194,-1.4717,-1.5093,-1.546,-1.5976,-1.6275,-1.6329,-1.6776,-1.692,-1.6815,-1.7189,-1.7014,-1.6191,-1.5737,-1.5684,-1.6081,-1.6752,-1.7639,-1.8657,-2.0045,-2.1076,-2.1716,-2.2718,-2.3127,-2.2776,-2.2541,-2.2405,-2.2291,-2.096,-2.0048,-1.9746,-1.8289,-1.6913,-1.5714,0.0,0.0,0.0,0.0,0.0,0.0,0.0,0.0,0.0,0.0,0.0,0.0,0.0,0.0,-1.4934,-1.745,0.0,-2.0198,-2.1014,0.0,0.0,0.0,-2.3141,-2.3271,-2.4757,-2.6062,-2.6814,0.0,0.0,-3.0411,-3.2522,-3.3733,-3.2999,-3.355,-3.4266,-3.499,-3.5881,-3.6505,-3.6523,-3.7239,-3.779,-3.7991,-3.9184,-4.0451,-4.124,-4.1489,-4.165,-4.1719,-4.2281,-4.282,-4.3033,-4.3762,-4.4614,-4.5679,-4.5753,-4.5627,-4.3501,-4.3197,-4.3232,-4.3359,-4.3335,-4.3297,-0.9344,-0.9484,-1.0083,-0.9792,-0.9067,-0.9359,-0.9512,-0.9573,-0.9569,-0.9733,-1.0016,-1.0292,-1.0917,-1.1806,-1.234,-1.2878,-1.3446,-1.4241,-1.4792,-1.5156,-1.5918,-1.6386,-1.6605,-1.691,-1.6977,-1.6878,-1.7381,-1.7357,-1.6763,-1.7237,-1.729,-1.6979,-1.7044,-1.6883,-1.6608,-1.7635,-1.8512,-1.9063,-2.0284,-2.1085,-2.1511,-2.2013,-2.2244,-2.2269,-2.2101,-2.2161,-2.2419,-2.1453,-2.0809,-2.0525,-1.9473,-1.8131,-1.644,-1.5662,0.0,0.0,0.0,0.0,0.0,0.0,0.0,0.0,0.0,-1.2084,-1.3819,0.0,-1.569,0.0,-1.9843,-2.1754,-2.2654,-2.2973,0.0,0.0,-2.5011,-2.5826,-2.6493,-2.804,-2.9127,-2.9329,-3.1292,-3.2724,-3.2926,-3.4559,-3.5642,-3.5459,-3.5569,-3.5771,-3.6009,-3.7239,-3.8138,-3.8212,-3.9294,-4.023,-4.0341,-4.1589,-4.2873,-4.3718,-4.4342,-4.4781,-4.4762,-4.5035,-4.5287,-4.5404,-4.5667,-4.6134,-4.6499,-4.6798,-4.689,-4.6473,-4.6122,-4.5822,-4.5879,-4.5433,-4.4989,-0.9497,-0.9857,-1.061,-1.0517,-0.9939,-1.019,-1.0267,-1.0261,-1.0134,-1.0248,-1.0601,-1.1145,-1.1866,-1.2839,-1.3319,-1.3893,-1.4505,-1.5181,-1.5632,-1.5894,-1.6441,-1.6796,-1.7009,-1.7161,-1.7265,-1.7308,-1.7529,-1.7464,-1.7235,-1.7506,-1.7461,-1.7233,-1.7585,-1.7642,-1.7399,-1.8242,-1.8812,-1.9119,-2.022,-2.1059,-2.1567,-2.1801,-2.1892,-2.1809,-2.1929,-2.2046,-2.2087,-2.1579,-2.1122,-2.0782,-2.0191,-1.9161,-1.7617,-1.7105,-1.6271,0.0,0.0,0.0,0.0,0.0,0.0,0.0,0.0,0.0,0.0,0.0,-1.8663,-2.0697,-2.2623,-2.4135,-2.5028,-2.5524,-2.6224,-2.7167,-2.7739,-2.8498,-2.974,-3.1011,-3.1935,-3.2302,-3.3862,-3.4908,-3.4945,-3.6009,-3.6817,-3.6835,-3.7147,-3.7221,-3.7037,-3.8212,-3.9239,-3.9294,-4.0598,-4.1937,-4.2561,-4.3442,-4.4305,-4.5076,-4.5608,-4.5902,-4.5902,-4.6269,-4.658,-4.6688,-4.7159,-4.7623,-4.7847,-4.8141,-4.8399,-4.8504,-4.8151,-4.7658,-4.7377,-4.7011,-4.6701,-0.9515,-0.9944,-1.0709,-1.0988,-1.0962,-1.1094,-1.1082,-1.1022,-1.0742,-1.0869,-1.1241,-1.2002,-1.2806,-1.3636,-1.4216,-1.4898,-1.5689,-1.6066,-1.6341,-1.6469,-1.6664,-1.6924,-1.7081,-1.7096,-1.7352,-1.7674,-1.743,-1.7487,-1.7791,-1.7721,-1.7598,-1.7338,-1.7798,-1.812,-1.8301,-1.8635,-1.894,-1.9133,-2.0075,-2.0885,-2.1462,-2.1639,-2.157,-2.142,-2.1792,-2.1903,-2.1678,-2.1573,-2.1367,-2.0967,-2.0772,-2.0161,-1.9046,-1.8534,-1.811,0.0,-1.7169,0.0,0.0,0.0,0.0,0.0,0.0,0.0,0.0,-1.9838,-2.1902,-2.4356,-2.5517,-2.649,-2.7371,-2.837,-2.9347,-3.0334,-3.0636,-3.1327,-3.2863,-3.3697,-3.4394,-3.5082,-3.5917,-3.645,-3.645,-3.7129,-3.7643,-3.7679,-3.8175,-3.8322,-3.7918,-3.9019,-4.0065,-4.0047,-4.1405,-4.2965,-4.4342,-4.48,-4.5186,-4.5975,-4.6305,-4.6214,-4.6305,-4.6838,-4.7297,-4.75,-4.8124,-4.8765,-4.9113,-4.9346,-4.9665,-4.9765,-4.9409,-4.8892,-4.8316,-4.801,-4.8087,-1.0005,-1.045,-1.1187,-1.1547,-1.1528,-1.1682,-1.157,-1.1323,-1.1035,-1.1235,-1.1697,-1.2277,-1.297,-1.3802,-1.4473,-1.5036,-1.5522,-1.6234,-1.6581,-1.6732,-1.714,-1.7417,-1.759,-1.7754,-1.7726,-1.7629,-1.7855,-1.7688,-1.7155,-1.7541,-1.7641,-1.7456,-1.7881,-1.8258,-1.8696,0.0,0.0,0.0,-1.9861,-2.0076,-2.0294,-2.045,-2.0643,-2.093,-2.1242,0.0,-2.1902,-2.2118,-2.2083,-2.1858,-2.1924,0.0,0.0,0.0,0.0,0.0,0.0,0.0,0.0,0.0,0.0,0.0,-2.1573,-2.1384,-2.0615,-2.2647,-2.4862,-2.6749,-2.7813,-2.8794,-2.9801,-3.0769,-3.1779,-3.2812,-3.3524,-3.4365,-3.5449,-3.5734,-3.5899,-3.6028,-3.6762,-3.7287,-3.7312,-3.7955,-3.845,-3.8432,-3.8597,-3.8634,-3.8487,-3.979,-4.0836,-4.1001,-4.2249,-4.3809,-4.5443,-4.5626,-4.6012,-4.7407,-4.7847,-4.7792,-4.7774,-4.7884,-4.8105,-4.8199,-4.8495,-4.8714,-4.8925,-4.916,-4.9464,-4.9702,-4.98,-4.9711,-4.9077,-4.8471,-4.803,-1.0143,-1.0588,-1.1335,-1.1706,0.0,-1.1999,-1.1997,-1.1824,-1.1396,-1.1477,-1.1945,-1.2483,-1.3122,-1.3914,-1.4589,-1.5236,-1.5765,-1.6437,-1.68,-1.7013,-1.7366,-1.752,-1.7638,-1.7735,-1.7794,-1.7804,-1.7747,-1.7533,-1.7195,-1.7319,-1.7312,-1.7245,-1.7689,-1.815,-1.8583,-1.91,-1.9445,-1.9798,-1.9798,-1.9914,-2.008,-2.0233,-2.0523,-2.097,-2.1313,0.0,0.0,0.0,0.0,0.0,0.0,0.0,0.0,-2.1478,-2.1535,-2.1486,-2.1698,-2.194,-2.2261,-2.2834,-2.3293,-2.3518,-2.4743,-2.5055,-2.4075,-2.5569,-2.7109,-2.8537,-2.9895,-3.0995,-3.1684,-3.296,-3.4039,-3.4725,-3.5166,-3.582,-3.6707,-3.689,-3.7037,-3.7459,-3.7826,-3.8083,-3.8102,-3.8432,-3.8689,-3.8707,-3.8707,-3.8707,-3.8836,-4.0084,-4.1313,-4.2139,-4.2892,-4.3901,-4.5002,-4.5314,-4.5883,-4.7278,-4.7719,-4.7884,-4.8251,-4.8324,-4.8306,-4.8401,-4.8476,-4.8624,-4.8804,-4.9079,-4.934,-4.9566,-4.9824,-4.9949,-4.971,-4.9463,-4.9297,-1.0143,-1.0588,-1.1335,-1.1626,-1.1706,-1.2083,-1.2305,-1.2271,-1.173,0.0,0.0,-1.2614,-1.3271,-1.3987,-1.469,-1.5419,-1.6061,-1.6551,-1.6899,-1.7038,-1.7185,-1.7323,-1.7314,-1.7323,-1.7539,-1.7862,-1.7513,-1.7337,-1.7264,-1.7154,-1.7057,-1.7008,-1.7423,-1.7931,-1.8476,-1.9088,-1.951,-1.9772,-1.9798,-1.9952,-2.0182,-2.0372,-2.0673,-2.118,-2.1725,-2.2102,-2.24,-2.2951,-2.3081,-2.2673,-2.2861,-2.2936,-2.2738,-2.2757,-2.2978,-2.3403,-2.3607,-2.3882,-2.4259,-2.5062,-2.5587,-2.5813,-2.7296,-2.7979,-2.7401,-2.8117,-2.9007,-3.0074,-3.1671,-3.2804,-3.3229,-3.4778,-3.5901,-3.6152,-3.6383,-3.6856,-3.7588,-3.7698,-3.7955,-3.8579,-3.8652,-3.8689,-3.867,-3.8689,-3.8707,-3.8707,-3.8707,-3.8799,-3.9056,-4.0194,-4.1589,-4.2763,-4.3259,-4.3791,-4.4488,-4.4764,-4.5314,-4.6617,-4.704,-4.737,-4.7902,-4.8214,-4.8306,-4.8324,-4.8419,-4.8569,-4.8751,-4.8943,-4.9193,-4.9408,-4.9646,-4.9906,-5.0114,-5.0348,-5.0445,-1.0143,-1.0513,-1.1186,-1.1558,-1.1706,-1.1929,-1.215,-1.2278,-1.1951,-1.2016,-1.2452,-1.2663,-1.3331,-1.4355,-1.4917,-1.5446,-1.5867,-1.6211,-1.6412,-1.6412,-1.6421,-1.6542,-1.6715,-1.6733,-1.6917,-1.731,-1.7423,-1.7244,-1.685,-1.7141,-1.7121,-1.6779,-1.7256,-1.792,-1.8703,-1.9047,-1.9364,-1.9602,-1.9862,-2.0055,-2.0182,-2.0422,-2.0772,-2.1193,-2.215,-2.2804,-2.313,-2.4062,-2.4659,-2.4761,-2.4902,-2.5136,-2.5424,-2.5497,-2.5823,-2.6271,-2.6576,-2.6929,-2.7248,-2.7652,-2.8023,-2.83,-2.9222,-2.9502,-2.8898,-2.9585,-3.0482,-3.144,-3.2596,-3.3653,-3.4535,-3.5756,-3.6618,-3.693,-3.7621,-3.8204,-3.8456,-3.8487,-3.8524,-3.867,-3.8707,-3.8707,-3.8707,-3.8707,-3.8707,-3.8707,-3.8707,-3.8927,-3.9551,-4.0506,-4.1423,-4.2323,-4.3075,-4.3773,-4.4342,-4.4709,-4.5057,-4.5902,-4.6599,-4.7003,-4.7223,-4.7774,-4.8159,-4.8269,-4.8382,-4.8532,-4.8605,-4.8785,-4.9027,-4.9289,-4.9457,-4.9665,-4.9906,-5.0114,-5.0348,-1.0218,-1.0594,-1.1186,-1.1484,-1.1706,-1.2003,-1.2224,-1.2291,-1.2164,-1.2249,-1.2545,-1.2913,-1.3353,-1.392,-1.4569,-1.5062,-1.5355,-1.5709,-1.5921,-1.6053,-1.6044,-1.6097,-1.6201,-1.6306,-1.6447,-1.6711,-1.7005,-1.69,-1.6478,-1.6855,-1.6769,-1.6394,-1.719,-1.7931,-1.8583,-1.8994,-1.9259,-1.9497,-1.9811,-2.0246,-2.0681,-2.1042,-2.1544,-2.2272,-2.3078,-2.3667,-2.404,-2.4723,-2.5158,-2.5301,-2.5444,-2.5646,-2.5971,-2.6153,-2.6468,-2.6934,-2.7264,-2.7541,-2.7931,-2.8698,-2.941,-3.0065,-3.0458,-3.0548,-3.0268,-3.0615,-3.1333,-3.2297,-3.3341,-3.4405,-3.5437,-3.6524,-3.7324,-3.7609,-3.8118,-3.8446,-3.8578,-3.8658,-3.8707,-3.8707,-3.8707,-3.8707,-3.8707,-3.8707,-3.8707,-3.8707,-3.8707,-3.8872,-3.9221,-3.9937,-4.0744,-4.1552,-4.2341,-4.2928,-4.3387,-4.3791,-4.4342,-4.5131,-4.5553,-4.5975,-4.6342,-4.7021,-4.7443,-4.7664,-4.8014,-4.842,-4.8495,-4.8697,-4.8909,-4.9046,-4.9289,-4.9537,-4.9741,-5.0012,-5.0325,-1.0363,-1.0588,-1.1111,-1.1484,-1.1706,-1.215,-1.2305,-1.2305,-1.2305,-1.2372,-1.2599,-1.2973,-1.3266,-1.3564,-1.4209,-1.4633,-1.4832,-1.5133,-1.5355,-1.5551,-1.5551,-1.5525,-1.5545,-1.5745,-1.5947,-1.614,-1.6578,-1.6609,-1.6364,-1.6587,-1.6535,-1.6378,-1.719,-1.7865,-1.841,-1.8887,-1.9206,-1.942,-1.9798,-2.036,-2.1093,-2.155,-2.223,-2.3133,-2.3844,-2.4439,-2.4883,-2.538,-2.5697,-2.5857,-2.5953,-2.6191,-2.6426,-2.6612,-2.6946,-2.7391,-2.771,-2.8107,-2.8615,-2.9486,-3.0387,-3.114,-3.119,-3.119,-3.119,-3.1252,-3.1798,-3.2982,-3.3835,-3.4836,-3.6106,-3.7094,-3.7774,-3.8052,-3.8267,-3.8415,-3.851,-3.8627,-3.8707,-3.8707,-3.8707,-3.8707,-3.8707,-3.8707,-3.8707,-3.8707,-3.8707,-3.8707,-3.8781,-3.9276,-3.9882,-4.0524,-4.1387,-4.1992,-4.2066,-4.2708,-4.3424,-4.4121,-4.4544,-4.5021,-4.5608,-4.6177,-4.6636,-4.6929,-4.7425,-4.7867,-4.8181,-4.8347,-4.8546,-4.8816,-4.916,-4.9415,-4.9731,-5.0031,-5.0306,-1.0443,-1.0812,-1.1037,-1.1335,-1.1781,-1.2157,-1.2305,-1.2305,-1.2305,-1.2298,-1.2378,-1.2753,-1.3127,-1.3492,-1.3912,-1.4281,-1.4425,-1.4641,-1.4713,-1.4713,-1.4705,-1.4744,-1.4751,-1.4895,-1.5213,-1.5621,-1.6123,-1.6387,-1.6392,-1.6619,-1.6708,-1.6789,-1.7256,-1.781,-1.8367,-1.8726,-1.9047,-1.942,-1.9825,-2.0348,-2.1067,-2.1589,-2.2282,-2.316,-2.4326,-2.5076,-2.5553,-2.6477,-2.7092,-2.7223,-2.7315,-2.753,-2.7792,-2.7939,-2.8198,-2.8669,-2.9051,-2.9632,-3.0352,-3.068,-3.0891,-3.1134,-3.119,-3.119,-3.119,-3.119,-3.1919,-3.33,-3.3995,-3.4983,-3.6693,-3.7301,-3.7721,-3.7984,-3.8219,-3.8415,-3.851,-3.8627,-3.8707,-3.8707,-3.8707,-3.8707,-3.8707,-3.8707,-3.8707,-3.8707,-3.8707,-3.8707,-3.8707,-3.8817,-3.8964,-3.9258,-4.0194,-4.1093,-4.1277,-4.1882,-4.2415,-4.269,-4.3773,-4.4433,-4.4837,-4.5626,-4.6581,-4.6104,-4.6324,-4.6783,-4.7261,-4.7499,-4.7827,-4.8354,-4.8814,-4.9277,-4.975,-4.9886,-5.0049,-1.0519,-1.0818,-1.1186,-1.1484,-1.1929,-1.215,-1.2305,-1.2305,-1.2305,-1.2305,-1.2305,-1.2599,-1.282,-1.2966,-1.3484,-1.3783,-1.3855,-1.4072,-1.4152,-1.4072,-1.3992,-1.4034,-1.414,-1.4322,-1.4633,-1.4982,-1.5568,-1.5861,-1.603,-1.6281,-1.6638,-1.6884,-1.7105,-1.7512,-1.8073,-1.8476,-1.8893,-1.9303,-1.9695,-2.0257,-2.108,-2.1983,-2.3031,-2.4232,-2.5119,-2.5781,-2.6255,-2.6879,-2.7269,-2.7488,-2.756,-2.7725,-2.802,-2.8137,-2.8414,-2.8873,-2.947,-3.0017,-3.0526,-3.0773,-3.0992,-3.119,-3.119,-3.119,-3.119,-3.119,-3.1743,-3.2901,-3.3744,-3.4745,-3.6085,-3.6958,-3.7559,-3.781,-3.8119,-3.8368,-3.8446,-3.8609,-3.8707,-3.8707,-3.8707,-3.8707,-3.8707,-3.8707,-3.8707,-3.8707,-3.8707,-3.8707,-3.8707,-3.8707,-3.8707,-3.8781,-3.9331,-3.9845,-4.0322,-4.1075,-4.1515,-4.1791,-4.2506,-4.3259,-4.3479,-4.4085,-4.4819,-4.5094,-4.5076,-4.5424,-4.6305,-4.656,-4.6868,-4.7448,-4.7708,-4.8018,-4.8367,-4.8574,-4.8766,-1.0726,-1.1043,-1.1403,-1.1706,-1.2003,-1.2231,-1.2305,-1.2305,-1.2305,-1.2305,-1.2298,-1.2445,-1.2526,-1.2599,-1.3119,-1.3346,-1.3346,-1.3492,-1.3572,-1.3572,-1.3419,-1.3404,-1.3593,-1.3833,-1.4137,-1.4497,-1.5141,-1.5574,-1.5914,-1.6367,-1.6727,-1.7051,-1.7096,-1.7431,-1.7991,-1.8394,-1.8786,-1.9174,-1.9592,-2.0153,-2.1106,-2.222,-2.3366,-2.4652,-2.5481,-2.615,-2.6669,-2.6997,-2.7321,-2.7575,-2.756,-2.774,-2.7955,-2.8103,-2.8365,-2.892,-2.956,-3.0087,-3.0468,-3.0733,-3.0992,-3.1151,-3.119,-3.119,-3.119,-3.119,-3.1506,-3.223,-3.3184,-3.4142,-3.529,-3.637,-3.7093,-3.7399,-3.7855,-3.8271,-3.8401,-3.8546,-3.8658,-3.8689,-3.8707,-3.8707,-3.8707,-3.8707,-3.8707,-3.8707,-3.8707,-3.8707,-3.8707,-3.8707,-3.8707,-3.8707,-3.8726,-3.8964,-3.9515,-4.0249,-4.0689,-4.0965,-4.1497,-4.2029,-4.2103,-4.2818,-4.3314,-4.3901,-4.3571,-4.3991,-4.5257,-4.5731,-4.6104,-4.6368,-4.6713,-4.7118,-4.7624,-4.7653,-4.7837,-1.1053,-1.1422,-1.1787,-1.2003,-1.2003,-1.2231,-1.2305,-1.2305,-1.2305,-1.2305,-1.2305,-1.2305,-1.2305,-1.2378,-1.2746,-1.29,-1.2893,-1.2973,-1.2973,-1.29,-1.29,-1.2893,-1.2966,-1.3339,-1.371,-1.4194,-1.4848,-1.5652,-1.6455,-1.6958,-1.7273,-1.742,-1.7392,-1.7712,-1.8293,-1.8393,-1.8696,-1.9182,-1.9463,-2.0051,-2.1067,-2.2088,-2.3125,-2.415,-2.5299,-2.615,-2.6683,-2.7011,-2.7321,-2.756,-2.756,-2.774,-2.797,-2.8005,-2.8381,-2.9029,-2.9544,-3.0027,-3.0485,-3.0733,-3.0992,-3.1151,-3.119,-3.119,-3.119,-3.119,-3.132,-3.1547,-3.2385,-3.3304,-3.4341,-3.5467,-3.6274,-3.6629,-3.7462,-3.8005,-3.8291,-3.8209,-3.8523,-3.8621,-3.867,-3.8689,-3.8707,-3.8707,-3.8707,-3.8707,-3.8707,-3.8707,-3.8707,-3.8707,-3.8707,-3.8707,-3.8689,-3.8726,-3.8836,-3.9423,-3.9863,-4.012,-4.0561,-4.1148,-4.1699,-4.2194,-4.2506,-4.2834,-4.2871,-4.3382,-4.4444,-4.5134,-4.5588,-4.5966,-4.6446,-4.6852,-4.6797,-4.7518,-4.7597,-1.1517,-1.1787,-1.1929,-1.2077,-1.2224,-1.2305,-1.2305,-1.2305,-1.2305,-1.2305,-1.2305,-1.2305,-1.2305,-1.2305,-1.2305,-1.2372,-1.2526,-1.2526,-1.2445,-1.2305,-1.215,-1.2298,-1.2526,-1.2826,-1.3324,-1.389,-1.4553,-1.5492,-1.667,-1.7016,-1.7396,-1.7785,-1.7739,-1.8006,-1.8504,-1.8544,-1.8779,-1.9202,-1.9312,-1.9683,-2.0449,-2.1758,-2.2844,-2.362,-2.5091,-2.6165,-2.6683,-2.7011,-2.7321,-2.756,-2.756,-2.7705,-2.7985,-2.833,-2.8684,-2.9075,-2.9544,-3.0027,-3.0485,-3.0733,-3.0992,-3.119,-3.119,-3.119,-3.119,-3.119,-3.1269,-3.1419,-3.1705,-3.2256,-3.2919,-3.4265,-3.5367,-3.5668,-3.6155,-3.6602,-3.6694,-3.6869,-3.7156,-3.7784,-3.831,-3.8707,-3.8652,-3.8707,-3.8707,-3.8707,-3.8707,-3.8707,-3.8707,-3.8707,-3.8707,-3.8707,-3.8719,-3.8762,-3.8762,-3.8903,-3.9184,-3.9368,-3.9717,-4.0171,-4.0717,-4.1043,-4.1337,-4.1774,-4.2028,-4.241,-4.3268,-4.4045,-4.46,-4.5103,-4.5649,-4.5911,-4.5854,-4.6495,-4.6527,-1.1822,-1.2029,-1.2077,-1.215,-1.2305,-1.2305,-1.2305,-1.2305,-1.2305,-1.2305,-1.2305,-1.2305,-1.2305,-1.2231,-1.2077,-1.2003,-1.2003,-1.2003,-1.1929,-1.1787,-1.1632,-1.17,-1.1996,-1.2298,-1.2806,-1.3578,-1.4402,-1.5497,-1.6594,-1.6955,-1.7426,-1.7991,-1.8027,-1.8227,-1.8674,-1.8742,-1.9034,-1.943,-1.9502,-1.9745,-2.0332,-2.1652,-2.2684,-2.3457,-2.4994,-2.615,-2.6616,-2.7011,-2.7284,-2.7488,-2.7575,-2.774,-2.7985,-2.8508,-2.8889,-2.9121,-2.956,-2.9984,-3.0426,-3.0733,-3.0992,-3.119,-3.119,-3.119,-3.119,-3.119,-3.1252,-3.1312,-3.1406,-3.1576,-3.2009,-3.3139,-3.4147,-3.464,-3.5196,-3.5602,-3.5765,-3.6,-3.6376,-3.7014,-3.7759,-3.8212,-3.8358,-3.856,-3.867,-3.8707,-3.8707,-3.8707,-3.8707,-3.8707,-3.8689,-3.8719,-3.878,-3.8822,-3.8803,-3.8902,-3.8976,-3.9123,-3.9185,-3.9528,-3.9786,-4.0038,-4.0357,-4.0757,-4.112,-4.1428,-4.202,-4.2828,-4.3463,-4.4035,-4.4492,-4.4881,-4.5065,-4.539,-4.559,-1.2049,-1.2022,-1.2231,-1.2305,-1.2305,-1.2305,-1.2305,-1.2305,-1.2305,-1.2305,-1.2305,-1.2305,-1.2305,-1.2231,-1.2083,-1.1781,-1.1484,-1.1409,-1.1335,-1.1329,-1.1186,-1.118,-1.1385,-1.1848,-1.2432,-1.3128,-1.4458,-1.5559,-1.6333,-1.6913,-1.7463,-1.79,-1.8077,-1.8382,-1.8818,-1.9004,-1.9437,-1.9924,-2.0001,-2.0257,-2.0891,-2.191,-2.279,-2.347,-2.5007,-2.6042,-2.6457,-2.6959,-2.7233,-2.7365,-2.7554,-2.7725,-2.8005,-2.8508,-2.8873,-2.9121,-2.9544,-3.0027,-3.0426,-3.0733,-3.0975,-3.105,-3.1157,-3.1157,-3.1055,-3.114,-3.1213,-3.1291,-3.1406,-3.1593,-3.1763,-3.2157,-3.2792,-3.3686,-3.4579,-3.5202,-3.5535,-3.5848,-3.6054,-3.6347,-3.6982,-3.747,-3.7654,-3.8083,-3.8487,-3.8524,-3.8634,-3.8707,-3.8707,-3.8707,-3.8719,-3.8762,-3.8822,-3.8833,-3.8881,-3.891,-3.891,-3.8947,-3.8955,-3.9121,-3.9353,-3.9586,-3.9838,-4.02,-4.0844,-4.12,-4.1446,-4.224,-4.276,-4.3271,-4.362,-4.395,-4.4296,-4.4631,-4.5112,-1.2125,-1.2238,-1.2305,-1.2305,-1.2305,-1.2305,-1.2305,-1.2305,-1.2305,-1.2305,-1.2305,-1.2305,-1.2224,-1.2077,-1.1855,-1.1558,-1.1186,-1.0818,-1.0594,-1.0588,-1.0663,-1.0738,-1.0881,-1.1329,-1.2285,-1.3528,-1.4617,-1.5559,-1.6272,-1.689,-1.7451,-1.7969,-1.8409,-1.8802,-1.9089,-1.9383,-1.9747,-2.0231,-2.0405,-2.068,-2.133,-2.2399,-2.3239,-2.3825,-2.5039,-2.5893,-2.6096,-2.6712,-2.7086,-2.7253,-2.7393,-2.764,-2.8005,-2.8444,-2.8779,-2.9075,-2.956,-2.9984,-3.0401,-3.0683,-3.0667,-3.0516,-3.083,-3.0886,-3.0598,-3.0886,-3.1162,-3.1196,-3.1312,-3.1428,-3.1576,-3.18,-3.2248,-3.2824,-3.3375,-3.3834,-3.4163,-3.4715,-3.5195,-3.5439,-3.6138,-3.6597,-3.6798,-3.7367,-3.7845,-3.7918,-3.8267,-3.8579,-3.8652,-3.8524,-3.8719,-3.8792,-3.8822,-3.8641,-3.8551,-3.8497,-3.8526,-3.8645,-3.8746,-3.8931,-3.9108,-3.9211,-3.9443,-3.977,-4.043,-4.0858,-4.1143,-4.1518,-4.2027,-4.247,-4.2838,-4.3183,-4.35,-4.3943,-4.4441,-1.2201,-1.2318,-1.2305,-1.2305,-1.2305,-1.2305,-1.2305,-1.2305,-1.2305,-1.2305,-1.2305,-1.2305,-1.2157,-1.2003,-1.17,-1.1335,-1.0893,-1.0293,-0.9916,-0.9765,-0.9916,-1.0143,-1.0368,-1.118,-1.2218,-1.347,-1.4489,-1.5346,-1.6132,-1.6751,-1.7314,-1.7803,-1.8414,-1.8808,-1.9152,-1.9507,-1.9986,-2.0387,-2.0623,-2.0985,-2.1671,-2.2603,-2.3362,-2.3888,-2.4915,-2.5591,-2.5893,-2.6379,-2.6774,-2.7063,-2.7342,-2.764,-2.7955,-2.8332,-2.8639,-2.8758,-2.9127,-2.9463,-2.9617,-2.9792,-2.9923,-2.9686,-3.007,-3.0192,-2.9854,-3.0176,-3.0429,-3.0734,-3.0811,-3.1062,-3.1432,-3.1706,-3.1982,-3.2336,-3.2677,-3.2898,-3.3219,-3.388,-3.4345,-3.4641,-3.5284,-3.5716,-3.5973,-3.6523,-3.7019,-3.7129,-3.7477,-3.7808,-3.7808,-3.7753,-3.7886,-3.7945,-3.7782,-3.7775,-3.8035,-3.8062,-3.8116,-3.8331,-3.8535,-3.886,-3.9147,-3.9175,-3.9314,-3.9514,-4.0031,-4.0164,-4.044,-4.0745,-4.1165,-4.1601,-4.2131,-4.2543,-4.2929,-4.3331,-4.3768,-1.2181,-1.2318,-1.2305,-1.2305,-1.2305,-1.2305,-1.2305,-1.2305,-1.2305,-1.2305,-1.2305,-1.2231,-1.215,-1.1935,-1.1558,-1.1037,-1.0513,-1.0067,-0.9463,-0.9084,-0.9089,-0.9468,-0.9986,-1.1019,-1.2057,-1.3112,-1.3912,-1.484,-1.5771,-1.6482,-1.7116,-1.7539,-1.8144,-1.8617,-1.8885,-1.9526,-2.0096,-2.0546,-2.0785,-2.1244,-2.1891,-2.2559,-2.3158,-2.3761,-2.4664,-2.5397,-2.5729,-2.6002,-2.634,-2.6765,-2.7269,-2.7575,-2.784,-2.8284,-2.842,-2.8115,-2.8442,-2.8501,-2.8375,-2.8721,-2.8795,-2.8757,-2.8986,-2.8924,-2.8975,-2.9161,-2.9482,-2.9989,-3.02,-3.0547,-3.1227,-3.1634,-3.1875,-3.2179,-3.2539,-3.2866,-3.3304,-3.3564,-3.3779,-3.3936,-3.4431,-3.4917,-3.5,-3.5697,-3.6101,-3.6248,-3.6376,-3.6597,-3.6615,-3.6736,-3.6499,-3.6629,-3.6943,-3.7082,-3.7394,-3.7421,-3.7466,-3.7615,-3.7904,-3.8302,-3.885,-3.9034,-3.929,-3.9458,-3.947,-3.9585,-3.9872,-4.0261,-4.0599,-4.1028,-4.1512,-4.1934,-4.2277,-4.2598,-4.2921,-1.1926,-1.2077,-1.2224,-1.2305,-1.2305,-1.2305,-1.2305,-1.2305,-1.2305,-1.2305,-1.2305,-1.2157,-1.2003,-1.1706,-1.1335,-1.0887,-1.0218,-0.9695,-0.9241,-0.8703,-0.8484,-0.8941,-0.9765,-1.072,-1.1687,-1.2592,-1.3615,-1.4633,-1.5568,-1.6202,-1.6839,-1.747,-1.794,-1.8347,-1.8818,-1.9358,-2.0009,-2.0593,-2.1164,-2.1708,-2.2311,-2.3018,-2.3586,-2.4019,-2.4597,-2.5005,-2.5286,-2.5729,-2.6233,-2.6779,-2.7026,-2.7321,-2.7625,-2.8088,-2.8153,-2.7872,-2.816,-2.8317,-2.8078,-2.8213,-2.8244,-2.7958,-2.8407,-2.8631,-2.8144,-2.8653,-2.9008,-2.9381,-2.9756,-3.02,-3.0602,-3.1192,-3.1731,-3.2232,-3.2606,-3.2979,-3.3244,-3.3491,-3.3633,-3.3753,-3.3973,-3.4128,-3.4376,-3.4816,-3.5302,-3.544,-3.5752,-3.6119,-3.5954,-3.5991,-3.5919,-3.6297,-3.6602,-3.6628,-3.6708,-3.6753,-3.6816,-3.6872,-3.7113,-3.7392,-3.8096,-3.8707,-3.9163,-3.9602,-3.9227,-3.9207,-3.9662,-4.0089,-4.0345,-4.0348,-4.0635,-4.0937,-4.12,-4.15,-4.194,-1.1855,-1.2003,-1.2224,-1.2305,-1.2305,-1.2305,-1.2305,-1.2305,-1.2305,-1.2238,-1.2164,-1.2083,-1.1781,-1.1409,-1.1037,-1.0443,-0.9771,-0.9241,-0.8784,-0.8331,-0.8178,-0.8637,-0.9544,-1.0426,-1.1323,-1.2298,-1.3317,-1.4418,-1.5346,-1.5991,-1.67,-1.7323,-1.7803,-1.8212,-1.8684,-1.9204,-1.9801,-2.0377,-2.1123,-2.1753,-2.2285,-2.2957,-2.345,-2.3819,-2.4274,-2.462,-2.5005,-2.5397,-2.5893,-2.6486,-2.6803,-2.713,-2.7473,-2.7875,-2.7839,-2.7361,-2.7636,-2.7608,-2.712,-2.7219,-2.7284,-2.7114,-2.7576,-2.7668,-2.7485,-2.7791,-2.8061,-2.8501,-2.8924,-2.9451,-3.0224,-3.1039,-3.1768,-3.2214,-3.2606,-3.2948,-3.3183,-3.3404,-3.3577,-3.3643,-3.3726,-3.3807,-3.3807,-3.4247,-3.4431,-3.4578,-3.4816,-3.5037,-3.511,-3.5257,-3.5404,-3.5625,-3.5642,-3.5536,-3.5558,-3.5609,-3.5702,-3.5813,-3.6185,-3.6482,-3.7199,-3.8021,-3.8377,-3.8672,-3.8712,-3.8842,-3.9121,-3.9317,-3.9338,-3.9392,-3.9655,-4.0032,-4.0389,-4.046,-4.0899,-1.1774,-1.2003,-1.215,-1.2231,-1.2224,-1.2224,-1.2231,-1.2231,-1.2224,-1.209,-1.1948,-1.1935,-1.1558,-1.1037,-1.0663,-0.9992,-0.9322,-0.8861,-0.8327,-0.8025,-0.8025,-0.8484,-0.9251,-1.0067,-1.1111,-1.2157,-1.3032,-1.4114,-1.5054,-1.5912,-1.6542,-1.7176,-1.7725,-1.8144,-1.8559,-1.8993,-1.9494,-2.0096,-2.0801,-2.1393,-2.1963,-2.2592,-2.309,-2.345,-2.3936,-2.439,-2.4765,-2.5036,-2.5342,-2.6076,-2.6496,-2.6922,-2.7335,-2.7695,-2.7389,-2.6807,-2.68,-2.6595,-2.5895,-2.602,-2.6162,-2.6376,-2.6569,-2.6589,-2.6776,-2.6928,-2.7165,-2.7655,-2.7739,-2.8723,-2.9986,-3.1099,-3.1683,-3.2109,-3.2438,-3.2687,-3.3024,-3.3316,-3.352,-3.3587,-3.3726,-3.378,-3.3807,-3.3807,-3.3844,-3.4137,-3.4266,-3.4339,-3.4412,-3.4449,-3.4457,-3.4452,-3.4393,-3.4234,-3.4309,-3.4383,-3.4494,-3.4643,-3.5126,-3.5578,-3.6186,-3.6825,-3.715,-3.7457,-3.7926,-3.8073,-3.8022,-3.8156,-3.8285,-3.8584,-3.8925,-3.9435,-3.9868,-3.9688,-3.9892,-1.1335,-1.1558,-1.1787,-1.1855,-1.1855,-1.1855,-1.1848,-1.1855,-1.1855,-1.1787,-1.1713,-1.1484,-1.1111,-1.0807,-1.0218,-0.969,-0.9008,-0.8627,-0.8097,-0.7638,-0.7949,-0.834,-0.8956,-0.9776,-1.0818,-1.1868,-1.2826,-1.3833,-1.4832,-1.5621,-1.6324,-1.7097,-1.7451,-1.7872,-1.8492,-1.8792,-1.926,-1.9922,-2.047,-2.1106,-2.1702,-2.2347,-2.2836,-2.3198,-2.3721,-2.4086,-2.4226,-2.4334,-2.4532,-2.4994,-2.5756,-2.6433,-2.6806,-2.6937,-2.668,-2.629,-2.5998,-2.5784,-2.5486,-2.5621,-2.5917,-2.6187,-2.638,-2.6554,-2.6606,-2.6674,-2.6759,-2.7046,-2.7486,-2.8435,-2.9867,-3.0514,-3.1232,-3.1899,-3.2284,-3.2574,-3.2916,-3.3244,-3.3452,-3.3577,-3.3671,-3.3753,-3.3788,-3.3788,-3.3807,-3.3807,-3.3807,-3.3807,-3.3807,-3.3807,-3.3913,-3.3998,-3.4023,-3.4074,-3.4148,-3.4216,-3.424,-3.4221,-3.4537,-3.4828,-3.5408,-3.5951,-3.6385,-3.6877,-3.7402,-3.7355,-3.7053,-3.7411,-3.7632,-3.7931,-3.8211,-3.853,-3.8773,-3.8742,-3.8931,-1.1111,-1.126,-1.1484,-1.1632,-1.1706,-1.1706,-1.1706,-1.17,-1.1558,-1.1484,-1.1335,-1.1037,-1.0594,-1.0218,-0.969,-0.916,-0.8627,-0.8169,-0.7791,-0.7565,-0.7872,-0.8345,-0.8813,-0.963,-1.0594,-1.1564,-1.2606,-1.3615,-1.4553,-1.5409,-1.6184,-1.689,-1.7314,-1.7735,-1.8289,-1.861,-1.9137,-1.9758,-2.0333,-2.0899,-2.1451,-2.2111,-2.2653,-2.3002,-2.3339,-2.3476,-2.3629,-2.3398,-2.3595,-2.3984,-2.4668,-2.5388,-2.5901,-2.6026,-2.5871,-2.5621,-2.5536,-2.5373,-2.5274,-2.5394,-2.5642,-2.6043,-2.6239,-2.6415,-2.6554,-2.6623,-2.6674,-2.6776,-2.7148,-2.7927,-2.9476,-3.0236,-3.0883,-3.1704,-3.2144,-3.2422,-3.2755,-3.3073,-3.3316,-3.3491,-3.3615,-3.3698,-3.3734,-3.3762,-3.3788,-3.3807,-3.3807,-3.3807,-3.3834,-3.3834,-3.3913,-3.3972,-3.4023,-3.4099,-3.4173,-3.4216,-3.424,-3.4245,-3.4344,-3.4503,-3.4801,-3.53,-3.5762,-3.6142,-3.642,-3.6236,-3.6082,-3.6512,-3.6905,-3.713,-3.7351,-3.7536,-3.7798,-3.8047,-3.827,-1.0818,-1.1037,-1.1186,-1.1329,-1.1484,-1.1484,-1.1484,-1.1484,-1.1329,-1.1037,-1.0887,-1.0519,-0.9992,-0.9539,-0.9079,-0.8551,-0.8021,-0.7642,-0.7411,-0.7338,-0.7795,-0.8268,-0.8813,-0.9554,-1.0432,-1.1378,-1.2365,-1.3324,-1.4338,-1.5196,-1.5974,-1.6542,-1.7176,-1.7666,-1.8027,-1.8474,-1.8957,-1.9505,-2.0118,-2.0613,-2.1146,-2.1788,-2.2384,-2.2683,-2.2753,-2.2713,-2.2803,-2.257,-2.2552,-2.3026,-2.332,-2.3822,-2.4413,-2.4967,-2.5163,-2.4941,-2.5037,-2.4994,-2.5012,-2.5162,-2.5486,-2.5824,-2.6096,-2.6258,-2.6468,-2.6589,-2.6623,-2.6674,-2.6911,-2.7368,-2.8762,-2.9397,-3.0343,-3.13,-3.1793,-3.2161,-3.2539,-3.2866,-3.3135,-3.3375,-3.3549,-3.3671,-3.3726,-3.3753,-3.378,-3.3807,-3.3788,-3.3752,-3.376,-3.385,-3.3865,-3.4023,-3.4074,-3.4173,-3.4245,-3.4288,-3.4311,-3.4316,-3.4298,-3.4409,-3.4495,-3.4864,-3.5249,-3.5107,-3.5191,-3.523,-3.5359,-3.5677,-3.6031,-3.6291,-3.6403,-3.6514,-3.6894,-3.7405,-3.7536,-1.0288,-1.0594,-1.0669,-1.0663,-1.0663,-1.0663,-1.0738,-1.0663,-1.0519,-1.0368,-1.0293,-0.9771,-0.9392,-0.9003,-0.8479,-0.7949,-0.7411,-0.7257,-0.7257,-0.7261,-0.7795,-0.8345,-0.8813,-0.9554,-1.0351,-1.1224,-1.2204,-1.3185,-1.4129,-1.4911,-1.57,-1.6342,-1.6968,-1.7461,-1.7969,-1.8349,-1.8755,-1.9239,-1.9791,-2.0302,-2.0741,-2.1369,-2.1921,-2.2253,-2.2226,-2.2141,-2.1959,-2.1755,-2.1799,-2.2121,-2.2128,-2.2373,-2.2975,-2.3818,-2.4353,-2.4552,-2.4453,-2.4471,-2.4661,-2.5045,-2.5371,-2.5675,-2.595,-2.6184,-2.631,-2.645,-2.6537,-2.6623,-2.6725,-2.708,-2.7892,-2.849,-2.9228,-3.0228,-3.0975,-3.1359,-3.2106,-3.2512,-3.2746,-3.2943,-3.3273,-3.3643,-3.3671,-3.3716,-3.3652,-3.3587,-3.3521,-3.3437,-3.3335,-3.3534,-3.3751,-3.3919,-3.4148,-3.4245,-3.434,-3.4363,-3.4404,-3.4409,-3.4431,-3.4495,-3.4602,-3.4687,-3.4788,-3.4849,-3.4888,-3.5059,-3.5132,-3.5164,-3.5295,-3.5654,-3.5577,-3.5479,-3.5897,-3.6353,-3.6441,-0.969,-0.9992,-1.0067,-1.0067,-1.0143,-1.0218,-1.0218,-1.0148,-0.9846,-0.9771,-0.9539,-0.9089,-0.8627,-0.8318,-0.8016,-0.7484,-0.7103,-0.7103,-0.7103,-0.7257,-0.7795,-0.8345,-0.8741,-0.9554,-1.034,-1.1143,-1.205,-1.2959,-1.3985,-1.4768,-1.5488,-1.6202,-1.676,-1.7323,-1.7745,-1.8047,-1.8464,-1.8972,-1.9483,-1.9911,-2.0311,-2.098,-2.1391,-2.1593,-2.1403,-2.1206,-2.115,-2.0832,-2.0901,-2.1191,-2.139,-2.1691,-2.2222,-2.283,-2.352,-2.3881,-2.3963,-2.4078,-2.4426,-2.4846,-2.5123,-2.541,-2.5728,-2.5987,-2.6168,-2.6327,-2.6434,-2.6572,-2.6623,-2.6944,-2.7722,-2.7877,-2.8612,-2.9504,-3.0006,-3.0456,-3.0972,-3.1373,-3.1747,-3.2259,-3.2879,-3.3312,-3.3661,-3.3625,-3.3542,-3.3421,-3.3246,-3.3077,-3.2882,-3.2994,-3.3198,-3.356,-3.3748,-3.4031,-3.4102,-3.4105,-3.4277,-3.4373,-3.4451,-3.4513,-3.4687,-3.4788,-3.4829,-3.4868,-3.4927,-3.4983,-3.502,-3.5092,-3.5073,-3.5054,-3.5131,-3.5188,-3.5148,-3.524,-3.5484,-0.9084,-0.9392,-0.9392,-0.9544,-0.9614,-0.969,-0.9614,-0.9614,-0.9241,-0.9094,-0.9018,-0.8479,-0.8016,-0.7706,-0.7403,-0.7022,-0.6563,-0.6953,-0.6945,-0.7099,-0.7638,-0.8264,-0.8813,-0.9478,-1.0276,-1.0995,-1.1835,-1.2739,-1.3615,-1.4561,-1.5275,-1.5912,-1.6482,-1.6978,-1.7332,-1.7813,-1.8241,-1.8647,-1.9239,-1.966,-2.0028,-2.0403,-2.0724,-2.0949,-2.0407,-2.0274,-2.0291,-2.0229,-2.0271,-2.0588,-2.0934,-2.1307,-2.1641,-2.2094,-2.2538,-2.2994,-2.346,-2.3894,-2.4261,-2.4564,-2.4902,-2.5217,-2.5448,-2.5712,-2.5987,-2.6148,-2.631,-2.6503,-2.6589,-2.6774,-2.7332,-2.7605,-2.8117,-2.8767,-2.9145,-2.9436,-2.9946,-3.0346,-3.0716,-3.1392,-3.2329,-3.2692,-3.273,-3.2847,-3.2614,-3.2585,-3.2426,-3.2416,-3.2244,-3.2173,-3.2414,-3.29,-3.3272,-3.366,-3.3742,-3.365,-3.3898,-3.4146,-3.424,-3.4336,-3.4621,-3.4868,-3.4849,-3.4793,-3.4926,-3.4965,-3.5002,-3.5001,-3.4983,-3.4964,-3.4945,-3.4946,-3.4964,-3.4983,-3.5115,-0.8627,-0.8775,-0.878,-0.8851,-0.8856,-0.8851,-0.8856,-0.8775,-0.8627,-0.8479,-0.8479,-0.794,-0.7561,-0.7407,-0.6945,-0.6567,-0.649,-0.6563,-0.6791,-0.7019,-0.7557,-0.8183,-0.8737,-0.9554,-1.0201,-1.0852,-1.1694,-1.2445,-1.3258,-1.4137,-1.4776,-1.5409,-1.6061,-1.6533,-1.6954,-1.7413,-1.8018,-1.8212,-1.8787,-1.9306,-1.961,-1.9757,-1.9785,-1.9733,-1.9718,-1.9715,-1.9601,-1.9654,-1.9978,-2.0271,-2.0709,-2.0994,-2.1084,-2.1324,-2.1398,-2.1843,-2.2621,-2.3752,-2.3941,-2.4168,-2.4411,-2.472,-2.5048,-2.5438,-2.5554,-2.5875,-2.6087,-2.6295,-2.6434,-2.6553,-2.679,-2.6791,-2.73,-2.7828,-2.8322,-2.8835,-2.9344,-2.9355,-2.9703,-3.0094,-3.0936,-3.122,-3.1362,-3.1528,-3.1629,-3.1618,-3.163,-3.1634,-3.1621,-3.1548,-3.1696,-3.2214,-3.2746,-3.3127,-3.3317,-3.3242,-3.3356,-3.3734,-3.3828,-3.3942,-3.4074,-3.4264,-3.4661,-3.4661,-3.4756,-3.4831,-3.4888,-3.4869,-3.4869,-3.4849,-3.481,-3.479,-3.4809,-3.481,-3.4831,-0.7863,-0.8322,-0.8403,-0.8246,-0.8165,-0.8169,-0.8093,-0.8016,-0.7791,-0.7714,-0.7638,-0.7326,-0.7096,-0.6945,-0.6567,-0.6416,-0.6338,-0.649,-0.6714,-0.7019,-0.748,-0.8025,-0.8574,-0.9327,-1.0056,-1.0634,-1.1391,-1.2083,-1.2893,-1.368,-1.4482,-1.5037,-1.5683,-1.6139,-1.6342,-1.6803,-1.7114,-1.7408,-1.7951,-1.8554,-1.8826,-1.8914,-1.8873,-1.8862,-1.8943,-1.897,-1.9071,-1.9356,-1.972,-1.9953,-2.0226,-2.0351,-2.0441,-2.0592,-2.0669,-2.0981,-2.1608,-2.2292,-2.2662,-2.306,-2.3413,-2.3599,-2.3866,-2.4067,-2.4414,-2.4991,-2.5415,-2.5522,-2.6042,-2.6297,-2.6419,-2.6572,-2.686,-2.725,-2.7383,-2.7751,-2.8221,-2.8508,-2.8741,-2.9109,-2.944,-2.9652,-3.0013,-3.0571,-3.0783,-3.0886,-3.0863,-3.081,-3.0905,-3.0956,-3.1167,-3.1581,-3.2108,-3.2635,-3.2746,-3.2764,-3.2746,-3.2991,-3.2993,-3.3106,-3.3184,-3.343,-3.3809,-3.4055,-3.3998,-3.4205,-3.4561,-3.4749,-3.4769,-3.4708,-3.4645,-3.4645,-3.4645,-3.4645,-3.4689,-0.7019,-0.7638,-0.7714,-0.771,-0.7553,-0.7553,-0.748,-0.7326,-0.7253,-0.718,-0.7026,-0.6942,-0.6714,-0.6563,-0.6416,-0.6338,-0.6338,-0.649,-0.6637,-0.6942,-0.7403,-0.7868,-0.8412,-0.917,-0.983,-1.0323,-1.1168,-1.1729,-1.2257,-1.3042,-1.3818,-1.4561,-1.5093,-1.548,-1.5698,-1.6008,-1.6379,-1.6922,-1.7254,-1.7584,-1.7874,-1.7867,-1.7961,-1.8069,-1.8202,-1.8367,-1.8625,-1.8819,-1.9135,-1.9446,-1.9451,-1.9533,-1.9613,-1.968,-1.9795,-2.0044,-2.0417,-2.0699,-2.1203,-2.1719,-2.2148,-2.2452,-2.2713,-2.3247,-2.3517,-2.4013,-2.4398,-2.4589,-2.5056,-2.5458,-2.5763,-2.5849,-2.5933,-2.6047,-2.6277,-2.6536,-2.6805,-2.718,-2.7388,-2.7558,-2.7821,-2.8064,-2.8584,-2.948,-2.9927,-3.0109,-3.0126,-3.0066,-3.0188,-3.0376,-3.0617,-3.0966,-3.1187,-3.1618,-3.1692,-3.1841,-3.1993,-3.2188,-3.2191,-3.2364,-3.2539,-3.2637,-3.2902,-3.3072,-3.3185,-3.354,-3.3855,-3.4269,-3.4663,-3.4558,-3.4473,-3.445,-3.445,-3.4473,-3.4539,-0.6093,-0.6395,-0.6788,-0.6942,-0.7019,-0.6942,-0.6942,-0.6942,-0.6942,-0.6865,-0.6868,-0.671,-0.6486,-0.6335,-0.6261,-0.6183,-0.6257,-0.6338,-0.6412,-0.6718,-0.7026,-0.7565,-0.8178,-0.8861,-0.9539,-0.9976,-1.0691,-1.1156,-1.1454,-1.206,-1.289,-1.3569,-1.4194,-1.4529,-1.4844,-1.5245,-1.5823,-1.6282,-1.6516,-1.6675,-1.6922,-1.7006,-1.7105,-1.7366,-1.7634,-1.7865,-1.8104,-1.816,-1.8289,-1.8658,-1.8627,-1.8649,-1.8711,-1.8825,-1.8907,-1.8997,-1.923,-1.9464,-1.9874,-2.0795,-2.1743,-2.2224,-2.2462,-2.2575,-2.2725,-2.309,-2.3407,-2.361,-2.4076,-2.4247,-2.4332,-2.4329,-2.4825,-2.5069,-2.5363,-2.5562,-2.5754,-2.5876,-2.6055,-2.6061,-2.6381,-2.6962,-2.7262,-2.8209,-2.8743,-2.8938,-2.9548,-2.9514,-2.9774,-2.9969,-3.0111,-3.0304,-3.0312,-3.0422,-3.0365,-3.0594,-3.1016,-3.1255,-3.132,-3.1663,-3.2027,-3.2089,-3.1826,-3.2147,-3.2315,-3.2743,-3.3152,-3.3487,-3.3818,-3.4153,-3.4293,-3.4269,-3.4316,-3.4404,-3.4473,-0.5473,-0.5625,-0.586,-0.6173,-0.6567,-0.6637,-0.6641,-0.6563,-0.6567,-0.6563,-0.6486,-0.6254,-0.6096,-0.6022,-0.5948,-0.587,-0.587,-0.6025,-0.6177,-0.6563,-0.6949,-0.7334,-0.7944,-0.8475,-0.9155,-0.9552,-1.0142,-1.056,-1.0953,-1.1339,-1.1669,-1.2301,-1.3194,-1.3677,-1.4045,-1.4416,-1.5009,-1.5386,-1.5645,-1.5879,-1.5996,-1.6393,-1.6602,-1.6715,-1.7267,-1.7368,-1.7393,-1.7635,-1.7757,-1.7787,-1.7778,-1.7816,-1.7922,-1.8017,-1.8071,-1.8176,-1.8464,-1.8697,-1.904,-1.9922,-2.0593,-2.088,-2.1131,-2.1385,-2.1701,-2.2049,-2.2394,-2.2692,-2.3171,-2.3455,-2.3786,-2.4016,-2.431,-2.4416,-2.4516,-2.4658,-2.4793,-2.4923,-2.5191,-2.5383,-2.5901,-2.6477,-2.6683,-2.6947,-2.7379,-2.7774,-2.8444,-2.9034,-2.9244,-2.944,-2.9544,-2.9646,-2.9637,-2.9732,-2.9732,-2.9927,-3.0136,-3.0228,-3.0354,-3.0516,-3.071,-3.0676,-3.0565,-3.0959,-3.135,-3.1663,-3.2051,-3.2552,-3.3026,-3.3533,-3.3889,-3.4124,-3.4197,-3.4293,-3.4427,-0.4774,-0.4932,-0.501,-0.5398,-0.6103,-0.6257,-0.6254,-0.6103,-0.6106,-0.6106,-0.6103,-0.5867,-0.5789,-0.5789,-0.5712,-0.5637,-0.5637,-0.5789,-0.5944,-0.6257,-0.6641,-0.7103,-0.7544,-0.8023,-0.8538,-0.9015,-0.9416,-0.9867,-1.0137,-1.0635,-1.0894,-1.1352,-1.208,-1.2603,-1.3186,-1.3743,-1.4181,-1.4547,-1.4961,-1.5352,-1.5488,-1.5904,-1.6259,-1.6322,-1.6623,-1.6732,-1.6642,-1.6762,-1.6792,-1.6811,-1.6854,-1.6958,-1.7137,-1.7316,-1.7459,-1.776,-1.8028,-1.8358,-1.8784,-1.9362,-1.9762,-2.0142,-2.0253,-2.0362,-2.0565,-2.1064,-2.1437,-2.1688,-2.2356,-2.2881,-2.3047,-2.3076,-2.3245,-2.3278,-2.3566,-2.3733,-2.3947,-2.4112,-2.4486,-2.4813,-2.5234,-2.5448,-2.5682,-2.5876,-2.667,-2.7114,-2.7796,-2.8263,-2.8392,-2.8622,-2.8879,-2.8951,-2.9017,-2.9136,-2.9241,-2.9098,-2.8901,-2.8749,-2.8855,-2.8865,-2.8965,-2.9026,-2.9233,-2.9569,-2.9995,-3.0456,-3.0953,-3.1448,-3.2242,-3.303,-3.3297,-3.3549,-3.4124,-3.4221,-3.434,-0.3919,-0.4157,-0.4307,-0.4854,-0.5482,-0.564,-0.564,-0.5637,-0.5637,-0.564,-0.5718,-0.5637,-0.5559,-0.5559,-0.5479,-0.5404,-0.5401,-0.5556,-0.5709,-0.5864,-0.6257,-0.6721,-0.7049,-0.7493,-0.7974,-0.8436,-0.879,-0.9056,-0.9276,-0.9764,-1.0052,-1.0502,-1.1206,-1.1881,-1.239,-1.3319,-1.4028,-1.4469,-1.4843,-1.5137,-1.5362,-1.5662,-1.5894,-1.595,-1.598,-1.6037,-1.587,-1.5745,-1.5777,-1.589,-1.5936,-1.6114,-1.6393,-1.6726,-1.7031,-1.7393,-1.7666,-1.7988,-1.8344,-1.9184,-1.9603,-1.9762,-1.9919,-2.008,-2.0235,-2.045,-2.0631,-2.1027,-2.1325,-2.1456,-2.158,-2.1856,-2.2152,-2.2442,-2.2756,-2.3031,-2.329,-2.3519,-2.3904,-2.426,-2.4104,-2.4069,-2.4377,-2.4828,-2.5828,-2.6556,-2.7169,-2.7504,-2.7589,-2.796,-2.8278,-2.8341,-2.8393,-2.8351,-2.8341,-2.7922,-2.7653,-2.7481,-2.7549,-2.7802,-2.7788,-2.7828,-2.8035,-2.8277,-2.8554,-2.8962,-2.9657,-3.0364,-3.1066,-3.1755,-3.249,-3.2933,-3.3593,-3.4043,-3.4032,-0.3136,-0.3446,-0.3522,-0.3915,-0.4465,-0.501,-0.5165,-0.5243,-0.5323,-0.5482,-0.5559,-0.5323,-0.5165,-0.5162,-0.4929,-0.4854,-0.4854,-0.5162,-0.5318,-0.5395,-0.5938,-0.6254,-0.6583,-0.6962,-0.7364,-0.772,-0.8059,-0.8412,-0.8815,-0.9136,-0.9533,-0.9996,-1.0933,-1.1864,-1.2552,-1.331,-1.3752,-1.4181,-1.4656,-1.5088,-1.5196,-1.5478,-1.5581,-1.5435,-1.5456,-1.5316,-1.506,-1.4846,-1.4941,-1.5101,-1.5176,-1.5513,-1.5844,-1.6219,-1.6595,-1.6921,-1.7284,-1.7882,-1.8397,-1.9064,-1.9398,-1.9551,-1.9717,-1.9793,-1.996,-2.02,-2.0373,-2.0465,-2.0621,-2.0879,-2.1373,-2.1603,-2.188,-2.2116,-2.2395,-2.2634,-2.2858,-2.3084,-2.3393,-2.3708,-2.3743,-2.4078,-2.4392,-2.4545,-2.5348,-2.5788,-2.6342,-2.6626,-2.6765,-2.7369,-2.7821,-2.778,-2.7785,-2.7661,-2.7447,-2.7013,-2.688,-2.6876,-2.7017,-2.7284,-2.7156,-2.6766,-2.7046,-2.7382,-2.74,-2.7472,-2.8207,-2.8938,-2.9636,-3.0356,-3.1048,-3.1927,-3.2622,-3.312,-3.3417,-0.251,-0.2741,-0.2821,-0.2979,-0.3448,-0.4229,-0.4616,-0.4696,-0.4929,-0.5087,-0.509,-0.4854,-0.4698,-0.4618,-0.4384,-0.4229,-0.4229,-0.454,-0.4851,-0.4921,-0.5496,-0.5899,-0.6166,-0.6508,-0.6818,-0.7029,-0.7327,-0.7659,-0.8179,-0.8576,-0.9163,-0.9983,-1.0863,-1.1677,-1.2498,-1.3083,-1.3709,-1.4088,-1.4556,-1.493,-1.504,-1.5158,-1.5172,-1.5008,-1.4854,-1.4653,-1.4297,-1.4177,-1.428,-1.4414,-1.464,-1.4983,-1.5344,-1.5756,-1.6022,-1.6296,-1.6622,-1.7166,-1.7698,-1.8092,-1.8331,-1.8623,-1.9125,-1.9261,-1.923,-1.9223,-1.9421,-1.9634,-1.9986,-2.0257,-2.0521,-2.0842,-2.1094,-2.1306,-2.1742,-2.1958,-2.2315,-2.2534,-2.3034,-2.3333,-2.3605,-2.4025,-2.4366,-2.4626,-2.4968,-2.5225,-2.5465,-2.5665,-2.5876,-2.6466,-2.6909,-2.6882,-2.6726,-2.646,-2.6288,-2.6133,-2.6073,-2.6216,-2.6332,-2.6428,-2.6094,-2.5686,-2.6079,-2.6377,-2.6209,-2.6265,-2.6819,-2.75,-2.826,-2.8931,-2.9569,-3.0479,-3.15,-3.2184,-3.2723,-0.1963,-0.2117,-0.2195,-0.2276,-0.2589,-0.337,-0.3843,-0.4079,-0.4309,-0.4384,-0.4384,-0.4233,-0.4077,-0.3999,-0.3843,-0.3763,-0.3763,-0.3997,-0.4295,-0.4658,-0.505,-0.5457,-0.5735,-0.5885,-0.6268,-0.6509,-0.6779,-0.707,-0.7536,-0.8182,-0.8952,-0.9849,-1.0674,-1.149,-1.2197,-1.2899,-1.3518,-1.3967,-1.4446,-1.4753,-1.4932,-1.4783,-1.4731,-1.4531,-1.4198,-1.3846,-1.3581,-1.3559,-1.3587,-1.3784,-1.4111,-1.4459,-1.4835,-1.5264,-1.5329,-1.5488,-1.5698,-1.6174,-1.6659,-1.7058,-1.7165,-1.7568,-1.8062,-1.8112,-1.8233,-1.8334,-1.8555,-1.8701,-1.8952,-1.9023,-1.9193,-1.9488,-1.9789,-2.025,-2.082,-2.1191,-2.1608,-2.208,-2.2688,-2.3071,-2.3319,-2.3621,-2.3866,-2.4155,-2.4095,-2.4153,-2.4266,-2.4382,-2.4669,-2.5232,-2.5598,-2.5589,-2.5399,-2.5081,-2.5001,-2.5233,-2.5314,-2.5473,-2.5196,-2.5162,-2.483,-2.4867,-2.5294,-2.5444,-2.4981,-2.5187,-2.6135,-2.6637,-2.6971,-2.7623,-2.8426,-2.9229,-3.0311,-3.146,-3.2047,-0.1099,-0.1256,-0.1256,-0.1414,-0.1727,-0.2196,-0.2821,-0.3368,-0.3602,-0.3759,-0.3917,-0.3682,-0.3526,-0.3368,-0.3137,-0.3137,-0.3214,-0.3441,-0.3789,-0.4204,-0.4597,-0.5015,-0.5286,-0.5553,-0.578,-0.6015,-0.6288,-0.6609,-0.7134,-0.7842,-0.8748,-0.9652,-1.0421,-1.1178,-1.1879,-1.2653,-1.3189,-1.3787,-1.4267,-1.4529,-1.4585,-1.4506,-1.4269,-1.394,-1.3518,-1.3227,-1.3036,-1.2939,-1.2954,-1.3022,-1.319,-1.3438,-1.34,-1.386,-1.417,-1.5022,-1.5388,-1.5845,-1.6302,-1.6642,-1.6718,-1.6561,-1.6946,-1.7388,-1.7595,-1.7738,-1.785,-1.7946,-1.8112,-1.8271,-1.8515,-1.8783,-1.9044,-1.9458,-2.0001,-2.0449,-2.0866,-2.1371,-2.1953,-2.2296,-2.2567,-2.2832,-2.3105,-2.3101,-2.3059,-2.3032,-2.3093,-2.3248,-2.3501,-2.4082,-2.4379,-2.4389,-2.4388,-2.4163,-2.4417,-2.4666,-2.4652,-2.4638,-2.4416,-2.436,-2.4526,-2.462,-2.475,-2.4785,-2.4727,-2.5123,-2.5835,-2.6133,-2.6225,-2.6857,-2.764,-2.8333,-2.9101,-3.0133,-3.1073,-0.0629,-0.0786,-0.0786,-0.0864,-0.1021,-0.1334,-0.1803,-0.2272,-0.2821,-0.3136,-0.3214,-0.2979,-0.2899,-0.2743,-0.2588,-0.25,-0.2551,-0.2851,-0.3201,-0.3659,-0.421,-0.4616,-0.4888,-0.5253,-0.5457,-0.5715,-0.5954,-0.628,-0.6806,-0.7717,-0.8619,-0.9332,-1.0104,-1.08,-1.1498,-1.2127,-1.2683,-1.3346,-1.3872,-1.415,-1.4167,-1.4034,-1.3662,-1.3324,-1.2922,-1.2635,-1.248,-1.2376,-1.2319,-1.2315,-1.2474,-1.2575,-1.27,-1.3152,-1.3595,-1.4299,-1.4481,-1.4844,-1.5209,-1.5624,-1.5722,-1.5823,-1.5941,-1.6272,-1.6635,-1.6818,-1.6955,-1.712,-1.7403,-1.7681,-1.7952,-1.8232,-1.8467,-1.8726,-1.921,-1.9692,-2.0125,-2.0551,-2.0941,-2.1303,-2.1625,-2.1912,-2.2039,-2.2017,-2.2162,-2.2379,-2.2487,-2.2539,-2.2698,-2.3046,-2.3267,-2.3324,-2.3397,-2.3397,-2.3683,-2.3801,-2.3652,-2.367,-2.3836,-2.387,-2.4164,-2.4492,-2.4692,-2.4764,-2.4779,-2.5145,-2.5471,-2.5445,-2.559,-2.6204,-2.6685,-2.7204,-2.7786,-2.8464,-2.9342,-0.055,-0.055,-0.055,-0.055,-0.0629,-0.0786,-0.0943,-0.0943,-0.1883,-0.2354,-0.2353,-0.2275,-0.2196,-0.2117,-0.1953,-0.193,-0.206,-0.2347,-0.2753,-0.3197,-0.3717,-0.4187,-0.4647,-0.4956,-0.5269,-0.5502,-0.569,-0.6017,-0.6613,-0.733,-0.8112,-0.8888,-0.9594,-1.0231,-1.0863,-1.1392,-1.1912,-1.2514,-1.2973,-1.3327,-1.3446,-1.3211,-1.2833,-1.2604,-1.2319,-1.2008,-1.1929,-1.1824,-1.1677,-1.1719,-1.1777,-1.1913,-1.2306,-1.2704,-1.3129,-1.3533,-1.374,-1.4007,-1.4373,-1.4703,-1.491,-1.5049,-1.5208,-1.5549,-1.5891,-1.6114,-1.6292,-1.6483,-1.6774,-1.6971,-1.7235,-1.7502,-1.7771,-1.8071,-1.8481,-1.8892,-1.9285,-1.9742,-2.0212,-2.0516,-2.0698,-2.0974,-2.1087,-2.1083,-2.1038,-2.1544,-2.1637,-2.1581,-2.1708,-2.1905,-2.2219,-2.2327,-2.2566,-2.2669,-2.2632,-2.2691,-2.2468,-2.2539,-2.294,-2.3221,-2.3393,-2.3978,-2.4676,-2.4582,-2.4483,-2.4723,-2.4938,-2.5024,-2.511,-2.5309,-2.5745,-2.6056,-2.6578,-2.7153,-2.7909,-0.0157,-0.0157,-0.0157,-0.0236,-0.0393,-0.0393,-0.055,-0.0707,-0.0942,-0.1334,-0.1728,-0.1726,-0.1648,-0.1485,-0.146,-0.1441,-0.1507,-0.1995,-0.2464,-0.2919,-0.3424,-0.4013,-0.4546,-0.4815,-0.5093,-0.5359,-0.562,-0.5818,-0.635,-0.6942,-0.7466,-0.8047,-0.8801,-0.9545,-1.0116,-1.0573,-1.1008,-1.1564,-1.1686,-1.2332,-1.2792,-1.2486,-1.2132,-1.1956,-1.1729,-1.1353,-1.1186,-1.1089,-1.0831,-1.0664,-1.0799,-1.1104,-1.1559,-1.1972,-1.2456,-1.2925,-1.3286,-1.3573,-1.3901,-1.4195,-1.4529,-1.4811,-1.5041,-1.5254,-1.5448,-1.558,-1.5755,-1.5955,-1.6179,-1.6355,-1.6596,-1.6841,-1.7134,-1.7484,-1.7803,-1.8166,-1.8529,-1.9019,-1.9541,-1.9722,-1.9877,-2.001,-2.0157,-2.0148,-2.01,-2.0078,-2.0059,-2.0078,-2.0222,-2.0441,-2.1213,-2.147,-2.1903,-2.2001,-2.1813,-2.1693,-2.1518,-2.1782,-2.2248,-2.2468,-2.2682,-2.3321,-2.3992,-2.41,-2.4144,-2.425,-2.4477,-2.4869,-2.4953,-2.4853,-2.5,-2.5399,-2.5588,-2.6065,-2.681,0.0,0.0,0.0,-0.0079,-0.0157,-0.0157,-0.0236,-0.0314,-0.0393,-0.0698,-0.0993,-0.1076,-0.1083,-0.1001,-0.1054,-0.1107,-0.1248,-0.166,-0.2187,-0.2631,-0.3164,-0.3745,-0.418,-0.4631,-0.4831,-0.5093,-0.5425,-0.5756,-0.6086,-0.6613,-0.7073,-0.7502,-0.8168,-0.8782,-0.928,-0.9587,-0.9969,-1.0505,-1.0399,-1.0819,-1.172,-1.1505,-1.1328,-1.1247,-1.0922,-1.0606,-1.0477,-1.036,-1.0081,-1.0043,-1.0289,-1.0736,-1.121,-1.1682,-1.2125,-1.2567,-1.2978,-1.3344,-1.3702,-1.4046,-1.4337,-1.4624,-1.4887,-1.5102,-1.5358,-1.5507,-1.5711,-1.5911,-1.6123,-1.6316,-1.6596,-1.6841,-1.7117,-1.741,-1.7725,-1.8068,-1.8426,-1.8871,-1.9201,-1.936,-1.9477,-1.9557,-1.9672,-1.9733,-1.969,-1.9738,-1.9538,-1.9505,-1.9472,-1.9435,-2.0096,-2.0588,-2.1013,-2.0954,-2.0611,-2.0615,-2.0676,-2.104,-2.1534,-2.1979,-2.235,-2.2809,-2.3236,-2.3313,-2.3427,-2.3553,-2.3826,-2.4169,-2.4403,-2.43,-2.448,-2.4755,-2.4903,-2.5058,-2.5759,0.0,0.0,0.0,0.0,0.0,0.0079,0.0079,0.0078,-0.0078,-0.0152,-0.0221,-0.0446,-0.0525,-0.0598,-0.0734,-0.086,-0.1127,-0.1471,-0.1922,-0.2444,-0.2971,-0.3572,-0.4038,-0.4361,-0.4628,-0.4831,-0.5093,-0.5292,-0.5554,-0.6048,-0.6526,-0.6979,-0.7443,-0.7917,-0.8387,-0.8668,-0.8961,-0.9266,-0.9334,-0.9404,-0.9865,-1.0401,-1.0452,-1.034,-1.0071,-0.9906,-0.973,-0.96,-0.9364,-0.9611,-0.9987,-1.0527,-1.0985,-1.1479,-1.192,-1.2365,-1.2733,-1.3104,-1.3446,-1.3769,-1.4098,-1.4406,-1.4686,-1.4949,-1.5208,-1.5433,-1.5653,-1.5898,-1.6083,-1.6316,-1.6596,-1.6841,-1.7117,-1.7408,-1.7704,-1.8009,-1.8385,-1.8751,-1.8914,-1.9053,-1.9153,-1.9216,-1.928,-1.936,-1.939,-1.9453,-1.9468,-1.9438,-1.9405,-1.9387,-1.9663,-1.9877,-2.0074,-1.9882,-1.967,-1.9852,-2.0131,-2.0281,-2.0784,-2.1441,-2.1961,-2.2193,-2.2378,-2.2503,-2.2609,-2.2915,-2.2983,-2.3163,-2.3386,-2.3645,-2.3781,-2.3965,-2.4158,-2.4361,-2.4783,0.0,0.0,0.0157,0.0236,0.0236,0.0393,0.0471,0.0469,0.0461,0.0449,0.0291,0.0143,0.0,-0.0366,-0.0357,-0.0491,-0.0766,-0.1168,-0.1699,-0.2223,-0.2757,-0.336,-0.3828,-0.4161,-0.4431,-0.4628,-0.4761,-0.4894,-0.4979,-0.5291,-0.5683,-0.599,-0.6322,-0.6778,-0.7195,-0.7495,-0.7747,-0.814,-0.8306,-0.8397,-0.8778,-0.9232,-0.9511,-0.9479,-0.938,-0.9101,-0.8852,-0.88,-0.8843,-0.9096,-0.967,-1.0322,-1.084,-1.1292,-1.1737,-1.215,-1.2508,-1.2873,-1.3207,-1.3501,-1.3822,-1.4208,-1.4511,-1.4749,-1.5027,-1.5299,-1.5566,-1.5856,-1.6083,-1.6316,-1.657,-1.6841,-1.7117,-1.7479,-1.7794,-1.8095,-1.8426,-1.8657,-1.8843,-1.8967,-1.907,-1.917,-1.9266,-1.9314,-1.9311,-1.936,-1.9372,-1.9338,-1.9338,-1.9323,-1.9323,-1.9353,-1.9416,-1.9468,-1.9534,-1.9629,-1.9828,-1.9863,-2.0,-2.0619,-2.1077,-2.133,-2.1483,-2.1627,-2.2087,-2.2518,-2.2498,-2.2183,-2.2585,-2.2844,-2.294,-2.3103,-2.3352,-2.3629,-2.4011]}]]